Date StartTime U_cm/s V_cm/s W_cm/s Ustd_cm/s Vstd_cm/s Wstd_cm/s Uvar_(cm/s)^2 Vvar_(cm/s)^2 Wvar_(cm/s)^2 KE_(m/s)^2 TurbulentKE_(m/s)^2 HorizWindSpeed_cm/s FrictionSpeec_cm/s DragCoef SpeedOfSound_m/s SonicTemperature_C Pressure_mb 
04/22/2013  00:00:00     -125.933      259.789      -32.675       86.077       86.703       56.722     7409.291     7517.391     3217.348        5.128        0.907      288.703       53.854        0.035      340.896       15.230      863.535
04/22/2013  00:01:00     -113.131      157.249      -28.441       82.294       87.526       46.831     6772.344     7660.834     2193.157        2.748        0.831      193.716       49.012        0.064      340.853       15.160      863.547
04/22/2013  00:02:00      -54.019      188.871      -18.283       41.629       75.754       36.037     1732.953     5738.616     1298.639        2.385        0.439      196.444       28.940        0.022      340.856       15.163      863.555
04/22/2013  00:03:00      -84.547      191.826      -29.231       81.327      114.499       38.937     6614.040    13109.918     1516.064        3.302        1.062      209.632       47.760        0.052      340.880       15.203      863.554
04/22/2013  00:04:00      -43.961      242.065      -16.719       88.295      132.272       59.518     7795.940    17495.759     3542.385        4.481        1.442      246.025       67.198        0.075      340.817       15.095      863.552
04/22/2013  00:05:00      -76.105      219.292      -26.229       61.273       69.586       36.141     3754.363     4842.143     1306.190        3.223        0.495      232.122       35.904        0.024      340.794       15.058      863.577
04/22/2013  00:06:00     -126.493      200.878      -30.901       70.992       63.385       46.570     5039.842     4017.667     2168.775        3.426        0.561      237.387       44.185        0.035      340.739       14.963      863.596
04/22/2013  00:07:00      -78.285      133.063      -27.628       64.192       49.469       36.646     4120.674     2447.199     1342.965        1.625        0.396      154.384       23.359        0.023      340.741       14.969      863.611
04/22/2013  00:08:00     -102.127      128.790      -35.364       50.987       63.047       34.527     2599.702     3974.871     1192.099        1.802        0.388      164.368       33.774        0.042      340.701       14.904      863.612
04/22/2013  00:09:00     -136.330      197.017      -38.861       88.527       73.317       44.322     7836.947     5375.332     1964.471        3.704        0.759      239.586       44.127        0.034      340.692       14.885      863.620
04/22/2013  00:10:00      -89.679      113.079       -8.461       64.949       68.077       39.375     4218.345     4634.476     1550.371        1.565        0.520      144.324       39.007        0.073      340.685       14.876      863.635
04/22/2013  00:11:00     -114.199      192.849      -15.061       71.070       75.549       50.487     5050.945     5707.682     2548.894        3.188        0.665      224.125       42.052        0.035      340.620       14.764      863.640
04/22/2013  00:12:00      -33.322      164.952       -9.938       42.090      100.471       39.739     1771.558    10094.399     1579.200        2.093        0.672      168.284       41.729        0.061      340.620       14.764      863.635
04/22/2013  00:13:00      -39.377      210.888      -28.758       92.718      140.929       57.236     8596.678    19860.991     3275.966        3.929        1.587      214.533       62.342        0.084      340.618       14.761      863.627
04/22/2013  00:14:00     -117.929      273.949      -31.771      108.845       84.436       50.549    11847.170     7129.470     2555.209        5.574        1.077      298.254       58.218        0.038      340.664       14.838      863.633
04/22/2013  00:15:00     -144.578      254.170      -40.840       94.427       75.200       54.951     8916.441     5655.007     3019.592        5.238        0.880      292.413       48.506        0.028      340.682       14.867      863.633
04/22/2013  00:16:00     -139.567      285.926      -32.283       97.417      150.137       61.840     9490.127    22541.170     3824.145        6.906        1.793      318.171       61.367        0.037      340.665       14.840      863.626
04/22/2013  00:17:00     -126.268      255.831      -37.009      107.063      121.689       61.254    11462.479    14808.280     3752.015        5.639        1.501      285.295       57.303        0.040      340.681       14.867      863.619
04/22/2013  00:18:00     -164.274      319.233      -45.585       87.060      105.077       54.239     7579.423    11041.147     2941.850        7.626        1.078      359.020       45.587        0.016      340.667       14.842      863.631
04/22/2013  00:19:00     -195.453      241.310      -43.500      104.839      108.674       56.347    10991.270    11810.092     3175.009        6.215        1.299      310.535       58.256        0.035      340.668       14.843      863.649
04/22/2013  00:20:00     -183.290      190.182      -42.777       81.504       91.502       46.929     6642.860     8372.595     2202.319        4.440        0.861      264.130       40.646        0.024      340.678       14.861      863.671
04/22/2013  00:21:00     -161.858      152.582      -25.887       93.084       76.316       49.393     8664.560     5824.169     2439.658        3.354        0.846      222.440       44.453        0.040      340.638       14.794      863.666
04/22/2013  00:22:00     -140.399      209.060      -26.063       79.364      112.224       60.344     6298.578    12594.155     3641.372        4.331        1.127      251.829       61.525        0.060      340.614       14.753      863.674
04/22/2013  00:23:00     -113.577      165.900      -16.170       67.290       88.420       47.257     4527.914     7818.120     2233.215        2.763        0.729      201.054       43.914        0.048      340.583       14.701      863.657
04/22/2013  00:24:00     -117.200      154.272      -27.614       70.971       70.756       43.159     5036.870     5006.398     1862.708        2.510        0.595      193.741       32.134        0.028      340.574       14.685      863.638
04/22/2013  00:25:00     -152.874      206.309      -21.393       99.186      110.899       60.132     9837.939    12298.621     3615.852        4.607        1.288      256.776       64.747        0.064      340.531       14.613      863.651
04/22/2013  00:26:00     -225.895      242.656      -44.208      115.308      111.988       70.764    13295.854    12541.238     5007.496        7.135        1.542      331.528       82.737        0.062      340.499       14.558      863.659
04/22/2013  00:27:00     -140.126      229.338      -26.286      100.057      119.740       71.712    10011.391    14337.722     5142.610        5.120        1.475      268.759       72.618        0.073      340.513       14.582      863.666
04/22/2013  00:28:00     -187.866      245.699      -40.658       98.837      108.579       59.024     9768.795    11789.457     3483.880        6.117        1.252      309.292       65.461        0.045      340.489       14.541      863.665
04/22/2013  00:29:00     -239.592      319.344      -66.668      125.417      105.805       61.485    15729.473    11194.726     3780.426        9.726        1.535      399.230       57.396        0.021      340.488       14.541      863.668
04/22/2013  00:30:00     -195.580      242.075      -38.468      112.421      129.273       66.481    12638.473    16711.450     4419.762        6.604        1.688      311.210       62.204        0.040      340.453       14.479      863.674
04/22/2013  00:31:00     -151.891      196.161      -25.588       98.289      114.960       60.835     9660.769    13215.729     3700.948        4.439        1.329      248.092       70.601        0.081      340.433       14.447      863.649
04/22/2013  00:32:00     -181.255      236.749      -37.521      112.923      133.294       71.465    12751.508    17767.364     5107.262        6.296        1.781      298.167       64.811        0.047      340.450       14.475      863.660
04/22/2013  00:33:00      -82.511      214.329        5.859       94.968      171.723       72.566     9019.013    29488.959     5265.792        4.827        2.189      229.663       75.789        0.109      340.424       14.432      863.678
04/22/2013  00:34:00     -143.179      243.814      -29.384       84.188      100.264       54.233     7087.652    10052.948     2941.189        5.044        1.004      282.746       47.440        0.028      340.469       14.509      863.679
04/22/2013  00:35:00     -132.205      186.885      -23.090       71.106      114.402       50.928     5056.075    13087.822     2593.672        3.683        1.037      228.919       44.578        0.038      340.454       14.483      863.696
04/22/2013  00:36:00     -137.996      187.823      -28.617       62.161       86.920       39.270     3864.028     7555.141     1542.112        3.405        0.648      233.067       31.102        0.018      340.450       14.475      863.700
04/22/2013  00:37:00     -138.933      159.824      -27.525       57.293       94.947       43.300     3282.477     9014.999     1874.851        2.989        0.709      211.769       37.405        0.031      340.412       14.411      863.693
04/22/2013  00:38:00      -83.885      119.840      -10.753       76.246       79.095       45.972     5813.465     6256.013     2113.444        1.785        0.709      146.281       57.022        0.152      340.370       14.343      863.701
04/22/2013  00:39:00      -62.933      143.863      -19.535       60.692       87.977       36.182     3683.567     7739.987     1309.128        1.888        0.637      157.026       31.489        0.040      340.385       14.367      863.703
04/22/2013  00:40:00      -24.052       91.900       -5.535       44.495       62.336       35.964     1979.763     3885.728     1293.431        0.811        0.358       94.996       29.257        0.095      340.335       14.283      863.691
04/22/2013  00:41:00     -129.015      212.331      -15.331      147.567      113.431       58.863    21776.033    12866.570     3464.829        5.003        1.905      248.454       64.309        0.067      340.297       14.217      863.689
04/22/2013  00:42:00      -80.384      119.595      -11.828       71.430       83.400       42.447     5102.312     6955.539     1801.750        1.738        0.693      144.099       40.012        0.077      340.291       14.207      863.719
04/22/2013  00:43:00     -152.695      202.777      -36.448      109.910       85.793       57.005    12080.103     7360.491     3249.594        4.422        1.135      253.839       57.272        0.051      340.308       14.237      863.712
04/22/2013  00:44:00      -52.450      130.480       -4.914       68.898       85.201       45.686     4746.960     7259.265     2087.250        1.694        0.705      140.627       40.370        0.082      340.267       14.167      863.704
04/22/2013  00:45:00     -101.156      219.428      -21.699       91.295      102.904       56.414     8334.698    10589.148     3182.541        4.047        1.105      241.622       52.842        0.048      340.275       14.180      863.712
04/22/2013  00:46:00     -163.050      160.609      -44.916      102.447       70.424       48.128    10495.457     4959.475     2316.270        3.608        0.889      228.868       51.539        0.051      340.315       14.249      863.706
04/22/2013  00:47:00      -91.359      189.866      -23.702       92.270       91.455       50.406     8513.837     8364.046     2540.792        3.218        0.971      210.703       39.070        0.034      340.249       14.136      863.712
04/22/2013  00:48:00     -108.148      153.169      -12.613       95.866       99.152       55.394     9190.319     9831.060     3068.537        2.870        1.104      187.501       55.609        0.088      340.228       14.101      863.709
04/22/2013  00:49:00     -198.063      201.426      -36.389       92.061      109.230       56.249     8475.238    11931.202     3163.977        5.234        1.179      282.491       54.909        0.038      340.259       14.152      863.703
04/22/2013  00:50:00     -194.076      211.332      -35.824       96.753      114.637       60.277     9361.064    13141.609     3633.341        5.487        1.307      286.926       64.293        0.050      340.210       14.069      863.695
04/22/2013  00:51:00     -161.902      196.314      -33.504      112.539      105.632       64.929    12664.942    11158.075     4215.762        4.695        1.402      254.463       57.333        0.051      340.226       14.096      863.695
04/22/2013  00:52:00     -203.537      242.449      -36.037      120.241      138.279       78.783    14457.830    19121.170     6206.830        7.064        1.989      316.558       79.421        0.063      340.222       14.089      863.686
04/22/2013  00:53:00     -210.145      166.770      -38.992      104.721      141.644       66.647    10966.514    20063.063     4441.791        5.448        1.774      268.278       73.734        0.076      340.260       14.155      863.693
04/22/2013  00:54:00     -198.339      289.122      -46.247      131.668       83.296       59.727    17336.349     6938.251     3567.324        7.645        1.392      350.614       68.938        0.039      340.256       14.147      863.688
04/22/2013  00:55:00     -136.848      256.175      -37.652       81.617      148.219       52.134     6661.291    21968.864     2717.942        5.855        1.567      290.436       52.603        0.033      340.245       14.128      863.676
04/22/2013  00:56:00      -81.759      164.670      -20.660       71.924      107.776       52.861     5173.006    11615.723     2794.311        2.690        0.979      183.849       58.257        0.100      340.223       14.091      863.682
04/22/2013  00:57:00     -132.031      225.982      -28.621       91.513      113.989       57.483     8374.686    12993.571     3304.352        4.699        1.234      261.725       54.181        0.043      340.188       14.031      863.672
04/22/2013  00:58:00     -136.794      258.551      -35.285       77.962       97.756       45.742     6078.022     9556.254     2092.331        5.226        0.886      292.509       50.063        0.029      340.152       13.971      863.674
04/22/2013  00:59:00     -106.580      249.060      -18.498      104.029      105.049       55.061    10822.102    11035.318     3031.686        4.931        1.244      270.907       49.542        0.033      340.126       13.927      863.674
04/22/2013  01:00:00      -58.227      208.474       -8.817       69.288      144.617       51.971     4800.825    20914.144     2701.007        3.767        1.421      216.452       55.996        0.067      340.107       13.895      863.665
04/22/2013  01:01:00     -132.654      218.799      -24.489       94.035      113.293       57.278     8842.646    12835.326     3280.761        4.551        1.248      255.872       55.738        0.047      340.098       13.882      863.665
04/22/2013  01:02:00      -56.679      313.741      -28.395       59.278      108.335       50.933     3513.855    11736.388     2594.132        6.014        0.892      318.819       54.287        0.029      340.069       13.832      863.650
04/22/2013  01:03:00      -62.982      295.341      -40.431      111.057       64.007       42.208    12333.601     4096.916     1781.531        5.552        0.911      301.982       41.137        0.019      340.061       13.817      863.653
04/22/2013  01:04:00      -66.284      218.993      -21.352       79.145      102.949       45.633     6263.994    10598.576     2082.416        3.587        0.947      228.804       28.798        0.016      340.094       13.874      863.657
04/22/2013  01:05:00     -106.753      272.817      -27.807       79.676      114.208       56.759     6348.299    13043.485     3221.596        5.460        1.131      292.959       54.582        0.035      340.074       13.841      863.649
04/22/2013  01:06:00     -112.952      248.045      -38.834       96.546       96.743       52.244     9321.219     9359.186     2729.448        4.860        1.070      272.552       52.840        0.038      340.093       13.873      863.637
04/22/2013  01:07:00      -66.246      259.658      -22.179       66.979       95.882       48.597     4486.225     9193.293     2361.638        4.417        0.802      267.975       51.337        0.037      340.051       13.802      863.630
04/22/2013  01:08:00      -43.361      264.738      -29.145       74.697      106.757       48.730     5579.584    11396.998     2374.647        4.608        0.968      268.266       52.448        0.038      340.048       13.797      863.630
04/22/2013  01:09:00     -108.720      254.182      -26.294       94.165      135.524       66.610     8866.977    18366.645     4436.944        5.439        1.584      276.457       68.780        0.062      340.044       13.791      863.627
04/22/2013  01:10:00     -112.524      332.192      -29.491      118.165      112.879       68.664    13962.852    12741.743     4714.783        7.764        1.571      350.733       64.453        0.034      340.070       13.833      863.634
04/22/2013  01:11:00     -107.066      238.235      -31.901       96.232      104.711       52.500     9260.534    10964.399     2756.199        4.610        1.149      261.187       59.442        0.052      340.043       13.789      863.650
04/22/2013  01:12:00      -63.602      259.594      -27.039       89.376       82.115       50.763     7988.083     6742.813     2576.917        4.473        0.865      267.272       37.904        0.020      340.004       13.723      863.654
04/22/2013  01:13:00      -87.823      278.754      -25.118       99.299      114.090       53.515     9860.384    13016.624     2863.838        5.589        1.287      292.262       46.762        0.026      339.995       13.705      863.658
04/22/2013  01:14:00     -128.438      260.675      -22.395       88.172      119.067       59.835     7774.380    14176.947     3580.176        5.524        1.277      290.599       63.390        0.048      339.996       13.708      863.659
04/22/2013  01:15:00      -71.471      170.656      -20.932       68.830      142.083       46.198     4737.632    20187.639     2134.273        3.086        1.353      185.018       52.131        0.079      339.978       13.681      863.649
04/22/2013  01:16:00      -78.431      254.687      -20.511       75.520      109.103       48.346     5703.238    11903.540     2337.363        4.569        0.997      266.490       42.927        0.026      339.940       13.615      863.648
04/22/2013  01:17:00      -77.860      277.035      -16.748       79.928      127.682       63.484     6388.561    16302.643     4030.221        5.490        1.336      287.768       65.983        0.053      339.941       13.616      863.659
04/22/2013  01:18:00     -103.875      249.154      -28.099       94.798       86.465       50.846     8986.632     7476.138     2585.343        4.635        0.952      269.941       45.541        0.028      339.964       13.656      863.650
04/22/2013  01:19:00      -93.878      266.815      -32.916      122.487      164.409       60.662    15003.042    27030.155     3679.917        6.339        2.286      282.848       62.725        0.049      339.923       13.586      863.641
04/22/2013  01:20:00      -34.645      385.665      -48.715       60.062       89.157       36.381     3607.469     7948.962     1323.594        8.259        0.644      387.218       17.873        0.002      339.959       13.644      863.653
04/22/2013  01:21:00      -67.591      238.828      -35.799       58.139      159.037       41.141     3380.102    25292.840     1692.605        4.662        1.518      248.209       50.930        0.042      339.942       13.619      863.651
04/22/2013  01:22:00      -51.670      174.328      -17.574       56.163       93.323       45.090     3154.252     8709.140     2033.132        2.363        0.695      181.824       41.285        0.052      339.912       13.569      863.645
04/22/2013  01:23:00      -75.913      129.720      -15.461       66.020      112.375       38.416     4358.647    12628.159     1475.796        2.064        0.923      150.299       46.358        0.095      339.893       13.537      863.658
04/22/2013  01:24:00      -75.192      146.071      -15.957       74.168       93.040       48.779     5500.881     8656.451     2379.426        2.189        0.827      164.288       57.648        0.123      339.879       13.514      863.657
04/22/2013  01:25:00     -111.687       79.605      -31.229       55.204       42.571       28.126     3047.533     1812.310      791.076        1.272        0.283      137.153       10.747        0.006      339.895       13.541      863.670
04/22/2013  01:26:00     -118.708       24.956       -9.756       42.289       48.591       33.104     1788.381     2361.076     1095.890        1.003        0.262      121.303       16.494        0.018      339.840       13.448      863.697
04/22/2013  01:27:00     -130.688       21.481      -34.605       43.870       59.704       32.856     1924.592     3564.581     1079.496        1.265        0.328      132.441       21.302        0.026      339.881       13.517      863.689
04/22/2013  01:28:00     -143.981       25.828      -17.525       77.541       51.949       34.192     6012.580     2698.695     1169.059        1.579        0.494      146.279       33.029        0.051      339.841       13.449      863.683
04/22/2013  01:29:00     -115.427       18.400      -19.057       44.820       60.746       25.696     2008.860     3690.055      660.274        1.019        0.318      116.884       10.134        0.008      339.834       13.441      863.697
04/22/2013  01:30:00     -122.926       24.591      -13.376       69.976       64.900       49.465     4896.662     4211.998     2446.745        1.372        0.578      125.362       44.256        0.125      339.791       13.366      863.691
04/22/2013  01:31:00     -179.389      -27.219       -7.751       52.955       53.304       29.485     2804.257     2841.283      869.367        1.975        0.326      181.442       28.709        0.025      339.789       13.362      863.681
04/22/2013  01:32:00     -159.047      -17.555       -5.618       79.123       53.116       32.334     6260.411     2821.350     1045.476        1.788        0.506      160.013       36.043        0.051      339.669       13.160      863.672
04/22/2013  01:33:00     -135.764      -19.320      -16.925       66.985       42.817       27.046     4486.927     1833.265      731.511        1.307        0.353      137.132       23.301        0.029      339.590       13.027      863.666
04/22/2013  01:34:00     -136.037      -41.789       -3.190       69.569       60.323       32.688     4839.864     3638.850     1068.530        1.490        0.477      142.311       33.812        0.056      339.408       12.719      863.657
04/22/2013  01:35:00     -168.573      -31.921       -4.122       90.142       75.749       38.855     8125.593     5737.868     1509.694        2.241        0.769      171.569       44.453        0.067      339.327       12.581      863.636
04/22/2013  01:36:00     -131.135      -35.941       -8.241       73.150       55.444       35.843     5350.904     3074.027     1284.749        1.413        0.485      135.971       35.131        0.067      339.341       12.606      863.615
04/22/2013  01:37:00     -229.889      -33.763       -5.318       81.761       82.637       46.364     6684.849     6828.934     2149.629        3.484        0.783      232.355       40.303        0.030      339.335       12.594      863.617
04/22/2013  01:38:00     -181.010      -12.016       -9.052       99.040       59.873       34.230     9808.941     3584.801     1171.717        2.378        0.728      181.408       38.789        0.046      339.314       12.560      863.624
04/22/2013  01:39:00     -152.028      -60.590       -5.163       88.700       61.204       37.397     7867.623     3745.965     1398.507        1.991        0.651      163.657       35.250        0.046      339.287       12.515      863.624
04/22/2013  01:40:00     -167.057      -35.760       -5.724       77.561       52.008       37.655     6015.720     2704.872     1417.869        1.968        0.507      170.841       37.616        0.048      339.269       12.484      863.606
04/22/2013  01:41:00     -213.710      -30.254       -5.811       80.888       75.319       39.838     6542.892     5672.951     1587.060        3.021        0.690      215.841       39.041        0.033      339.290       12.518      863.580
04/22/2013  01:42:00     -185.015      -10.286       -6.786       89.285       93.810       39.955     7971.831     8800.359     1596.418        2.637        0.918      185.301       27.111        0.021      339.281       12.506      863.566
04/22/2013  01:43:00     -165.573      -45.815      -10.511       82.656       54.473       35.011     6832.092     2967.361     1225.771        2.032        0.551      171.794       29.618        0.030      339.232       12.423      863.564
04/22/2013  01:44:00     -127.042      -34.049       -9.011       62.657       65.545       37.894     3925.892     4296.154     1435.918        1.352        0.483      131.525       35.784        0.074      339.266       12.482      863.547
04/22/2013  01:45:00     -145.610      -34.744       -8.941       55.095       76.446       34.163     3035.434     5844.052     1167.135        1.627        0.502      149.698       31.634        0.045      339.252       12.456      863.544
04/22/2013  01:46:00     -111.329       -8.399        4.414       65.293       45.888       37.485     4263.159     2105.738     1405.117        1.013        0.389      111.646       30.519        0.075      339.270       12.488      863.543
04/22/2013  01:47:00     -123.824       -8.376       -3.176       62.424       49.325       35.637     3896.731     2432.974     1269.997        1.150        0.380      124.107       31.546        0.065      339.273       12.494      863.559
04/22/2013  01:48:00     -128.761       34.444       -9.187       42.229       30.377       24.884     1783.326      922.754      619.192        1.059        0.166      133.288       20.920        0.025      339.338       12.603      863.569
04/22/2013  01:49:00      -76.913       47.742       -7.578       36.848       31.664       22.242     1357.796     1002.618      494.692        0.555        0.143       90.526        9.585        0.011      339.359       12.639      863.569
04/22/2013  01:50:00      -62.273       48.984       -8.567       18.538       31.160       19.231      343.646      970.960      369.828        0.402        0.084       79.229       14.717        0.035      339.350       12.623      863.575
04/22/2013  01:51:00      -36.048        5.730       -4.290       20.693       18.487       15.911      428.185      341.767      253.171        0.119        0.051       36.500       10.357        0.081      339.499       12.873      863.588
04/22/2013  01:52:00      -32.229       37.961       -9.156       20.922       19.758       15.176      437.714      390.382      230.304        0.181        0.053       49.797        6.841        0.019      339.454       12.796      863.589
04/22/2013  01:53:00      -26.894       26.187       -2.037       24.574       19.800       10.102      603.901      392.055      102.052        0.126        0.055       37.538        9.654        0.066      339.463       12.813      863.583
04/22/2013  01:54:00      -24.595       36.946       -4.298       35.462       15.318       12.455     1257.571      234.634      155.125        0.182        0.082       44.384       12.420        0.078      339.415       12.732      863.580
04/22/2013  01:55:00       -7.115       21.786       -7.933       13.171       25.741       10.903      173.488      662.581      118.869        0.077        0.048       22.918       10.830        0.223      339.427       12.754      863.570
04/22/2013  01:56:00     -143.960        2.377      -10.103       48.098       30.844       27.768     2313.446      951.345      771.047        1.243        0.202      143.980       24.279        0.028      339.413       12.730      863.547
04/22/2013  01:57:00     -124.513       47.670      -18.148       23.082       23.073       18.321      532.779      532.367      335.660        0.975        0.070      133.327        5.528        0.002      339.363       12.645      863.537
04/22/2013  01:58:00      -63.653       18.368       -5.588       17.294       19.305       14.292      299.083      372.677      204.255        0.265        0.044       66.250        9.164        0.019      339.358       12.638      863.515
04/22/2013  01:59:00      -84.501      -34.404      -12.544       21.078       29.404       13.323      444.292      864.595      177.496        0.498        0.074       91.236        8.235        0.008      339.430       12.760      863.501
04/22/2013  02:00:00      -78.691        0.449       -6.831       21.704       22.579       13.052      471.057      509.789      170.350        0.369        0.058       78.692       12.488        0.025      339.281       12.506      863.500
04/22/2013  02:01:00      -81.049      -38.537       -7.227       48.673       32.804       15.779     2369.042     1076.129      248.962        0.590        0.185       89.744       20.095        0.050      339.315       12.564      863.493
04/22/2013  02:02:00      -66.110      -33.852        2.764       50.137       29.214       15.708     2513.717      853.443      246.741        0.457        0.181       74.274       19.201        0.067      339.344       12.613      863.482
04/22/2013  02:03:00      -64.580      -19.739       -0.189       52.444       18.393       16.772     2750.361      338.290      281.309        0.396        0.168       67.529       22.366        0.110      339.446       12.785      863.475
04/22/2013  02:04:00     -115.318       43.794      -22.268       28.634       28.726       21.384      819.920      825.160      457.292        0.891        0.105      123.354       16.632        0.018      339.437       12.770      863.476
04/22/2013  02:05:00     -115.937        3.934      -12.820       37.304       48.205       24.103     1391.579     2323.705      580.962        0.896        0.215      116.004        8.782        0.006      339.367       12.651      863.471
04/22/2013  02:06:00     -143.900       73.905      -19.242       66.586       61.832       50.706     4433.722     3823.157     2571.106        1.868        0.541      161.769       33.922        0.044      339.488       12.853      863.463
04/22/2013  02:07:00     -179.474      192.600      -48.928       77.348      105.575       44.421     5982.659    11146.055     1973.224        4.540        0.955      263.259       50.805        0.037      339.555       12.967      863.445
04/22/2013  02:08:00     -136.405      134.291      -31.796       59.431       95.402       47.447     3532.028     9101.601     2251.234        2.627        0.744      191.417       45.139        0.056      339.522       12.910      863.433
04/22/2013  02:09:00     -183.520      229.358      -44.133       89.297      101.634       58.140     7973.929    10329.431     3380.220        5.495        1.084      293.743       59.339        0.041      339.601       13.042      863.425
04/22/2013  02:10:00     -146.200      148.131      -26.730       76.909       88.786       49.012     5914.918     7882.984     2402.131        3.011        0.810      208.128       42.333        0.041      339.555       12.966      863.433
04/22/2013  02:11:00     -141.834      165.649      -38.082      101.094      131.244       55.433    10219.979    17224.920     3072.828        3.976        1.526      218.074       39.696        0.033      339.543       12.945      863.434
04/22/2013  02:12:00     -159.195      218.019      -37.220       77.353       75.960       52.600     5983.418     5769.995     2766.713        4.439        0.726      269.954       47.964        0.032      339.523       12.911      863.426
04/22/2013  02:13:00     -144.642      172.451      -35.796       78.382      101.218       39.887     6143.759    10245.104     1590.986        3.496        0.899      225.079       31.973        0.020      339.518       12.905      863.429
04/22/2013  02:14:00     -175.142      197.705      -24.258       77.641       92.658       50.041     6028.198     8585.591     2504.085        4.373        0.856      264.125       45.956        0.030      339.487       12.851      863.426
04/22/2013  02:15:00     -106.940      254.541      -28.045       71.841      149.797       41.811     5161.112    22439.272     1748.179        5.318        1.467      276.093       52.172        0.036      339.484       12.846      863.440
04/22/2013  02:16:00     -116.694      289.915      -37.667       79.151       71.752       45.117     6264.906     5148.344     2035.586        5.627        0.672      312.519       39.662        0.016      339.505       12.881      863.448
04/22/2013  02:17:00     -102.630      312.702      -42.425       69.189       83.944       45.286     4787.050     7046.555     2050.791        6.200        0.694      329.113       47.013        0.020      339.470       12.822      863.435
04/22/2013  02:18:00      -28.072      229.700      -28.249       47.372       59.757       34.515     2244.065     3570.951     1191.252        3.068        0.350      231.409       30.750        0.018      339.354       12.628      863.424
04/22/2013  02:19:00      -63.304      229.232      -29.502       73.389      110.206       42.147     5385.894    12145.349     1776.397        3.836        0.965      237.812       45.787        0.037      339.355       12.628      863.401
04/22/2013  02:20:00      -86.057      166.011      -14.352       90.373       86.223       46.487     8167.272     7434.439     2161.075        2.646        0.888      186.991       44.534        0.057      339.354       12.627      863.406
04/22/2013  02:21:00      -32.934      153.873       -0.124       63.755       94.544       44.317     4064.717     8938.483     1964.019        1.986        0.748      157.358       42.007        0.071      339.333       12.593      863.415
04/22/2013  02:22:00      -54.743      147.861       -5.495       54.624       85.336       44.181     2983.750     7282.290     1952.002        1.855        0.611      157.670       43.449        0.076      339.325       12.581      863.405
04/22/2013  02:23:00      -68.308      246.058      -19.908       86.059      112.995       42.639     7406.123    12767.767     1818.124        4.379        1.100      255.363       39.825        0.024      339.410       12.720      863.407
04/22/2013  02:24:00       -8.630      221.971      -13.606       71.525      119.181       50.061     5115.850    14204.154     2506.117        3.567        1.091      222.139       51.557        0.054      339.328       12.584      863.424
04/22/2013  02:25:00        3.618      187.782      -16.534       62.576       80.803       47.661     3915.802     6529.193     2271.556        2.413        0.636      187.817       45.165        0.058      339.304       12.543      863.427
04/22/2013  02:26:00      -26.960      141.213      -14.947       51.357       98.174       38.795     2637.574     9638.086     1505.067        1.733        0.689      143.764       48.736        0.115      339.269       12.487      863.420
04/22/2013  02:27:00        0.605      120.671       -8.409       37.611       57.277       33.876     1414.588     3280.690     1147.567        1.024        0.292      120.673       32.927        0.074      339.228       12.416      863.426
04/22/2013  02:28:00      -23.160      140.025       -6.805       42.928       52.450       37.992     1842.809     2751.035     1443.382        1.311        0.302      141.927       32.200        0.051      339.229       12.418      863.418
04/22/2013  02:29:00       -6.642       74.421        5.703       36.241       44.914       26.800     1313.377     2017.232      718.241        0.483        0.202       74.717       24.491        0.107      339.179       12.334      863.403
04/22/2013  02:30:00       -0.116      115.916       -4.050       45.851       49.226       28.371     2102.280     2423.245      804.932        0.939        0.267      115.917       28.773        0.062      339.198       12.367      863.404
04/22/2013  02:31:00        0.733       42.487       -1.365       32.487       30.343       20.229     1055.407      920.700      409.220        0.210        0.119       42.493       14.763        0.121      339.104       12.209      863.411
04/22/2013  02:32:00      -14.120       29.675      -14.138       54.675       21.644       21.215     2989.387      468.482      450.073        0.259        0.195       32.863       21.310        0.420      339.174       12.325      863.411
04/22/2013  02:33:00      -26.083      135.837       -8.251       53.180       81.420       33.784     2828.148     6629.234     1141.359        1.490        0.530      138.319       40.585        0.086      339.135       12.261      863.408
04/22/2013  02:34:00      -44.011      151.572      -15.784       66.495       54.056       42.257     4421.645     2922.009     1785.663        1.714        0.456      157.832       36.225        0.053      339.130       12.253      863.390
04/22/2013  02:35:00     -112.229      157.422      -30.895       50.171       59.321       41.335     2517.172     3518.984     1708.594        2.304        0.387      193.331       25.912        0.018      339.155       12.292      863.389
04/22/2013  02:36:00      -86.084       34.887      -16.648       26.168       45.363       17.731      684.759     2057.844      314.403        0.598        0.153       92.885        9.490        0.010      339.192       12.357      863.382
04/22/2013  02:37:00      -50.515       59.379      -21.269       42.893       31.681       18.252     1839.811     1003.699      333.128        0.485        0.159       77.959        7.877        0.010      339.134       12.258      863.376
04/22/2013  02:38:00      -98.619       61.012       -8.193       45.277       46.613       27.279     2049.979     2172.780      744.128        0.924        0.248      115.966       28.887        0.062      339.070       12.152      863.374
04/22/2013  02:39:00      -76.394       45.033      -14.254       40.018       33.320       26.527     1601.466     1110.229      703.677        0.574        0.171       88.680       20.783        0.055      339.081       12.171      863.374
04/22/2013  02:40:00      -48.195       54.198      -14.679       26.611       57.281       19.026      708.133     3281.082      361.990        0.491        0.218       72.527       15.755        0.047      339.113       12.224      863.392
04/22/2013  02:41:00      -69.079       23.675       -5.877       29.310       46.089       18.060      859.070     2124.164      326.152        0.434        0.165       73.024       17.712        0.059      339.051       12.120      863.395
04/22/2013  02:42:00      -40.799       26.574       -3.146       33.192       33.478       18.770     1101.728     1120.773      352.328        0.248        0.129       48.690       22.041        0.205      339.032       12.087      863.394
04/22/2013  02:43:00      -43.429       83.903      -10.766       46.009       56.008       30.857     2116.868     3136.932      952.163        0.762        0.310       94.476       31.356        0.110      339.040       12.103      863.386
04/22/2013  02:44:00      -84.243       71.562      -16.870       26.273       35.654       19.691      690.276     1271.206      387.732        0.743        0.117      110.535       12.215        0.012      339.022       12.071      863.380
04/22/2013  02:45:00     -136.004       62.789      -21.355       42.072       46.649       29.884     1770.038     2176.125      893.074        1.387        0.242      149.799       27.950        0.035      338.957       11.960      863.371
04/22/2013  02:46:00     -132.811      111.392      -35.263       47.645       45.303       26.621     2270.047     2052.342      708.701        1.816        0.252      173.340       30.792        0.032      338.907       11.876      863.365
04/22/2013  02:47:00      -98.655      156.986      -24.605       54.794       64.691       35.489     3002.380     4184.911     1259.435        2.171        0.422      185.411       32.458        0.031      338.873       11.818      863.365
04/22/2013  02:48:00      -88.123       96.508      -16.442       38.065       55.398       28.599     1448.922     3068.918      817.929        1.134        0.267      130.688       23.061        0.031      338.858       11.795      863.359
04/22/2013  02:49:00      -96.004       95.366      -20.101       31.306       37.565       21.511      980.043     1411.156      462.727        1.078        0.143      135.319       19.237        0.020      338.820       11.729      863.359
04/22/2013  02:50:00     -114.934       83.470      -24.036       34.269       31.011       19.565     1174.379      961.685      382.802        1.164        0.126      142.046       14.316        0.010      338.789       11.679      863.353
04/22/2013  02:51:00      -98.909       87.569      -15.794       45.700       52.084       29.478     2088.482     2712.776      868.935        1.168        0.284      132.103       23.681        0.032      338.773       11.653      863.357
04/22/2013  02:52:00     -147.821      103.512      -28.558       40.547       57.896       26.710     1644.098     3351.910      713.450        1.954        0.285      180.460       30.053        0.028      338.798       11.692      863.359
04/22/2013  02:53:00     -133.935      112.875      -23.102       47.495       56.534       32.183     2255.751     3196.076     1035.735        1.885        0.324      175.155       27.309        0.024      338.789       11.678      863.354
04/22/2013  02:54:00     -156.103      201.836      -45.482       53.070       57.284       36.827     2816.395     3281.491     1356.238        3.731        0.373      255.158       31.321        0.015      338.769       11.643      863.342
04/22/2013  02:55:00     -125.151      143.032      -25.562       66.794       50.743       33.965     4461.382     2574.884     1153.592        2.248        0.409      190.055       35.793        0.035      338.715       11.552      863.337
04/22/2013  02:56:00     -107.537      147.714      -23.287       51.698       67.529       32.314     2672.726     4560.157     1044.192        2.110        0.414      182.712       33.795        0.034      338.699       11.527      863.329
04/22/2013  02:57:00      -33.761      126.035      -17.408       38.573       62.543       26.148     1487.864     3911.681      683.723        1.170        0.304      130.478       32.230        0.061      338.748       11.610      863.317
04/22/2013  02:58:00      -50.267      199.172      -16.211       42.815       70.761       26.516     1833.139     5007.148      703.102        2.500        0.377      205.418       27.939        0.018      338.666       11.470      863.289
04/22/2013  02:59:00      -86.125      111.567      -13.694       54.082       60.925       32.912     2924.912     3711.832     1083.190        1.388        0.386      140.942       31.345        0.049      338.690       11.513      863.263
04/22/2013  03:00:00      -99.895      163.647      -22.444       50.889       75.915       42.119     2589.725     5763.079     1774.024        2.369        0.506      191.727       39.862        0.043      338.682       11.497      863.255
04/22/2013  03:01:00      -91.193      122.277      -16.389       59.383       53.537       34.210     3526.282     2866.213     1170.350        1.555        0.378      152.538       33.978        0.050      338.701       11.531      863.255
04/22/2013  03:02:00     -126.510      163.495      -22.664       66.655       57.430       36.207     4442.885     3298.191     1310.922        2.615        0.453      206.726       33.267        0.026      338.707       11.539      863.254
04/22/2013  03:03:00     -120.361      123.473      -27.702       51.118       52.688       35.040     2613.075     2776.065     1227.782        1.856        0.331      172.431       31.070        0.032      338.745       11.602      863.259
04/22/2013  03:04:00      -87.458       40.827      -12.693       52.518       46.455       33.585     2758.147     2158.091     1127.984        0.776        0.302       96.518       24.346        0.064      338.751       11.615      863.266
04/22/2013  03:05:00      -87.841       48.892      -20.360       38.276       49.592       22.869     1465.075     2459.400      522.991        0.748        0.222      100.531       16.515        0.027      338.752       11.619      863.271
04/22/2013  03:06:00      -85.513       51.843       -9.360       44.531       30.764       20.915     1982.995      946.425      437.436        0.673        0.168      100.001       19.796        0.039      338.717       11.558      863.265
04/22/2013  03:07:00      -43.421       -5.551       -2.101       58.495       28.590       18.238     3421.722      817.379      332.618        0.325        0.229       43.774       26.093        0.355      338.837       11.758      863.261
04/22/2013  03:08:00      -72.073      -31.454        3.816       42.445       38.070       16.006     1801.563     1449.316      256.196        0.485        0.175       78.638       17.350        0.049      338.785       11.673      863.268
04/22/2013  03:09:00     -125.829      -17.847       -2.438       53.894       58.026       30.824     2904.538     3366.993      950.098        1.169        0.361      127.088       22.943        0.033      338.727       11.575      863.273
04/22/2013  03:10:00      -70.081       -6.736       -6.113       59.369       39.801       21.786     3524.670     1584.142      474.646        0.529        0.279       70.404       13.673        0.038      338.770       11.648      863.270
04/22/2013  03:11:00      -44.058        1.226        7.904       62.276       50.361       30.036     3878.265     2536.196      902.190        0.466        0.366       44.075       36.102        0.671      338.667       11.474      863.259
04/22/2013  03:12:00      -45.827      -14.286        1.201       50.530       52.988       25.591     2553.292     2807.735      654.921        0.416        0.301       48.002       25.241        0.276      338.756       11.623      863.257
04/22/2013  03:13:00      -15.235      124.098       18.589       78.903      114.130       55.446     6225.742    13025.761     3074.312        1.915        1.116      125.029       67.147        0.288      338.812       11.717      863.234
04/22/2013  03:14:00      -70.421      164.592      -17.344       41.454       94.595       34.244     1718.422     8948.161     1172.633        2.209        0.592      179.024       42.838        0.057      338.920       11.898      863.217
04/22/2013  03:15:00      -92.111      106.132      -18.454       52.010       51.319       27.405     2705.060     2633.611      751.061        1.309        0.304      140.530       24.888        0.031      338.925       11.909      863.214
04/22/2013  03:16:00     -158.023       33.593      -26.588       58.398       55.935       33.723     3410.364     3128.777     1137.254        1.724        0.384      161.554       23.160        0.021      339.048       12.113      863.240
04/22/2013  03:17:00     -148.994       23.281      -15.997       57.187       47.970       40.092     3270.389     2301.165     1607.362        1.509        0.359      150.802       26.016        0.030      339.072       12.154      863.260
04/22/2013  03:18:00     -168.853       69.239      -40.203       80.648      108.110       48.853     6504.093    11687.672     2386.592        2.775        1.029      182.497       56.037        0.094      339.155       12.292      863.257
04/22/2013  03:19:00     -179.906       84.806      -35.225       64.335       67.316       42.081     4138.977     4531.449     1770.844        2.562        0.522      198.893       31.381        0.025      339.204       12.375      863.250
04/22/2013  03:20:00     -130.028       26.222      -23.192       59.743       72.560       27.980     3569.285     5264.891      782.873        1.387        0.481      132.646       26.786        0.041      339.185       12.345      863.249
04/22/2013  03:21:00     -197.159      -94.720       -7.856       89.522       60.562       43.593     8014.116     3667.783     1900.323        3.074        0.679      218.732       36.208        0.027      339.148       12.281      863.246
04/22/2013  03:22:00     -212.135      -71.363      -16.803       72.602       74.657       41.822     5271.075     5573.679     1749.118        3.148        0.630      223.816       35.544        0.025      339.088       12.178      863.234
04/22/2013  03:23:00      -89.648      -18.778      -15.616       66.255       45.097       30.701     4389.696     2033.746      942.553        0.800        0.368       91.593       31.242        0.116      339.050       12.117      863.217
04/22/2013  03:24:00      -20.750       -1.526        9.048       45.877       44.573       35.794     2104.683     1986.781     1281.224        0.294        0.269       20.806       26.943        1.677      338.984       12.006      863.208
04/22/2013  03:25:00      -71.356       97.975      -14.691       54.955       69.868       34.006     3020.013     4881.474     1156.378        1.198        0.453      121.206       37.841        0.097      339.025       12.074      863.219
04/22/2013  03:26:00      -88.156      108.648      -20.486       43.559       37.888       21.988     1897.422     1435.537      483.476        1.191        0.191      139.914       20.122        0.021      339.043       12.107      863.213
04/22/2013  03:27:00     -114.049      169.008      -32.005       67.551       91.837       30.039     4563.104     8434.074      902.362        2.824        0.695      203.890       27.116        0.018      339.151       12.285      863.216
04/22/2013  03:28:00      -97.415      107.710      -22.381       49.728       93.799       35.890     2472.846     8798.317     1288.093        1.707        0.628      145.228       33.847        0.054      339.098       12.198      863.231
04/22/2013  03:29:00      -78.543      146.145      -19.211       51.215       61.905       32.692     2622.987     3832.288     1068.746        1.771        0.376      165.914       32.813        0.039      339.053       12.121      863.227
04/22/2013  03:30:00     -143.877      189.195      -36.896       86.167       62.901       46.750     7424.782     3956.548     2185.567        3.571        0.678      237.687       52.447        0.049      339.014       12.056      863.224
04/22/2013  03:31:00      -70.514      119.963      -17.262       57.041       55.886       27.250     3253.620     3123.227      742.560        1.339        0.356      139.153       26.884        0.037      338.958       11.963      863.207
04/22/2013  03:32:00      -93.327      167.178      -21.003       66.837       79.527       45.586     4467.169     6324.614     2078.099        2.498        0.643      191.463       47.829        0.062      338.934       11.921      863.185
04/22/2013  03:33:00     -126.439      120.657      -27.607       60.426       70.624       44.661     3651.251     4987.734     1994.580        2.097        0.532      174.771       40.386        0.053      338.904       11.870      863.167
04/22/2013  03:34:00     -121.078       57.903      -12.837       66.907       68.788       34.562     4476.520     4731.735     1194.542        1.429        0.520      134.211       32.853        0.060      338.869       11.812      863.152
04/22/2013  03:35:00     -103.583       -6.991      -15.996       42.625       34.570       26.872     1816.861     1195.103      722.086        0.738        0.187      103.819       21.173        0.042      338.918       11.897      863.140
04/22/2013  03:36:00      -83.252      -38.784        9.519       90.855       56.842       46.402     8254.651     3231.021     2153.131        1.108        0.682       91.842       43.305        0.222      338.934       11.923      863.109
04/22/2013  03:37:00     -139.621      -49.870        5.376       88.225       77.303       44.644     7783.594     5975.706     1993.094        1.888        0.788      148.260       53.303        0.129      338.891       11.848      863.097
04/22/2013  03:38:00     -135.663      -95.151        8.694       85.039       77.819       42.196     7231.704     6055.754     1780.471        2.130        0.753      165.705       47.484        0.082      338.758       11.625      863.087
04/22/2013  03:39:00      -64.894      -53.673       -5.444       80.781       56.682       31.646     6525.565     3212.815     1001.470        0.893        0.537       84.214       34.686        0.170      338.685       11.506      863.091
04/22/2013  03:40:00     -145.452       -1.901       -8.878       56.519       46.644       37.169     3194.422     2175.654     1381.558        1.399        0.338      145.464       34.877        0.057      338.710       11.547      863.088
04/22/2013  03:41:00     -188.281      -22.716      -18.214       58.426       67.493       33.435     3413.598     4555.259     1117.873        2.269        0.454      189.647       29.666        0.024      338.683       11.499      863.086
04/22/2013  03:42:00     -230.610      -21.230      -16.196       72.874       71.899       36.690     5310.581     5169.490     1346.145        3.286        0.591      231.585       37.283        0.026      338.723       11.567      863.083
04/22/2013  03:43:00     -221.776      -21.588      -14.191       98.441       63.865       48.629     9690.592     4078.679     2364.814        3.299        0.807      222.824       53.453        0.058      338.774       11.651      863.085
04/22/2013  03:44:00     -152.222      -25.024      -12.405       96.022       69.682       33.215     9220.137     4855.584     1103.260        1.956        0.759      154.265       26.808        0.030      338.744       11.601      863.097
04/22/2013  03:45:00     -183.963      -75.629       -3.985       63.140       69.419       40.243     3986.616     4818.953     1619.531        2.500        0.521      198.902       36.375        0.033      338.801       11.696      863.090
04/22/2013  03:46:00     -163.429      -14.415       -9.791       76.836       51.543       39.367     5903.807     2656.636     1549.778        1.856        0.506      164.063       39.179        0.057      338.850       11.780      863.079
04/22/2013  03:47:00     -189.926       10.979      -15.326       85.752       74.977       37.628     7353.386     5621.554     1415.851        2.541        0.720      190.243       33.259        0.031      338.891       11.847      863.058
04/22/2013  03:48:00     -126.827      -48.125      -18.569       72.795       56.253       33.888     5299.118     3164.440     1148.387        1.418        0.481      135.651       34.784        0.066      338.887       11.843      863.036
04/22/2013  03:49:00      -83.120       -9.257      -12.101       35.779       49.526       28.131     1280.127     2452.866      791.350        0.583        0.226       83.634       19.202        0.053      338.814       11.720      863.027
04/22/2013  03:50:00     -107.154        2.139       -5.739       51.393       32.921       27.384     2641.287     1083.789      749.874        0.800        0.224      107.175       29.347        0.075      338.759       11.629      863.011
04/22/2013  03:51:00     -112.093      154.320      -22.590       60.839       75.316       45.026     3701.343     5672.443     2027.298        2.414        0.570      190.734       40.284        0.045      338.734       11.585      863.003
04/22/2013  03:52:00     -126.502       12.945      -16.473       55.924       59.770       21.289     3127.516     3572.455      453.209        1.180        0.358      127.162       22.114        0.030      338.747       11.608      863.012
04/22/2013  03:53:00     -119.975       16.712      -21.667       29.055       28.696       21.840      844.189      823.460      477.000        0.864        0.107      121.133       10.881        0.008      338.759       11.628      863.027
04/22/2013  03:54:00      -94.907       12.347      -19.702       49.850       59.039       25.558     2484.984     3485.662      653.211        0.808        0.331       95.707       24.556        0.066      338.728       11.576      863.044
04/22/2013  03:55:00      -24.557       82.812       18.265       55.282       49.494       36.849     3056.076     2449.704     1357.852        0.733        0.343       86.376       35.300        0.167      338.663       11.468      863.043
04/22/2013  03:56:00      -79.801       16.588      -15.554       35.356       52.255       22.926     1250.030     2730.568      525.616        0.569        0.225       81.507       15.697        0.037      338.681       11.500      863.052
04/22/2013  03:57:00      -59.418       52.101       -5.612       53.206       60.700       27.204     2830.904     3684.525      740.035        0.676        0.363       79.025       30.916        0.153      338.632       11.414      863.064
04/22/2013  03:58:00      -24.743      113.506        1.917       57.350       49.797       36.958     3288.991     2479.777     1365.876        1.032        0.357      116.171       34.735        0.089      338.611       11.379      863.068
04/22/2013  03:59:00      -90.654      141.362      -22.312       54.341       75.346       38.025     2952.980     5676.978     1445.914        1.939        0.504      167.933       22.934        0.019      338.620       11.393      863.063
04/22/2013  04:00:00      -50.818       15.317        6.844       57.792       61.982       32.458     3339.922     3841.719     1053.524        0.555        0.412       53.076       39.472        0.553      338.612       11.380      863.054
04/22/2013  04:01:00      -28.045        7.474        5.386       66.456       57.897       25.988     4416.418     3352.060      675.379        0.466        0.422       29.024       28.571        0.969      338.582       11.331      863.052
04/22/2013  04:02:00      -12.068       11.924       15.897       45.012       25.778       24.203     2026.089      664.503      585.776        0.191        0.164       16.965       23.384        1.900      338.495       11.186      863.071
04/22/2013  04:03:00       21.972      -44.334       25.241       48.938       44.204       22.526     2394.881     1954.002      507.417        0.397        0.243       49.480       18.809        0.145      338.586       11.338      863.065
04/22/2013  04:04:00      -21.555      -15.923       17.091       46.982       34.864       27.744     2207.277     1215.504      769.748        0.260        0.210       26.798       18.684        0.486      338.484       11.167      863.081
04/22/2013  04:05:00      -16.654      -72.304        4.547       26.709       16.987       15.596      713.381      288.559      243.234        0.339        0.062       74.197       10.207        0.019      338.469       11.143      863.095
04/22/2013  04:06:00       22.597        0.459       11.461       15.395       24.588       15.257      237.013      604.583      232.774        0.086        0.054       22.601       16.233        0.516      338.407       11.038      863.100
04/22/2013  04:07:00       34.178       41.291        8.587       18.524       14.179       14.592      343.127      201.032      212.925        0.185        0.038       53.602        4.672        0.008      338.432       11.079      863.095
04/22/2013  04:08:00       25.696       24.644       -0.764       15.855       11.951       16.968      251.380      142.836      287.925        0.098        0.034       35.604       11.429        0.103      338.398       11.022      863.082
04/22/2013  04:09:00       17.866       98.421      -11.528       24.593       34.897       19.847      604.797     1217.768      393.898        0.618        0.111      100.030       18.919        0.036      338.374       10.984      863.074
04/22/2013  04:10:00       63.380       56.875       -4.000       36.476       30.075       25.645     1330.523      904.513      657.660        0.508        0.145       85.158       17.798        0.044      338.284       10.831      863.075
04/22/2013  04:11:00        8.446       54.951       -9.203       16.867       20.962        9.672      284.491      439.389       93.555        0.200        0.041       55.596       12.004        0.047      338.142       10.592      863.081
04/22/2013  04:12:00       20.707       36.828       -2.110       14.418       24.668       17.615      207.866      608.531      310.285        0.146        0.056       42.251       12.223        0.084      338.047       10.433      863.076
04/22/2013  04:13:00       10.799       42.970       -4.147       17.364       33.746       14.315      301.513     1138.815      204.913        0.181        0.082       44.306       17.017        0.148      338.132       10.575      863.079
04/22/2013  04:14:00      -58.544       43.568      -12.200       21.134       33.798        9.242      446.631     1142.309       85.421        0.357        0.084       72.976        5.789        0.006      338.349       10.940      863.078
04/22/2013  04:15:00      -43.731        0.543        3.109       28.591       15.885       10.134      817.458      252.334      102.692        0.155        0.059       43.735       15.602        0.127      338.398       11.023      863.085
04/22/2013  04:16:00       25.200        7.102        1.571       29.236       11.971        8.579      854.763      143.309       73.592        0.088        0.054       26.182        7.683        0.086      338.274       10.815      863.104
04/22/2013  04:17:00       70.921       35.468       21.081       27.158       24.337       24.094      737.537      592.291      580.533        0.432        0.096       79.295       12.027        0.023      338.126       10.567      863.111
04/22/2013  04:18:00      104.090       51.683       35.766       42.694       35.962       25.384     1822.802     1293.280      644.336        0.927        0.188      116.214       20.975        0.033      338.030       10.406      863.117
04/22/2013  04:19:00      117.979       78.127       14.845       43.138       45.680       36.924     1860.867     2086.683     1363.403        1.278        0.266      141.503       21.035        0.022      337.980       10.322      863.124
04/22/2013  04:20:00      123.423       98.588       51.472       71.327       38.402       37.429     5087.474     1474.714     1400.950        1.778        0.398      157.965       22.273        0.020      337.939       10.251      863.136
04/22/2013  04:21:00       76.975       89.921       75.088       67.021       50.842       43.523     4491.767     2584.945     1894.252        1.431        0.449      118.368       40.218        0.115      337.963       10.292      863.147
04/22/2013  04:22:00      149.904       90.256        6.440       51.793       41.197       41.126     2682.466     1697.194     1691.339        1.836        0.304      174.978       29.307        0.028      337.905       10.195      863.161
04/22/2013  04:23:00      129.954       75.250       33.599       44.786       40.783       36.494     2005.809     1663.222     1331.810        1.434        0.250      150.168       29.666        0.039      337.898       10.183      863.170
04/22/2013  04:24:00       53.682       48.014        3.399       39.979       39.443       22.883     1598.288     1555.718      523.653        0.444        0.184       72.022       12.488        0.030      337.849       10.100      863.184
04/22/2013  04:25:00       60.399       63.029       -1.473       51.238       45.968       31.571     2625.369     2113.039      996.707        0.668        0.287       87.297       23.809        0.074      337.779        9.983      863.195
04/22/2013  04:26:00       28.705      116.544       -4.915       39.776       59.199       36.743     1582.163     3504.541     1350.069        1.043        0.322      120.027       40.053        0.111      337.782        9.988      863.201
04/22/2013  04:27:00       27.184      161.412      -23.570       28.840       38.859       22.525      831.750     1510.006      507.369        1.510        0.142      163.685       21.302        0.017      337.994       10.344      863.216
04/22/2013  04:28:00       13.813      132.014      -17.186       30.425       27.619       20.034      925.656      762.807      401.374        1.000        0.104      132.734       18.101        0.019      338.097       10.518      863.229
04/22/2013  04:29:00      -36.967      154.884      -21.335       48.691       83.022       27.071     2370.775     6892.628      732.813        1.790        0.500      159.234       28.419        0.032      338.073       10.476      863.245
04/22/2013  04:30:00      -63.005      162.720       -7.133       39.496       61.546       30.383     1559.949     3787.859      923.129        1.838        0.314      174.492       26.464        0.023      338.085       10.496      863.241
04/22/2013  04:31:00      -24.900      114.139       -9.997       26.232       37.946       21.169      688.099     1439.897      448.139        0.816        0.129      116.824       19.089        0.027      338.070       10.473      863.259
04/22/2013  04:32:00      -12.876      107.385      -11.274       20.599       39.808       21.157      424.339     1584.712      447.613        0.714        0.123      108.154       21.102        0.038      338.050       10.440      863.257
04/22/2013  04:33:00      -12.741       82.123       -7.971       28.545       41.011       18.561      814.820     1681.926      344.529        0.491        0.142       83.105       16.731        0.041      338.036       10.415      863.245
04/22/2013  04:34:00      -54.455        6.339       -3.830       14.896       17.292       10.432      221.880      299.012      108.831        0.182        0.031       54.823        4.128        0.006      338.066       10.462      863.249
04/22/2013  04:35:00     -100.450      -29.406       -9.103       34.563       34.520       14.115     1194.585     1191.639      199.229        0.681        0.129      104.666       11.403        0.012      338.013       10.376      863.247
04/22/2013  04:36:00     -112.678      -48.807       -0.855       32.885       31.627       17.498     1081.397     1000.294      306.181        0.873        0.119      122.795       18.639        0.023      337.996       10.348      863.237
04/22/2013  04:37:00     -113.330      -49.330       -4.627       32.473       28.668       18.447     1054.510      821.833      340.283        0.876        0.111      123.601       14.698        0.014      337.963       10.293      863.236
04/22/2013  04:38:00     -118.267      -27.444       -6.196       24.210       21.663       18.443      586.119      469.265      340.142        0.809        0.070      121.410       12.392        0.010      337.887       10.166      863.241
04/22/2013  04:39:00      -83.859      -53.844       -2.196       24.827       29.656       16.275      616.356      879.502      264.867        0.585        0.088       99.657       11.115        0.012      337.849       10.102      863.245
04/22/2013  04:40:00     -102.057      -34.248       -6.619       27.291       28.686       19.494      744.812      822.874      380.003        0.679        0.097      107.650       15.795        0.022      337.778        9.983      863.245
04/22/2013  04:41:00     -115.943      -31.280       -7.157       29.141       23.712       19.689      849.178      562.257      387.645        0.814        0.090      120.088       16.924        0.020      337.673        9.805      863.256
04/22/2013  04:42:00     -111.013        2.472       -6.816       27.040       21.217       18.491      731.154      450.174      341.914        0.695        0.076      111.040       14.331        0.017      337.610        9.701      863.268
04/22/2013  04:43:00     -103.976      -15.903       -8.077       32.693       23.276       16.388     1068.863      541.781      268.566        0.650        0.094      105.185       17.184        0.027      337.553        9.603      863.273
04/22/2013  04:44:00     -141.295      -37.283       -9.266       35.236       29.510       23.001     1241.549      870.852      529.040        1.204        0.132      146.131       22.829        0.024      337.616        9.711      863.286
04/22/2013  04:45:00     -116.225      -47.468       -0.465       34.310       34.187       21.587     1177.146     1168.764      465.981        0.929        0.141      125.544       19.741        0.025      337.571        9.636      863.301
04/22/2013  04:46:00      -96.252      -34.187       -0.700       40.654       40.107       21.223     1652.707     1608.585      450.405        0.707        0.186      102.143       22.988        0.051      337.535        9.575      863.308
04/22/2013  04:47:00      -82.145      -49.770        8.650       47.567       30.064       21.430     2262.662      903.871      459.241        0.646        0.181       96.047       12.069        0.016      337.593        9.673      863.309
04/22/2013  04:48:00      -89.175      -46.217       -2.380       37.636       27.348       21.745     1416.479      747.889      472.853        0.636        0.132      100.440       21.152        0.044      337.603        9.690      863.282
04/22/2013  04:49:00     -103.772      -76.276      -12.214       23.621       23.356       16.540      557.935      545.507      273.555        0.906        0.069      128.789       13.835        0.012      337.607        9.694      863.270
04/22/2013  04:50:00      -41.629      -51.657        2.049       22.432       20.660       14.297      503.217      426.830      204.392        0.277        0.057       66.343        8.340        0.016      337.597        9.679      863.278
04/22/2013  04:51:00      -92.458      -37.464       -7.284       37.962       23.574       15.364     1441.124      555.747      236.059        0.612        0.112       99.760       15.178        0.023      337.549        9.598      863.282
04/22/2013  04:52:00     -105.769       13.846       -9.032       35.834       30.228       17.961     1284.086      913.743      322.599        0.699        0.126      106.672       16.710        0.025      337.342        9.251      863.286
04/22/2013  04:53:00      -90.539      -15.944       -8.544       35.868       22.766       12.593     1286.480      518.289      158.586        0.524        0.098       91.932       11.236        0.015      337.316        9.208      863.304
04/22/2013  04:54:00     -100.334      -27.105      -10.351       28.025       17.867       15.365      785.401      319.216      236.068        0.612        0.067      103.930       10.898        0.011      337.347        9.259      863.306
04/22/2013  04:55:00     -133.812      -28.572      -15.384       27.373       22.429       17.901      749.285      503.042      320.445        1.027        0.079      136.829       12.517        0.008      337.257        9.111      863.300
04/22/2013  04:56:00     -115.382      -46.728       -3.945       31.416       38.839       15.525      986.946     1508.470      241.037        0.912        0.137      124.485       15.383        0.015      337.135        8.906      863.294
04/22/2013  04:57:00      -91.128      -49.279       -3.427       29.658       37.492       18.942      879.611     1405.619      358.813        0.669        0.132      103.599       12.828        0.015      337.114        8.868      863.296
04/22/2013  04:58:00     -100.397      -51.475      -15.918       17.442       22.109       15.004      304.239      488.787      225.120        0.700        0.051      112.824        6.436        0.003      337.032        8.732      863.300
04/22/2013  04:59:00      -86.109      -15.651       -7.804       24.089       19.630       16.499      580.282      385.328      272.227        0.448        0.062       87.520       14.265        0.027      337.022        8.714      863.295
04/22/2013  05:00:00      -89.600       -2.024       -2.644       35.007       20.074       16.556     1225.457      402.971      274.111        0.497        0.095       89.623       17.149        0.037      337.012        8.698      863.294
04/22/2013  05:01:00      -70.114       -5.572      -11.958       22.411       20.466       16.119      502.262      418.867      259.830        0.314        0.059       70.335       15.008        0.046      337.044        8.751      863.311
04/22/2013  05:02:00      -61.214      -31.573       -5.958       15.914       23.501       13.742      253.265      552.276      188.850        0.289        0.050       68.876        7.202        0.011      337.113        8.867      863.317
04/22/2013  05:03:00      -80.910      -32.071       -2.121       21.279       20.841        8.925      452.798      434.363       79.660        0.427        0.048       87.034        6.487        0.006      337.146        8.923      863.324
04/22/2013  05:04:00     -126.966      -29.098      -16.025       11.748       12.935       12.638      138.010      167.322      159.710        0.884        0.023      130.258        7.126        0.003      336.945        8.586      863.332
04/22/2013  05:05:00     -101.786       -5.855       -8.148       36.342       35.221       20.190     1320.721     1240.520      407.616        0.671        0.148      101.955       19.027        0.035      336.803        8.351      863.339
04/22/2013  05:06:00     -105.054      -12.273       -3.650       47.808       33.894       15.913     2285.606     1148.815      253.210        0.744        0.184      105.768       12.487        0.014      336.731        8.230      863.333
04/22/2013  05:07:00     -117.595      -20.459       -8.735       40.731       27.848       23.060     1658.992      775.499      531.776        0.864        0.148      119.361       24.583        0.042      336.763        8.283      863.319
04/22/2013  05:08:00      -89.598      -25.054       -0.833       37.410       26.681       18.117     1399.534      711.873      328.243        0.555        0.122       93.035       18.798        0.041      336.813        8.367      863.319
04/22/2013  05:09:00      -89.135      -25.888       -5.355       18.727       20.337       12.175      350.707      413.582      148.238        0.478        0.046       92.818        7.958        0.007      336.834        8.401      863.323
04/22/2013  05:10:00     -106.193       -0.233       -7.282       37.003       20.415       15.490     1369.203      416.755      239.932        0.668        0.101      106.193       17.798        0.028      336.813        8.367      863.314
04/22/2013  05:11:00      -93.958       13.813       -2.347       39.947       25.002       21.504     1595.789      625.125      462.412        0.585        0.134       94.968       19.769        0.043      336.919        8.542      863.320
04/22/2013  05:12:00      -94.653       36.315        0.581       54.274       23.188       18.217     2945.644      537.663      331.845        0.705        0.191      101.380       17.603        0.030      336.945        8.585      863.333
04/22/2013  05:13:00      -83.913       28.434       -5.006       32.244       15.128       13.393     1039.687      228.851      179.380        0.466        0.072       88.599       14.234        0.026      337.025        8.719      863.334
04/22/2013  05:14:00     -101.815       20.223      -12.490       29.323       22.721       12.271      859.835      516.260      150.569        0.623        0.076      103.804       11.558        0.012      337.133        8.900      863.345
04/22/2013  05:15:00      -88.010       -2.578       -4.800       25.149       29.966       17.086      632.465      897.984      291.939        0.480        0.091       88.047       11.874        0.018      337.126        8.889      863.360
04/22/2013  05:16:00      -80.629      -20.596        1.094       33.848       32.163       19.849     1145.679     1034.479      393.964        0.475        0.129       83.218       16.138        0.038      337.020        8.712      863.353
04/22/2013  05:17:00      -97.914      -34.267       -7.026       37.228       32.025       21.378     1385.914     1025.573      457.019        0.684        0.143      103.737       13.985        0.018      337.018        8.706      863.338
04/22/2013  05:18:00     -112.072      -58.796       -3.408       36.282       39.749       24.453     1316.359     1580.004      597.929        0.976        0.175      126.558       18.474        0.021      336.985        8.653      863.327
04/22/2013  05:19:00     -103.765      -37.113       -0.080       41.106       37.189       22.349     1689.680     1383.059      499.487        0.786        0.179      110.202       20.806        0.036      336.906        8.522      863.312
04/22/2013  05:20:00     -120.273      -38.600       -5.336       58.044       21.389       17.883     3369.106      457.474      319.792        1.006        0.207      126.315       17.613        0.019      336.957        8.605      863.292
04/22/2013  05:21:00     -126.846      -18.383       -0.860       36.964       27.553       19.853     1366.348      759.193      394.153        0.947        0.126      128.171       18.891        0.022      336.947        8.589      863.289
04/22/2013  05:22:00     -121.628      -36.545       -6.032       34.630       22.744       19.916     1199.237      517.286      396.644        0.914        0.106      126.999       21.499        0.029      337.000        8.679      863.290
04/22/2013  05:23:00     -109.324      -35.954       -0.645       35.862       31.383       18.538     1286.086      984.880      343.664        0.793        0.131      115.084       17.565        0.023      336.987        8.657      863.286
04/22/2013  05:24:00     -102.687       -3.016       -3.105       44.560       36.386       21.891     1985.549     1323.958      479.216        0.718        0.189      102.731       17.968        0.031      336.817        8.372      863.291
04/22/2013  05:25:00      -99.574        2.097       -7.334       33.188       32.205       19.630     1101.413     1037.173      385.343        0.625        0.126       99.596       14.664        0.022      336.744        8.253      863.307
04/22/2013  05:26:00     -128.002       12.113       -9.643       30.865       31.050       23.371      952.647      964.076      546.196        0.954        0.123      128.574       17.715        0.019      336.780        8.313      863.310
04/22/2013  05:27:00     -100.885       -7.074       -4.177       42.783       29.159       20.552     1830.421      850.270      422.403        0.667        0.155      101.133       17.307        0.029      336.838        8.408      863.305
04/22/2013  05:28:00     -179.935       41.390      -16.195       49.905       34.585       25.374     2490.505     1196.124      643.832        1.934        0.217      184.634       16.641        0.008      336.790        8.326      863.325
04/22/2013  05:29:00     -152.286       41.374      -21.369       52.761       33.793       28.068     2783.678     1141.992      787.794        1.504        0.236      157.807       24.696        0.024      336.814        8.367      863.335
04/22/2013  05:30:00     -126.075       11.248      -11.164       44.291       32.380       26.895     1961.652     1048.481      723.323        0.994        0.187      126.575       25.921        0.042      336.840        8.411      863.341
04/22/2013  05:31:00      -89.628        2.863      -16.530       36.785       33.264       23.677     1353.150     1106.478      560.618        0.567        0.151       89.673       21.060        0.055      336.849        8.428      863.356
04/22/2013  05:32:00      -89.642        2.994      -19.233       54.529       32.796       20.974     2973.455     1075.594      439.889        0.645        0.224       89.692       19.071        0.045      336.859        8.445      863.370
04/22/2013  05:33:00      -94.107       -5.817       -8.530       33.623       35.074       21.063     1130.514     1230.207      443.648        0.588        0.140       94.287       14.462        0.024      336.845        8.421      863.382
04/22/2013  05:34:00      -50.808       -2.703      -17.595       39.930       25.603       18.789     1594.418      655.522      353.027        0.275        0.130       50.879       14.915        0.086      336.835        8.404      863.397
04/22/2013  05:35:00     -103.745      -21.267      -23.556       48.280       28.364       25.053     2330.986      804.516      627.638        0.777        0.188      105.903       11.481        0.012      336.826        8.389      863.414
04/22/2013  05:36:00      -75.581       -0.895      -11.115       36.590       32.462       19.534     1338.822     1053.795      381.561        0.430        0.139       75.586       15.098        0.040      336.773        8.300      863.421
04/22/2013  05:37:00      -59.058      -20.650        0.436       38.711       21.383       20.573     1498.547      457.225      423.267        0.315        0.119       62.564       17.429        0.078      336.801        8.347      863.438
04/22/2013  05:38:00      -90.819      -38.601       -5.717       46.679       33.566       23.289     2178.918     1126.689      542.390        0.681        0.192       98.682       25.898        0.069      336.666        8.123      863.444
04/22/2013  05:39:00     -124.958      -43.297      -12.518       28.912       35.178       21.160      835.879     1237.468      447.741        1.008        0.126      132.246       16.596        0.016      336.603        8.017      863.439
04/22/2013  05:40:00      -88.014      -17.122       -0.404       27.755       29.950       15.619      770.325      897.010      243.957        0.498        0.096       89.664        9.999        0.012      336.641        8.079      863.450
04/22/2013  05:41:00     -114.166      -41.141       -4.930       27.726       25.326       15.328      768.724      641.384      234.960        0.820        0.082      121.352       11.260        0.009      336.654        8.103      863.455
04/22/2013  05:42:00      -83.860      -34.805       -2.865       33.214       23.456       15.034     1103.193      550.197      226.007        0.507        0.094       90.796       16.492        0.033      336.649        8.092      863.455
04/22/2013  05:43:00      -83.118      -36.274       -5.707       20.604       21.166       15.956      424.507      447.988      254.605        0.469        0.056       90.689        9.258        0.010      336.711        8.197      863.466
04/22/2013  05:44:00     -110.332      -46.795       -5.526       24.881       27.040       14.909      619.075      731.172      222.278        0.798        0.079      119.845       11.004        0.008      336.650        8.096      863.458
04/22/2013  05:45:00      -95.748      -37.236       -3.677       29.537       25.772       21.052      872.415      664.201      443.167        0.627        0.099      102.733       17.890        0.030      336.652        8.098      863.458
04/22/2013  05:46:00     -113.910      -55.711      -10.319       24.415       20.200       16.570      596.110      408.042      274.572        0.873        0.064      126.804       10.751        0.007      336.693        8.166      863.457
04/22/2013  05:47:00      -98.373      -42.453       -8.401       43.668       34.487       21.743     1906.917     1189.325      472.761        0.756        0.178      107.143       21.816        0.041      336.773        8.301      863.455
04/22/2013  05:48:00     -124.494      -46.993       -1.174       44.305       43.829       22.656     1962.906     1920.966      513.272        1.105        0.220      133.068       21.329        0.026      336.740        8.246      863.452
04/22/2013  05:49:00     -124.011      -61.970       -2.132       33.206       32.151       21.423     1102.606     1033.676      458.945        1.091        0.130      138.632       22.303        0.026      336.770        8.296      863.445
04/22/2013  05:50:00     -108.517      -69.335       -0.108       46.476       41.097       21.891     2160.008     1688.957      479.212        1.045        0.216      128.777       19.757        0.024      336.774        8.302      863.442
04/22/2013  05:51:00      -74.019      -73.561       -2.818       53.299       39.380       23.460     2840.798     1550.780      550.373        0.792        0.247      104.356       27.425        0.069      336.783        8.317      863.430
04/22/2013  05:52:00      -68.954      -51.548        3.984       38.469       32.010       17.831     1479.827     1024.668      317.954        0.512        0.141       86.092       14.412        0.028      336.819        8.377      863.440
04/22/2013  05:53:00      -46.107      -43.325        5.670       35.025       30.312       20.527     1226.733      918.835      421.340        0.330        0.128       63.269       21.908        0.120      336.824        8.385      863.470
04/22/2013  05:54:00      -65.367      -40.586        0.269       49.962       18.068       22.436     2496.233      326.454      503.353        0.462        0.166       76.942       25.171        0.107      336.774        8.301      863.485
04/22/2013  05:55:00      -78.879      -60.140        0.502       41.475       35.000       24.976     1720.209     1225.012      623.819        0.670        0.178       99.191       20.739        0.044      336.767        8.289      863.499
04/22/2013  05:56:00      -99.419      -85.881        3.340       39.524       31.107       32.196     1562.145      967.645     1036.600        1.042        0.178      131.377       25.629        0.038      336.740        8.245      863.515
04/22/2013  05:57:00      -41.389      -55.699       12.146       48.133       38.481       18.899     2316.768     1480.764      357.172        0.456        0.208       69.394       19.630        0.080      336.776        8.306      863.527
04/22/2013  05:58:00      -91.000      -73.997       -5.041       29.743       28.866       20.699      884.625      833.272      428.457        0.796        0.107      117.288       13.567        0.013      336.750        8.263      863.557
04/22/2013  05:59:00      -68.986      -82.288       -5.891       51.084       33.460       28.616     2609.562     1119.590      818.877        0.806        0.227      107.379       28.661        0.071      336.724        8.219      863.564
04/22/2013  06:00:00       -7.584      -24.586        5.623       15.444       22.744       15.116      238.519      517.286      228.480        0.084        0.049       25.730       10.600        0.170      336.676        8.139      863.569
04/22/2013  06:01:00       -7.053      -67.016       -7.775       25.630       25.698       16.553      656.873      660.365      273.996        0.310        0.080       67.386       10.208        0.023      336.824        8.386      863.578
04/22/2013  06:02:00      -30.426      -50.558        1.454       32.224       41.721       26.527     1038.404     1740.607      703.705        0.348        0.174       59.007       11.225        0.036      336.838        8.409      863.591
04/22/2013  06:03:00      -22.343      -30.429        6.734       22.319       25.584       18.140      498.126      654.550      329.069        0.148        0.074       37.751       13.287        0.124      336.788        8.326      863.614
04/22/2013  06:04:00       -0.598      -16.754       13.071       38.780       18.260       18.654     1503.897      333.410      347.975        0.132        0.109       16.764       19.872        1.405      336.704        8.186      863.628
04/22/2013  06:05:00        1.593        9.280       10.547       11.989        6.227        7.730      143.728       38.773       59.755        0.022        0.012        9.416        5.049        0.288      336.630        8.062      863.656
04/22/2013  06:06:00        5.780       40.334        2.345       22.525       26.271       16.006      507.390      690.184      256.186        0.156        0.073       40.746       17.671        0.188      336.683        8.151      863.672
04/22/2013  06:07:00      -11.302       34.824       10.592       14.962       24.329       13.840      223.871      591.877      191.543        0.123        0.050       36.612       11.067        0.091      336.518        7.875      863.680
04/22/2013  06:08:00       14.577       15.315        6.666       11.621       10.843        9.025      135.044      117.581       81.457        0.041        0.017       21.143        6.522        0.095      336.535        7.902      863.689
04/22/2013  06:09:00       48.902        6.007       -2.320       13.980       18.051        9.933      195.434      325.841       98.655        0.153        0.031       49.270        4.011        0.007      336.624        8.053      863.705
04/22/2013  06:10:00       39.376       44.633       23.392       28.994       18.242       20.547      840.625      332.787      422.161        0.284        0.080       59.519       20.268        0.116      336.508        7.857      863.720
04/22/2013  06:11:00        5.584       47.901       58.233       19.947       23.208       14.195      397.873      538.627      201.504        0.343        0.057       48.226       13.056        0.073      336.470        7.795      863.746
04/22/2013  06:12:00       19.723      -20.458       20.761       21.722       48.418       28.854      471.835     2344.280      832.547        0.244        0.182       28.417       36.241        1.627      336.630        8.062      863.753
04/22/2013  06:13:00       -4.434      -56.180       -7.315       33.141       21.472       21.204     1098.340      461.039      449.630        0.262        0.100       56.355       11.324        0.040      336.785        8.321      863.758
04/22/2013  06:14:00      -20.061      -42.894       -2.300       22.205       17.333       17.381      493.084      300.416      302.100        0.167        0.055       47.354       11.674        0.061      336.848        8.424      863.751
04/22/2013  06:15:00      -25.424      -45.467       -6.092       25.742       21.976       16.426      662.666      482.929      269.827        0.208        0.071       52.092        8.510        0.027      336.809        8.359      863.755
04/22/2013  06:16:00      -43.762        6.795       -0.562       21.949       14.193       12.733      481.762      201.450      162.140        0.140        0.042       44.286        8.532        0.037      336.667        8.124      863.751
04/22/2013  06:17:00      -12.682       17.550       -1.352       14.198       18.139       15.879      201.578      329.007      252.152        0.063        0.039       21.652        8.389        0.150      336.738        8.243      863.755
04/22/2013  06:18:00      -13.359       12.740       17.197       19.837       29.612       13.754      393.491      876.844      189.173        0.105        0.073       18.460       15.507        0.706      336.788        8.325      863.767
04/22/2013  06:19:00      -17.592      -70.017       -1.749       23.357       26.117       28.262      545.570      682.075      798.769        0.362        0.101       72.193       19.757        0.075      336.839        8.410      863.788
04/22/2013  06:20:00      -29.916      -11.792       -9.280       12.687       16.136       10.501      160.960      260.356      110.264        0.083        0.027       32.156        4.566        0.020      336.782        8.315      863.790
04/22/2013  06:21:00      -52.427      -14.432       -6.951       25.846       21.698       17.743      667.996      470.796      314.820        0.223        0.073       54.377       12.753        0.055      336.728        8.226      863.785
04/22/2013  06:22:00      -33.701      -26.569        0.665       35.582       23.683       17.663     1266.077      560.864      311.973        0.199        0.107       42.915        8.279        0.037      336.659        8.109      863.785
04/22/2013  06:23:00      -38.824      -31.942        1.288       49.280       33.039       18.915     2428.512     1091.601      357.785        0.320        0.194       50.275       17.246        0.118      336.636        8.072      863.785
04/22/2013  06:24:00      -48.409      -33.661        8.530       52.427       39.253       22.292     2748.578     1540.772      496.942        0.417        0.239       58.961       28.123        0.228      336.584        7.987      863.791
04/22/2013  06:25:00      -73.081      -42.009        4.224       36.162       29.229       19.272     1307.690      854.348      371.414        0.483        0.127       84.295       21.943        0.068      336.600        8.013      863.796
04/22/2013  06:26:00      -53.499      -34.229        9.609       35.356       27.552       19.695     1250.058      759.103      387.879        0.326        0.120       63.512       17.734        0.078      336.676        8.138      863.801
04/22/2013  06:27:00      -82.420      -58.535       -4.688       34.176       22.777       20.938     1168.029      518.781      438.384        0.618        0.106      101.091       17.740        0.031      336.716        8.204      863.802
04/22/2013  06:28:00      -77.939      -40.050        1.680       29.788       20.254       18.794      887.345      410.222      353.230        0.467        0.083       87.627       18.042        0.042      336.738        8.242      863.808
04/22/2013  06:29:00     -148.642        7.174      -12.621       29.496       24.019       16.629      870.010      576.920      276.523        1.201        0.086      148.815        8.403        0.003      336.620        8.047      863.816
04/22/2013  06:30:00      -97.010        0.673       -0.053       65.480       36.898       26.909     4287.684     1361.481      724.069        0.789        0.319       97.012       34.765        0.128      336.600        8.011      863.826
04/22/2013  06:31:00      -82.158       -8.153       -2.546       44.969       40.058       21.755     2022.252     1604.620      473.260        0.546        0.205       82.561       19.582        0.056      336.522        7.880      863.836
04/22/2013  06:32:00     -122.571       -6.935       -7.530       50.568       27.198       24.530     2557.122      739.710      601.732        0.951        0.195      122.767       26.483        0.047      336.297        7.504      863.842
04/22/2013  06:33:00     -152.837      -42.598       -6.365       40.500       36.524       18.991     1640.265     1334.009      360.674        1.427        0.167      158.662       16.013        0.010      336.315        7.534      863.840
04/22/2013  06:34:00     -166.220      -69.195       -4.511       21.557       30.683       15.775      464.724      941.421      248.851        1.705        0.083      180.047       11.277        0.004      336.371        7.628      863.842
04/22/2013  06:35:00     -113.478      -41.642        0.269       44.116       27.064       28.206     1946.246      732.448      795.602        0.904        0.174      120.878       25.868        0.046      336.328        7.554      863.840
04/22/2013  06:36:00      -96.439      -55.018       -3.764       46.633       30.536       23.342     2174.618      932.420      544.847        0.800        0.183      111.029       11.056        0.010      336.304        7.516      863.855
04/22/2013  06:37:00      -55.836      -37.895        2.002       38.592       28.752       20.825     1489.374      826.682      433.672        0.365        0.137       67.482       20.856        0.096      336.329        7.555      863.875
04/22/2013  06:38:00     -110.626      -83.918       -1.203       58.343       36.680       21.972     3403.851     1345.394      482.773        1.226        0.262      138.853       19.728        0.020      336.277        7.471      863.880
04/22/2013  06:39:00      -97.083      -67.306        6.765       59.503       37.952       27.352     3540.622     1440.345      748.150        0.986        0.286      118.132       27.006        0.052      336.269        7.457      863.878
04/22/2013  06:40:00      -80.195      -67.870        2.191       60.660       41.024       30.823     3679.610     1682.985      950.049        0.868        0.316      105.060       28.224        0.072      336.332        7.563      863.877
04/22/2013  06:41:00      -84.895      -82.711       -2.845       32.062       39.567       21.439     1027.959     1565.564      459.640        0.855        0.153      118.525       16.842        0.020      336.344        7.582      863.870
04/22/2013  06:42:00      -82.442      -73.111        6.968       61.082       42.179       25.344     3731.039     1779.038      642.320        0.917        0.308      110.190       24.947        0.051      336.397        7.671      863.867
04/22/2013  06:43:00     -122.355      -95.523        7.355       59.916       36.772       29.373     3589.941     1352.216      862.745        1.498        0.290      155.227       27.598        0.032      336.387        7.653      863.873
04/22/2013  06:44:00     -124.564      -91.609       -3.445       56.198       45.540       23.956     3158.253     2073.856      573.870        1.486        0.290      154.624       24.807        0.026      336.417        7.704      863.874
04/22/2013  06:45:00     -101.106      -79.162        2.700       58.142       39.435       30.450     3380.474     1555.080      927.230        1.118        0.293      128.410       30.649        0.057      336.375        7.633      863.884
04/22/2013  06:46:00      -97.903      -58.384       -3.417       41.871       30.268       24.482     1753.211      916.175      599.370        0.814        0.163      113.990       23.200        0.041      336.410        7.693      863.888
04/22/2013  06:47:00     -109.012      -10.826       -0.977       45.442       29.747       24.076     2064.963      884.861      579.674        0.776        0.176      109.548       21.966        0.040      336.340        7.576      863.904
04/22/2013  06:48:00     -100.833       -4.652        5.262       62.508       43.988       30.476     3907.216     1934.944      928.802        0.849        0.339      100.940       34.069        0.114      336.424        7.716      863.922
04/22/2013  06:49:00     -162.120      -66.499        0.979       51.508       39.508       24.995     2653.122     1560.867      624.730        1.777        0.242      175.228       20.275        0.013      336.350        7.593      863.935
04/22/2013  06:50:00     -151.218     -101.100       -0.373       38.580       28.838       24.911     1488.412      831.612      620.564        1.801        0.147      181.902       19.217        0.011      336.327        7.554      863.953
04/22/2013  06:51:00     -106.999      -74.221       -5.915       24.377       32.116       14.821      594.253     1031.441      219.667        0.942        0.092      130.221       10.517        0.007      336.353        7.596      863.968
04/22/2013  06:52:00     -111.320      -18.801      -13.441       34.614       23.092       16.388     1198.124      533.262      268.562        0.746        0.100      112.897        9.750        0.007      336.392        7.663      863.974
04/22/2013  06:53:00      -97.706      -23.344       -2.991       25.842       19.696       16.855      667.787      387.925      284.093        0.572        0.067      100.456       14.178        0.020      336.409        7.692      863.974
04/22/2013  06:54:00      -99.941      -27.009       -5.190       16.336       19.744       14.250      266.872      389.815      203.074        0.580        0.043      103.527       10.116        0.010      336.409        7.689      863.977
04/22/2013  06:55:00      -85.843      -38.246       -8.020       29.473       17.169       13.406      868.631      294.773      179.728        0.512        0.067       93.978       12.673        0.018      336.516        7.870      863.976
04/22/2013  06:56:00      -43.144      -36.314        1.570       38.265       24.752       17.607     1464.179      612.638      310.007        0.278        0.119       56.392       17.082        0.092      336.595        8.004      863.975
04/22/2013  06:57:00      -64.797      -70.389        4.040       34.946       32.161       20.215     1221.195     1034.331      408.641        0.592        0.133       95.673       20.772        0.047      336.604        8.020      863.969
04/22/2013  06:58:00      -69.396      -64.570        4.694       42.446       33.728       26.157     1801.644     1137.606      684.184        0.631        0.181       94.790       27.074        0.082      336.581        7.980      863.975
04/22/2013  06:59:00      -90.354      -55.388        0.675       44.896       37.848       20.096     2015.667     1432.472      403.850        0.754        0.193      105.980       23.847        0.051      336.656        8.105      863.962
04/22/2013  07:00:00      -72.056      -70.409        0.509       39.514       40.273       25.682     1561.342     1621.922      659.550        0.700        0.192      100.745       23.226        0.053      336.586        7.989      863.962
04/22/2013  07:01:00      -97.184      -66.063        0.102       39.716       34.752       23.793     1577.344     1207.699      566.090        0.858        0.168      117.512       21.913        0.035      336.547        7.923      863.956
04/22/2013  07:02:00      -75.930      -43.933        5.034       57.960       31.239       25.433     3359.415      975.899      646.826        0.635        0.249       87.724       29.549        0.113      336.743        8.249      863.935
04/22/2013  07:03:00     -104.699      -55.239       -4.836       30.949       26.945       17.885      957.824      726.027      319.874        0.802        0.100      118.378       14.574        0.015      336.755        8.272      863.925
04/22/2013  07:04:00     -114.266      -32.985       -9.383       29.203       27.677       16.896      852.817      766.018      285.485        0.807        0.095      118.931       15.100        0.016      336.823        8.383      863.927
04/22/2013  07:05:00     -105.908      -12.398       -1.573       34.355       28.294       21.391     1180.286      800.535      457.556        0.691        0.122      106.632       17.068        0.026      336.809        8.360      863.938
04/22/2013  07:06:00     -113.113      -43.055       -4.872       39.178       32.931       17.233     1534.888     1084.425      296.966        0.879        0.146      121.030        9.073        0.006      336.847        8.425      863.959
04/22/2013  07:07:00     -115.929      -36.215       -0.842       36.773       42.360       20.589     1352.250     1794.390      423.903        0.916        0.179      121.454       19.868        0.027      336.916        8.537      863.978
04/22/2013  07:08:00     -100.468      -12.496       -5.554       32.903       36.465       16.438     1082.611     1329.710      270.204        0.648        0.134      101.242       12.385        0.015      337.020        8.712      863.994
04/22/2013  07:09:00      -81.881       -1.697       -9.451       35.454       42.053       24.002     1256.982     1768.444      576.093        0.520        0.180       81.898       19.561        0.057      337.276        9.140      864.003
04/22/2013  07:10:00      -94.334        4.727        1.747       76.093       33.557       27.566     5790.146     1126.083      759.898        0.830        0.384       94.453       37.804        0.160      337.238        9.075      864.012
04/22/2013  07:11:00     -148.439       26.966       -9.120       90.810       37.357       35.668     8246.449     1395.541     1272.218        1.688        0.546      150.868       44.795        0.088      337.355        9.273      864.019
04/22/2013  07:12:00     -142.650       29.485      -12.037       43.438       40.461       22.870     1886.841     1637.076      523.021        1.270        0.202      145.665       11.327        0.006      337.140        8.913      864.039
04/22/2013  07:13:00      -70.494        7.783       -0.732       40.118       43.550       23.399     1609.459     1896.603      547.495        0.454        0.203       70.922       16.292        0.053      337.313        9.202      864.052
04/22/2013  07:14:00     -142.860      -12.307       -9.734       36.182       32.702       23.394     1309.140     1069.452      547.274        1.179        0.146      143.389       18.905        0.017      337.136        8.906      864.061
04/22/2013  07:15:00     -131.162        2.243      -15.426       38.964       43.575       29.608     1518.211     1898.791      876.657        1.087        0.215      131.182       20.433        0.024      337.176        8.973      864.084
04/22/2013  07:16:00      -73.147      -30.864       -9.313       47.964       35.069       21.008     2300.529     1229.840      441.326        0.518        0.199       79.391       15.898        0.040      337.289        9.163      864.088
04/22/2013  07:17:00     -107.909        2.057       -8.809       32.953       34.423       24.357     1085.920     1184.972      593.266        0.729        0.143      107.929       16.562        0.024      337.249        9.097      864.107
04/22/2013  07:18:00     -109.084       -9.807      -10.714       36.873       43.107       20.963     1359.616     1858.174      439.434        0.788        0.183      109.524       19.412        0.031      337.209        9.029      864.123
04/22/2013  07:19:00     -128.562       -4.228      -20.449       35.554       26.784       18.761     1264.079      717.396      351.957        0.965        0.117      128.631        7.110        0.003      337.273        9.134      864.134
04/22/2013  07:20:00     -106.429       -4.928      -12.436       36.508       28.477       22.804     1332.798      810.937      520.042        0.708        0.133      106.543       12.402        0.014      337.345        9.255      864.154
04/22/2013  07:21:00     -135.385      -13.941      -10.023       53.057       33.254       22.523     2815.082     1105.824      507.294        1.153        0.221      136.101       20.341        0.022      337.382        9.320      864.162
04/22/2013  07:22:00     -169.358      -24.912      -13.148       44.339       36.792       25.625     1965.912     1353.685      656.628        1.673        0.199      171.181       24.391        0.020      337.308        9.194      864.169
04/22/2013  07:23:00     -103.570      -30.307        6.185       37.979       32.793       22.763     1442.423     1075.406      518.143        0.736        0.152      107.913       19.585        0.033      337.361        9.283      864.169
04/22/2013  07:24:00     -107.990      -39.531      -16.831       42.010       29.139       18.859     1764.831      849.100      355.659        0.824        0.148      114.998       14.387        0.016      337.425        9.391      864.183
04/22/2013  07:25:00      -90.950        3.588      -10.272       54.838       38.202       26.296     3007.230     1459.363      691.494        0.677        0.258       91.021       27.552        0.092      337.653        9.773      864.207
04/22/2013  07:26:00      -98.333      -12.326      -18.710       38.386       25.052       16.487     1473.487      627.599      271.808        0.627        0.119       99.102       17.442        0.031      337.562        9.620      864.228
04/22/2013  07:27:00      -48.435      -12.480        5.001       31.541       25.515       23.061      994.862      651.007      531.800        0.235        0.109       50.017       19.664        0.155      337.684        9.826      864.247
04/22/2013  07:28:00       -3.212       -3.870       15.821       34.037       25.560       14.508     1158.540      653.312      210.492        0.115        0.101        5.029       16.707       11.035      337.836       10.079      864.255
04/22/2013  07:29:00       23.215       16.625        4.737       16.059       16.228       18.326      257.906      263.334      335.824        0.085        0.043       28.554        7.734        0.073      337.828       10.066      864.256
04/22/2013  07:30:00        2.312       54.019        3.547       23.019       23.134       23.097      529.866      535.179      533.480        0.227        0.080       54.068       13.753        0.065      338.016       10.381      864.265
04/22/2013  07:31:00        7.622       40.844        9.294       29.081       35.008       19.715      845.690     1225.553      388.685        0.214        0.123       41.549       17.885        0.185      337.995       10.346      864.271
04/22/2013  07:32:00       14.437       64.924       -4.465       22.191       22.508       16.871      492.448      506.597      284.633        0.286        0.064       66.510        9.988        0.023      337.785        9.995      864.286
04/22/2013  07:33:00        6.448       50.603        1.540       23.594       46.018       21.915      556.689     2117.635      480.269        0.288        0.158       51.012       27.449        0.290      337.952       10.274      864.301
04/22/2013  07:34:00        7.556       76.151       -1.526       13.285       25.364       20.082      176.504      643.314      403.267        0.354        0.061       76.525       13.328        0.030      337.906       10.197      864.316
04/22/2013  07:35:00      -13.800       54.419       -7.045       25.166       34.844       15.875      633.341     1214.124      252.013        0.265        0.105       56.142       16.237        0.084      337.875       10.143      864.335
04/22/2013  07:36:00       23.121       82.968      -12.397       23.720       34.404       20.066      562.647     1183.659      402.657        0.486        0.107       86.130       17.749        0.042      337.913       10.208      864.346
04/22/2013  07:37:00       40.713       42.637       -4.684       42.500       19.722       20.081     1806.238      388.975      403.232        0.305        0.130       58.953       14.165        0.058      337.992       10.341      864.359
04/22/2013  07:38:00      110.611       64.891       12.717       25.646       23.525       30.117      657.731      553.440      907.029        0.936        0.106      128.240       13.601        0.011      337.878       10.149      864.358
04/22/2013  07:39:00      102.593       77.618       -5.870       31.964       21.898       22.425     1021.714      479.508      502.888        0.929        0.100      128.647       10.039        0.006      337.850       10.103      864.361
04/22/2013  07:40:00       68.538       50.063       31.981       29.938       31.086       33.978      896.278      966.363     1154.530        0.562        0.151       84.875       20.652        0.059      337.929       10.233      864.362
04/22/2013  07:41:00       85.562       50.842        5.802       20.434       21.969       25.744      417.566      482.644      662.768        0.575        0.078       99.528       15.170        0.023      337.881       10.155      864.380
04/22/2013  07:42:00       27.964       32.303        1.468       33.648       23.744       25.548     1132.158      563.778      652.696        0.209        0.117       42.725       17.621        0.170      338.190       10.673      864.395
04/22/2013  07:43:00       70.272       42.486        4.315       21.278       18.894       20.222      452.745      356.990      408.928        0.399        0.061       82.117       12.925        0.025      338.026       10.397      864.413
04/22/2013  07:44:00       71.374       33.491        4.287       29.611       25.763       21.111      876.829      663.716      445.684        0.411        0.099       78.841        3.632        0.002      338.105       10.530      864.433
04/22/2013  07:45:00       77.629       59.266        5.407       27.061       24.203       24.267      732.305      585.775      588.889        0.574        0.095       97.666       19.775        0.041      338.112       10.543      864.424
04/22/2013  07:46:00       51.918       49.803       13.404       38.435       20.274       21.406     1477.221      411.045      458.204        0.385        0.117       71.943        9.673        0.018      338.196       10.683      864.428
04/22/2013  07:47:00       84.215       67.768       22.487       22.674       20.334       25.796      514.123      413.478      665.415        0.689        0.080      108.096       12.977        0.014      338.059       10.454      864.435
04/22/2013  07:48:00       73.807       55.626        5.725       29.429       24.485       21.677      866.059      599.512      469.895        0.525        0.097       92.421        9.458        0.010      338.122       10.560      864.443
04/22/2013  07:49:00       84.136       59.397        2.680       28.129       17.096       12.693      791.257      292.262      161.107        0.593        0.062      102.990        8.417        0.007      338.067       10.468      864.446
04/22/2013  07:50:00       76.241       57.399       28.557       38.187       30.859       29.763     1458.263      952.275      885.835        0.661        0.165       95.432       15.026        0.025      338.298       10.855      864.434
04/22/2013  07:51:00       89.303       91.682        4.154       38.473       24.279       26.435     1480.177      589.453      698.798        0.958        0.138      127.987       10.320        0.007      338.104       10.529      864.417
04/22/2013  07:52:00       58.719       60.546       46.296       52.766       42.290       36.355     2784.265     1788.454     1321.673        0.757        0.295       84.343       10.214        0.015      338.456       11.120      864.412
04/22/2013  07:53:00       42.275       56.336       53.897       26.902       29.413       21.333      723.729      865.139      455.086        0.495        0.102       70.434       12.440        0.031      338.453       11.115      864.412
04/22/2013  07:54:00       41.495       50.215       44.949       20.770       19.862       14.069      431.407      394.513      197.924        0.364        0.051       65.142        6.410        0.010      338.387       11.003      864.411
04/22/2013  07:55:00        4.187      -10.545       34.862       26.237       43.464       23.943      688.361     1889.092      573.288        0.225        0.158       11.345       19.787        3.042      338.801       11.699      864.417
04/22/2013  07:56:00       18.718       -0.925       17.158       30.010       58.298       28.314      900.612     3398.697      801.661        0.287        0.255       18.741       24.034        1.645      338.676       11.490      864.433
04/22/2013  07:57:00       18.399       79.232        3.701       22.422       30.377       18.876      502.745      922.783      356.304        0.421        0.089       81.340       13.620        0.028      338.736       11.589      864.433
04/22/2013  07:58:00       29.565       81.020       31.310       30.195       50.536       28.494      911.714     2553.892      811.927        0.635        0.214       86.246       21.439        0.062      338.663       11.468      864.437
04/22/2013  07:59:00       24.404       18.722       42.713       23.027       22.238       14.166      530.239      494.507      200.679        0.200        0.061       30.758       14.711        0.229      338.938       11.930      864.438
04/22/2013  08:00:00       10.144       43.396       48.569       25.760       29.208       19.540      663.555      853.103      381.794        0.312        0.095       44.566       12.701        0.081      339.085       12.177      864.440
04/22/2013  08:01:00        5.354       -8.234       32.071       17.572       29.808       19.213      308.788      888.521      369.138        0.135        0.078        9.822       19.477        3.932      339.321       12.575      864.442
04/22/2013  08:02:00       10.080      -68.415        4.407       22.453       41.370       20.734      504.124     1711.502      429.881        0.372        0.132       69.154       23.154        0.112      338.766       11.641      864.457
04/22/2013  08:03:00      -14.525      -40.028       15.200       20.788       37.087       23.167      432.127     1375.462      536.715        0.219        0.117       42.582       24.008        0.318      338.941       11.934      864.457
04/22/2013  08:04:00        3.252       27.996       34.235       12.592       15.385       14.957      158.557      236.704      223.722        0.129        0.031       28.184       10.389        0.136      338.860       11.798      864.456
04/22/2013  08:05:00        2.520       19.026       28.451       20.035       17.606       15.773      401.389      309.984      248.793        0.107        0.048       19.192        7.153        0.139      339.136       12.264      864.463
04/22/2013  08:06:00       15.822       12.525       22.211       16.616       13.697       12.606      276.085      187.619      158.912        0.076        0.031       20.179       11.495        0.324      338.923       11.905      864.466
04/22/2013  08:07:00       28.803       19.339       17.750       22.800       20.140       18.518      519.848      405.612      342.931        0.139        0.063       34.693       11.758        0.115      338.925       11.909      864.465
04/22/2013  08:08:00        6.976       26.523       15.596       21.384       21.604       20.650      457.288      466.731      426.405        0.117        0.068       27.425       10.677        0.152      339.203       12.374      864.464
04/22/2013  08:09:00       39.214       38.362       12.706       35.897       35.107       32.319     1288.577     1232.501     1044.513        0.337        0.178       54.857       18.094        0.109      338.948       11.948      864.465
04/22/2013  08:10:00       38.239       40.582        5.815       29.810       40.260       25.925      888.648     1620.897      672.097        0.316        0.159       55.759       17.178        0.095      339.142       12.274      864.472
04/22/2013  08:11:00       29.707       90.143       -5.165       21.853       33.504       22.220      477.552     1122.530      493.715        0.556        0.105       94.912       16.969        0.032      338.787       11.679      864.476
04/22/2013  08:12:00      -14.108       92.144       -8.219       36.347       34.760       17.222     1321.086     1208.288      296.602        0.579        0.141       93.217       13.324        0.020      338.625       11.404      864.489
04/22/2013  08:13:00      -27.193       53.462       13.486       31.171       43.918       23.851      971.658     1928.783      568.875        0.362        0.173       59.980       25.302        0.178      339.204       12.378      864.485
04/22/2013  08:14:00      -17.366       31.839        8.459       29.492       24.938       23.140      869.769      621.929      535.482        0.171        0.101       36.267       16.883        0.217      339.036       12.095      864.494
04/22/2013  08:15:00       -4.207       16.531       18.812       21.821       22.276       19.769      476.158      496.228      390.819        0.100        0.068       17.058       13.618        0.637      339.333       12.594      864.505
04/22/2013  08:16:00      -28.691       65.101        1.696       31.639       39.405       23.898     1000.995     1552.768      571.128        0.409        0.156       71.143       22.500        0.100      339.096       12.197      864.498
04/22/2013  08:17:00      -14.674       81.332       -8.521       29.585       44.445       22.138      875.297     1975.352      490.110        0.512        0.167       82.645       22.049        0.071      338.995       12.026      864.504
04/22/2013  08:18:00        3.054       -0.027       28.595       25.311       12.347       13.389      640.667      152.458      179.253        0.090        0.049        3.054        8.324        7.431      339.565       12.986      864.502
04/22/2013  08:19:00       10.564        4.449       15.798       16.203       15.442       17.063      262.527      238.441      291.159        0.059        0.040       11.462        3.813        0.111      339.379       12.673      864.480
04/22/2013  08:20:00       16.048       10.418       10.420       33.971       18.810       24.682     1154.018      353.828      609.194        0.130        0.106       19.133       14.560        0.579      339.311       12.558      864.460
04/22/2013  08:21:00       16.607       24.910       47.423       33.053       45.311       22.287     1092.508     2053.119      496.718        0.339        0.182       29.939       24.258        0.657      339.443       12.780      864.440
04/22/2013  08:22:00       11.689       42.472       59.169       34.650       38.424       18.467     1200.588     1476.389      341.042        0.423        0.151       44.051       19.443        0.195      339.343       12.612      864.429
04/22/2013  08:23:00       88.489       34.688       42.589       82.041       54.095       38.758     6730.681     2926.234     1502.189        1.100        0.558       95.045       38.223        0.162      339.143       12.275      864.411
04/22/2013  08:24:00       66.671       47.519       26.989       57.036       47.296       39.225     3253.123     2236.898     1538.578        0.723        0.351       81.872       35.152        0.184      339.202       12.373      864.401
04/22/2013  08:25:00       68.394       70.242       57.470       61.674       43.441       39.862     3803.653     1887.128     1588.940        1.010        0.364       98.039       32.986        0.113      339.216       12.397      864.397
04/22/2013  08:26:00       19.509       55.122       74.576       52.892       38.052       31.941     2797.544     1447.989     1020.227        0.712        0.263       58.473       32.052        0.300      339.288       12.519      864.395
04/22/2013  08:27:00       21.982       10.055       38.842       41.394       56.847       16.899     1713.427     3231.527      285.589        0.366        0.262       24.172       14.979        0.384      339.296       12.532      864.399
04/22/2013  08:28:00       17.926       19.603       35.391       27.889       29.209       15.810      777.813      853.147      249.968        0.192        0.094       26.564       10.489        0.156      339.620       13.080      864.396
04/22/2013  08:29:00       11.142       -6.464       11.345       17.976       65.803       23.125      323.121     4329.969      534.774        0.274        0.259       12.882       24.175        3.522      339.136       12.262      864.395
04/22/2013  08:30:00       37.762      -92.386        5.108       64.987       86.428       41.174     4223.307     7469.850     1695.275        1.169        0.669       99.805       42.151        0.178      339.043       12.105      864.385
04/22/2013  08:31:00       19.534       -8.466       48.075       36.068       61.704       38.591     1300.874     3807.420     1489.291        0.468        0.330       21.290       36.597        2.955      339.350       12.624      864.371
04/22/2013  08:32:00       31.230      -32.163       48.664       50.004       63.722       52.248     2500.406     4060.472     2729.850        0.683        0.465       44.830       40.028        0.797      339.342       12.611      864.367
04/22/2013  08:33:00       46.614      -40.627       12.664       52.623       59.594       59.398     2769.202     3551.460     3528.166        0.691        0.492       61.834       47.387        0.587      339.258       12.469      864.360
04/22/2013  08:34:00       58.643      -55.523       -8.176       46.983       63.206       55.804     2207.421     3995.032     3114.065        0.795        0.466       80.758       45.423        0.316      339.247       12.451      864.339
04/22/2013  08:35:00        6.954       33.265       83.878       30.949       64.950       30.800      957.832     4218.487      948.610        0.716        0.306       33.984       29.806        0.769      339.299       12.537      864.336
04/22/2013  08:36:00       20.741        9.133       37.537       26.515       35.480       32.521      703.042     1258.799     1057.618        0.247        0.151       22.663       27.130        1.433      339.239       12.436      864.344
04/22/2013  08:37:00       10.356        3.355       29.596       35.297       39.936       38.202     1245.851     1594.871     1459.400        0.265        0.215       10.886       27.964        6.599      339.397       12.703      864.330
04/22/2013  08:38:00       -0.590       45.647       83.112       23.936       37.019       20.181      572.955     1370.381      407.276        0.567        0.118       45.651       20.104        0.194      339.403       12.714      864.328
04/22/2013  08:39:00        7.770       39.180       74.504       40.159       53.369       33.645     1612.758     2848.214     1131.977        0.637        0.280       39.943       43.045        1.161      339.283       12.511      864.319
04/22/2013  08:40:00        1.394        2.061        9.994       39.781       26.624       25.050     1582.543      708.831      627.500        0.151        0.146        2.488        6.043        5.899      339.230       12.421      864.321
04/22/2013  08:41:00       11.860       35.551       65.594       41.685       38.017       23.732     1737.647     1445.280      563.195        0.473        0.187       37.477       21.570        0.331      339.490       12.860      864.305
04/22/2013  08:42:00       -8.478       31.932       47.042       17.956       26.574       20.171      322.423      706.187      406.881        0.237        0.072       33.038       11.805        0.128      339.732       13.268      864.304
04/22/2013  08:43:00      -12.523       -6.305       39.523       16.464       47.389       27.867      271.055     2245.748      776.596        0.253        0.165       14.021       33.507        5.711      339.724       13.254      864.304
04/22/2013  08:44:00       19.146      -76.321      -11.543       53.155       64.328       29.046     2825.414     4138.119      843.669        0.706        0.390       78.686       27.947        0.126      339.174       12.327      864.311
04/22/2013  08:45:00        3.245       22.380       45.149       20.338       25.783       18.431      413.624      664.764      339.698        0.198        0.071       22.614       11.891        0.276      339.905       13.560      864.306
04/22/2013  08:46:00       46.432       37.221       21.988       40.235       22.659       23.940     1618.859      513.408      573.105        0.336        0.135       59.509       22.610        0.144      339.422       12.744      864.294
04/22/2013  08:47:00      -15.888       23.717       -0.274       36.278       14.157       22.513     1316.075      200.416      506.843        0.142        0.101       28.547       14.375        0.254      339.233       12.425      864.298
04/22/2013  08:48:00      -40.677        5.397      -11.898       16.600       12.055        9.591      275.573      145.333       91.993        0.117        0.026       41.034        5.194        0.016      339.178       12.334      864.308
04/22/2013  08:49:00      -24.709       38.365       -4.936       33.592       46.968       27.110     1128.401     2205.995      734.974        0.309        0.203       45.633       11.121        0.059      339.380       12.673      864.306
04/22/2013  08:50:00      -24.210       29.138       -2.654       21.996       32.328       22.460      483.840     1045.076      504.472        0.174        0.102       37.883        8.364        0.049      339.587       13.022      864.305
04/22/2013  08:51:00       -3.260      149.475      -20.035       29.985       80.537       33.714      899.121     6486.251     1136.621        1.564        0.426      149.510       45.801        0.094      339.509       12.889      864.314
04/22/2013  08:52:00      -18.299       91.195       -8.849       25.340       55.092       29.285      642.109     3035.085      857.639        0.663        0.227       93.013       34.572        0.138      339.664       13.151      864.305
04/22/2013  08:53:00        7.343       38.949        8.166       27.633       27.732       29.121      763.591      769.056      848.032        0.201        0.119       39.635       19.333        0.238      339.742       13.284      864.292
04/22/2013  08:54:00       22.719       -6.383       -4.976       29.490       27.970       25.152      869.657      782.320      632.640        0.143        0.114       23.599       13.500        0.327      339.648       13.126      864.270
04/22/2013  08:55:00       12.337       20.611       26.114       18.455       26.237       23.546      340.575      688.374      554.425        0.142        0.079       24.022       12.791        0.284      340.117       13.918      864.248
04/22/2013  08:56:00       27.624      151.121      -25.559       23.843       79.447       21.824      568.485     6311.806      476.281        1.580        0.368      153.625       33.814        0.048      339.475       12.833      864.240
04/22/2013  08:57:00       13.546      123.861      -21.461       35.301       28.426       14.279     1246.153      808.025      203.898        0.912        0.113      124.600       13.523        0.012      339.295       12.531      864.242
04/22/2013  08:58:00       16.863      204.468      -30.387       45.370       78.345       25.458     2058.462     6137.926      648.089        2.593        0.442      205.162       34.418        0.028      339.459       12.804      864.242
04/22/2013  08:59:00       38.558      154.707      -10.998       54.012       77.076       42.499     2917.313     5940.749     1806.204        1.810        0.533      159.440       45.632        0.082      339.766       13.322      864.253
04/22/2013  09:00:00       13.851      148.662      -10.445       59.656       65.243       36.244     3558.797     4256.615     1313.652        1.576        0.456      149.306       35.240        0.056      339.658       13.140      864.249
04/22/2013  09:01:00       76.610       90.621      -15.699       53.387       50.740       40.970     2850.223     2574.528     1678.577        1.071        0.355      118.665       20.321        0.029      339.749       13.295      864.238
04/22/2013  09:02:00       -3.304      172.911      -31.035       64.452       52.387       28.198     4154.010     2744.417      795.122        1.928        0.385      172.943       17.601        0.010      339.568       12.989      864.244
04/22/2013  09:03:00      -77.893      119.285      -26.919       57.866       77.684       27.523     3348.469     6034.829      757.490        1.558        0.507      142.464       23.730        0.028      339.474       12.830      864.244
04/22/2013  09:04:00       -1.175       32.315       -7.025       59.300       77.698       27.519     3516.477     6037.028      757.320        0.570        0.516       32.336       28.398        0.771      339.769       13.330      864.228
04/22/2013  09:05:00      -34.622      184.877      -23.040       46.997       80.698       33.109     2208.713     6512.181     1096.234        2.286        0.491      188.091       42.032        0.050      339.508       12.887      864.230
04/22/2013  09:06:00      -11.652      133.744      -11.488       36.570       69.119       32.273     1337.391     4777.391     1041.576        1.265        0.358      134.250       35.477        0.070      339.754       13.304      864.216
04/22/2013  09:07:00      -24.927       29.587       15.123       30.999       77.717       30.656      960.929     6039.978      939.791        0.483        0.397       38.687       24.296        0.394      340.075       13.846      864.184
04/22/2013  09:08:00     -127.488        1.841      -13.155       61.933       48.151       34.927     3835.646     2318.512     1219.862        1.190        0.369      127.502       28.385        0.050      339.878       13.513      864.161
04/22/2013  09:09:00      -74.814      -11.512       29.828       43.222       43.843       34.188     1868.184     1922.179     1168.832        0.579        0.248       75.694       26.451        0.122      340.041       13.789      864.145
04/22/2013  09:10:00      -99.370       29.690      -26.330       60.297       64.342       24.851     3635.738     4139.892      617.569        0.992        0.420      103.710       20.249        0.038      339.954       13.641      864.144
04/22/2013  09:11:00      -67.737       -9.832        4.637       51.474       36.840       25.727     2649.574     1357.182      661.857        0.469        0.233       68.447       18.628        0.074      339.921       13.586      864.140
04/22/2013  09:12:00      -27.755      112.221        1.094       56.728       88.955       39.331     3218.035     7913.073     1546.965        1.302        0.634      115.602       46.626        0.163      340.170       14.005      864.157
04/22/2013  09:13:00      -28.479      134.865      -18.525       29.039       55.861       29.255      843.278     3120.448      855.856        1.208        0.241      137.839       22.926        0.028      339.856       13.477      864.173
04/22/2013  09:14:00       18.716      148.578       -8.773       42.255       74.987       33.905     1785.492     5623.085     1149.567        1.553        0.428      149.752       32.970        0.048      339.697       13.206      864.195
04/22/2013  09:15:00       81.106       83.928       12.133       72.977       35.843       31.116     5325.655     1284.698      968.185        1.067        0.379      116.714       21.532        0.034      339.608       13.058      864.178
04/22/2013  09:16:00       20.296       18.186       13.698       41.869       26.350       22.635     1753.042      694.323      512.359        0.194        0.148       27.252       11.608        0.181      340.046       13.798      864.181
04/22/2013  09:17:00      -39.330       82.851        1.102      112.646       57.672       44.660    12689.073     3326.077     1994.528        1.321        0.900       91.713       40.182        0.192      340.118       13.917      864.185
04/22/2013  09:18:00      141.889      111.850       24.408      101.513       77.973       61.874    10304.968     6079.830     3828.339        2.672        1.011      180.674       18.927        0.011      340.202       14.056      864.166
04/22/2013  09:19:00       92.608      105.149       95.580       84.820       57.265       42.400     7194.353     3279.247     1797.775        2.052        0.614      140.117       45.158        0.104      340.000       13.718      864.184
04/22/2013  09:20:00       17.881       60.383       67.793       42.329       65.431       54.752     1791.738     4281.164     2997.782        0.881        0.454       62.975       49.038        0.606      340.084       13.859      864.187
04/22/2013  09:21:00       33.628       23.555       55.693       84.905       74.426       34.135     7208.807     5539.269     1165.176        0.935        0.696       41.057       33.578        0.669      340.450       14.479      864.207
04/22/2013  09:22:00      122.037       91.006       40.386       74.226       67.122       59.162     5509.495     4505.300     3500.189        1.916        0.676      152.234       23.105        0.023      340.043       13.789      864.222
04/22/2013  09:23:00       91.665       77.449       83.510       85.055       62.508       68.486     7234.376     3907.290     4690.283        1.860        0.792      120.003       56.798        0.224      340.452       14.480      864.215
04/22/2013  09:24:00      123.445      118.805       73.799       93.979       56.481       60.670     8832.052     3190.144     3680.863        2.525        0.785      171.328       59.613        0.121      340.048       13.798      864.223
04/22/2013  09:25:00      216.899      122.203        9.083      117.138       78.927       59.027    13721.329     6229.419     3484.243        4.274        1.172      248.955       25.511        0.011      339.913       13.570      864.228
04/22/2013  09:26:00      278.477      171.427       46.134       90.366       66.694       68.388     8166.104     4448.123     4676.926        6.317        0.865      327.012       51.374        0.025      339.705       13.217      864.214
04/22/2013  09:27:00      161.177      118.515       33.240       75.643       67.669       52.089     5721.867     4579.060     2713.295        2.707        0.651      200.059       14.934        0.006      339.790       13.361      864.221
04/22/2013  09:28:00      122.186       89.944       51.731       83.285       62.223       70.951     6936.351     3871.650     5034.038        2.077        0.792      151.721       61.638        0.165      340.001       13.719      864.213
04/22/2013  09:29:00      202.516       95.648       22.627       91.387       73.772       55.365     8351.667     5442.340     3065.338        3.376        0.843      223.967       35.992        0.026      340.080       13.851      864.193
04/22/2013  09:30:00      101.378      102.412       55.480       68.031       43.088       59.002     4628.207     1856.607     3481.280        1.690        0.498      144.103       48.873        0.115      340.268       14.171      864.182
04/22/2013  09:31:00       72.093      139.096      154.652       76.301      108.833       53.455     5821.804    11844.557     2857.453        3.449        1.026      156.669       61.278        0.153      339.929       13.597      864.145
04/22/2013  09:32:00       82.806      131.291       83.136       89.611       69.832       53.794     8030.144     4876.473     2893.747        2.340        0.790      155.223       32.022        0.043      339.978       13.679      864.162
04/22/2013  09:33:00       57.582       56.877       65.854       86.876       41.897       46.633     7547.386     1755.394     2174.681        1.118        0.574       80.936       31.986        0.156      340.195       14.048      864.182
04/22/2013  09:34:00       62.039       67.432       60.983       65.764       54.945       44.942     4324.896     3018.981     2019.794        1.074        0.468       91.630       33.254        0.132      340.227       14.103      864.191
04/22/2013  09:35:00       61.244       77.686       83.984       75.216       80.021       67.074     5657.427     6403.330     4498.876        1.670        0.828       98.924       58.588        0.351      340.445       14.469      864.174
04/22/2013  09:36:00      119.705      109.046       32.668       68.776       58.277       55.594     4730.199     3396.217     3090.721        1.925        0.561      161.927       47.389        0.086      340.083       13.858      864.187
04/22/2013  09:37:00      141.691       91.688       26.535       78.836       67.505       47.564     6215.111     4556.905     2262.307        2.111        0.652      168.769       42.246        0.063      339.947       13.628      864.181
04/22/2013  09:38:00       84.900       87.850       53.477       55.816       56.453       50.654     3115.396     3186.941     2565.873        1.332        0.443      122.170       29.443        0.058      340.023       13.758      864.188
04/22/2013  09:39:00      116.312       86.149       66.600       97.652       79.317       51.983     9535.918     6291.222     2702.224        2.195        0.926      144.742       34.348        0.056      339.960       13.649      864.171
04/22/2013  09:40:00      103.295       79.850       38.750       83.727       51.616       45.034     7010.285     2664.204     2028.105        1.512        0.585      130.560       23.129        0.031      340.385       14.367      864.154
04/22/2013  09:41:00       74.611       93.971       78.813       90.856       60.119       52.985     8254.835     3614.263     2807.360        1.764        0.734      119.988       36.726        0.094      340.181       14.023      864.143
04/22/2013  09:42:00      143.520       90.792       61.561      160.004       84.401       88.686    25601.317     7123.458     7865.158        3.660        2.029      169.827       91.584        0.291      340.522       14.598      864.119
04/22/2013  09:43:00      161.169      151.275        4.451       99.412       83.118       76.651     9882.663     6908.565     5875.429        3.577        1.133      221.042       59.454        0.072      340.120       13.917      864.151
04/22/2013  09:44:00       91.139      141.954       -7.509       82.655       77.516       52.020     6831.792     6008.762     2706.077        2.203        0.777      168.693       46.915        0.077      340.227       14.099      864.154
04/22/2013  09:45:00       66.862       87.659       -2.973       63.744       61.720       43.479     4063.360     3809.371     1890.429        1.096        0.488      110.248       18.904        0.029      340.554       14.655      864.161
04/22/2013  09:46:00      121.963      166.949       -7.689       82.982       59.399       48.780     6886.004     3528.261     2379.481        2.780        0.640      206.753       33.583        0.026      340.235       14.113      864.172
04/22/2013  09:47:00       49.630       91.597      -12.069       37.941       66.055       26.398     1439.545     4363.293      696.835        0.875        0.325      104.178       21.479        0.043      340.230       14.107      864.139
04/22/2013  09:48:00        6.818       55.807      -10.128       62.229       94.447       38.725     3872.409     8920.330     1499.589        0.877        0.715       56.222       38.682        0.473      340.270       14.175      864.125
04/22/2013  09:49:00     -125.819       62.826      -23.769       73.425       53.781       36.024     5391.203     2892.372     1297.748        1.496        0.479      140.632       39.723        0.080      340.471       14.515      864.095
04/22/2013  09:50:00       16.862       31.517       61.406       42.704       54.359       35.412     1823.639     2954.877     1253.991        0.554        0.302       35.744       22.266        0.388      341.008       15.423      864.078
04/22/2013  09:51:00       57.170       88.643       77.435       57.899       47.762       45.052     3352.324     2281.246     2029.653        1.239        0.383      105.480       30.861        0.086      340.799       15.069      864.079
04/22/2013  09:52:00       67.860       48.575       62.128      107.505       65.218       59.421    11557.375     4253.425     3530.823        1.508        0.967       83.453       58.142        0.485      341.019       15.439      864.080
04/22/2013  09:53:00      139.518      110.943       39.645      109.427       64.517       64.993    11974.375     4162.394     4224.099        2.685        1.018      178.252       56.015        0.099      340.608       14.744      864.074
04/22/2013  09:54:00      149.774      126.029       -3.143       73.992       69.717       53.110     5474.764     4860.437     2820.621        2.574        0.658      195.744       28.660        0.021      340.255       14.147      864.068
04/22/2013  09:55:00      222.066      123.879       28.409      103.354       87.203       60.824    10682.120     7604.335     3699.525        4.372        1.099      254.282       52.020        0.042      340.402       14.394      864.065
04/22/2013  09:56:00      240.290      152.293       15.011      108.782       85.795       64.513    11833.614     7360.703     4161.927        5.225        1.168      284.486       48.103        0.029      340.327       14.267      864.056
04/22/2013  09:57:00      142.262      107.826       33.888       83.627       52.834       56.516     6993.447     2791.484     3194.045        2.299        0.649      178.507       42.899        0.058      340.435       14.450      864.066
04/22/2013  09:58:00       81.732       76.970       -9.145       59.356       44.472       38.277     3523.154     1977.744     1465.143        0.983        0.348      112.270       23.206        0.043      340.936       15.301      864.066
04/22/2013  09:59:00        8.928      111.054       -6.505       81.689       74.205       38.678     6673.022     5506.407     1495.965        1.306        0.684      111.412       45.268        0.165      340.726       14.944      864.068
04/22/2013  10:00:00      131.677       89.592       12.749       75.138       55.786       48.797     5645.724     3112.030     2381.135        1.833        0.557      159.266       32.499        0.042      340.471       14.514      864.068
04/22/2013  10:01:00       -5.367      113.042       -6.936       57.352       44.348       32.596     3289.308     1966.764     1062.501        0.959        0.316      113.170       26.070        0.053      340.517       14.593      864.068
04/22/2013  10:02:00      184.208      109.858       27.801       71.199       48.623       46.142     5069.230     2364.154     2129.094        2.817        0.478      214.480       16.636        0.006      340.310       14.238      864.052
04/22/2013  10:03:00       87.244      106.179       70.679       55.953       39.481       50.303     3130.773     1558.773     2530.385        1.555        0.361      137.425       41.230        0.090      340.298       14.221      864.046
04/22/2013  10:04:00       34.686       55.641        1.686       36.676       30.141       29.763     1345.145      908.484      885.852        0.372        0.157       65.567       19.510        0.089      340.467       14.508      864.021
04/22/2013  10:05:00       13.866       70.040        3.322       31.827       38.345       25.124     1012.974     1470.337      631.196        0.411        0.156       71.400       19.585        0.075      340.807       15.082      864.002
04/22/2013  10:06:00      160.294       51.864       15.992       84.789       71.406       54.507     7189.171     5098.833     2971.003        2.195        0.763      168.475       43.644        0.067      340.825       15.113      863.993
04/22/2013  10:07:00      190.439      121.555       11.731       88.171       72.940       53.451     7774.192     5320.208     2856.999        3.356        0.798      225.926       41.998        0.035      340.560       14.662      863.995
04/22/2013  10:08:00      151.425       91.260       21.167      105.090       65.520       53.165    11043.811     4292.810     2826.508        2.493        0.908      176.799       44.681        0.064      340.689       14.879      863.986
04/22/2013  10:09:00      113.289      111.686       39.724       85.908       65.889       63.653     7380.142     4341.334     4051.715        2.133        0.789      159.086       50.940        0.103      340.980       15.373      863.982
04/22/2013  10:10:00      230.606      148.191       36.715       89.178       46.813       57.746     7952.685     2191.484     3334.609        4.498        0.674      274.116       44.174        0.026      340.349       14.303      863.998
04/22/2013  10:11:00      104.642      114.835        4.912       89.815       51.325       35.928     8066.760     2634.262     1290.812        1.807        0.600      155.361       29.101        0.035      340.486       14.538      863.989
04/22/2013  10:12:00      144.374      114.583       19.906       89.850       69.236       48.247     8072.975     4793.660     2327.748        2.478        0.760      184.318       38.125        0.043      340.586       14.707      863.998
04/22/2013  10:13:00       40.388      -80.047        9.560       68.938       58.186       48.786     4752.506     3385.657     2380.103        0.932        0.526       89.659       39.827        0.197      340.484       14.537      863.981
04/22/2013  10:14:00       91.195      -93.494        3.575       52.583       58.903       47.731     2764.992     3469.583     2278.268        1.279        0.426      130.605       38.132        0.085      340.726       14.945      863.966
04/22/2013  10:15:00       84.801       74.130       42.992       59.393       44.000       41.003     3527.565     1936.008     1681.205        1.084        0.357      112.634       28.901        0.066      340.856       15.166      863.967
04/22/2013  10:16:00      120.501       79.142        8.285       79.762       53.610       43.486     6362.014     2874.011     1891.040        1.599        0.556      144.166       33.088        0.053      340.653       14.823      863.963
04/22/2013  10:17:00       51.688      110.221      -12.350       70.211       69.225       36.232     4929.619     4792.032     1312.744        1.300        0.552      121.738       38.128        0.098      340.745       14.977      863.960
04/22/2013  10:18:00      100.132      163.642       -2.137       85.831       48.937       42.279     7366.991     2394.845     1787.502        2.418        0.577      191.847       37.378        0.038      340.429       14.441      863.966
04/22/2013  10:19:00       34.558        3.503       45.029       76.206       84.400       72.531     5807.298     7123.339     5260.755        1.071        0.910       34.735       50.351        2.101      340.783       15.043      863.967
04/22/2013  10:20:00       71.619     -130.468      -12.593       56.155       32.302       35.773     3153.350     1043.417     1279.715        1.389        0.274      148.832       16.182        0.012      340.500       14.564      863.972
04/22/2013  10:21:00        5.948     -103.009      -21.228       69.939       79.153       32.774     4891.420     6265.231     1074.129        1.166        0.612      103.181       44.483        0.186      340.826       15.112      863.949
04/22/2013  10:22:00        7.258      -85.502        8.666       27.595       55.751       42.734      761.496     3108.221     1826.235        0.657        0.285       85.810       34.833        0.165      340.965       15.349      863.946
04/22/2013  10:23:00        4.246       -3.257       46.684       51.504       60.514       28.872     2652.623     3661.935      833.600        0.468        0.357        5.351       18.486       11.934      341.075       15.537      863.932
04/22/2013  10:24:00       21.435       -7.808       65.036       63.874       76.751       78.102     4079.856     5890.643     6099.847        1.041        0.804       22.812       52.328        5.262      341.393       16.075      863.931
04/22/2013  10:25:00       69.919     -130.957        1.727       66.058       94.885       64.986     4363.656     9003.158     4223.174        1.981        0.879      148.453       57.755        0.151      341.271       15.866      863.927
04/22/2013  10:26:00       78.425     -206.616      -51.185       80.254       91.545       54.717     6440.722     8380.407     2993.940        3.463        0.891      220.999       29.776        0.018      340.803       15.072      863.929
04/22/2013  10:27:00       10.410     -103.108        0.687       47.909       47.720       34.139     2295.291     2277.227     1165.473        0.824        0.287      103.632       11.104        0.011      340.703       14.908      863.946
04/22/2013  10:28:00       76.446     -174.831      -35.076       84.160       92.707       58.481     7082.824     8594.615     3420.039        2.836        0.955      190.814       49.040        0.066      341.154       15.668      863.916
04/22/2013  10:29:00      136.238     -169.233      -42.054       64.677       73.958       39.388     4183.165     5469.745     1551.431        3.008        0.560      217.257       34.709        0.026      340.834       15.127      863.914
04/22/2013  10:30:00       84.761      -73.853        2.130       82.311       79.128       62.533     6775.032     6261.245     3910.345        1.479        0.847      112.422       65.552        0.340      341.234       15.803      863.936
04/22/2013  10:31:00       32.890       61.070       67.755       91.067       61.793       56.141     8293.120     3818.390     3151.778        1.233        0.763       69.363       45.132        0.423      341.351       16.004      863.941
04/22/2013  10:32:00       11.625       51.283       84.621       68.437       78.436       63.817     4683.634     6152.209     4072.558        1.241        0.745       52.584       49.566        0.889      341.315       15.942      863.976
04/22/2013  10:33:00      184.664      145.898       78.990      108.333       90.924       85.751    11736.019     8267.197     7353.307        4.449        1.368      235.344       73.916        0.099      340.918       15.266      863.965
04/22/2013  10:34:00      145.015      128.028       41.864       84.433       60.599       58.845     7128.945     3672.210     3462.741        2.672        0.713      193.444       30.686        0.025      340.915       15.263      863.987
04/22/2013  10:35:00       95.291       74.500       39.090       71.624       60.515       52.452     5129.939     3662.101     2751.229        1.385        0.577      120.957       36.720        0.092      341.361       16.020      863.985
04/22/2013  10:36:00      132.968       54.503        4.903       86.096       57.560       34.737     7412.481     3313.112     1206.655        1.630        0.597      143.705       24.916        0.030      340.922       15.275      863.996
04/22/2013  10:37:00      135.703       86.652       64.868       80.896       74.252       56.323     6544.082     5513.329     3172.243        2.268        0.761      161.009       48.519        0.091      341.193       15.734      863.984
04/22/2013  10:38:00      188.102      109.627       30.875      120.191       70.169       66.089    14445.845     4923.674     4367.700        3.604        1.187      217.717       43.365        0.040      341.043       15.479      863.988
04/22/2013  10:39:00      302.415      113.602       42.823      147.440      111.308       87.552    21738.510    12389.542     7665.369        7.398        2.090      323.048       72.143        0.050      341.178       15.707      863.965
04/22/2013  10:40:00      253.036      169.685       51.706      103.833       78.946       75.170    10781.289     6232.418     5650.570        5.907        1.133      304.664       47.310        0.024      340.971       15.357      863.982
04/22/2013  10:41:00      138.642      148.818      121.867      153.341       84.099       75.660    23513.309     7072.611     5724.421        4.626        1.816      203.392       74.544        0.134      340.949       15.321      863.989
04/22/2013  10:42:00       72.712       44.969       66.567       79.579       65.103       55.139     6332.803     4238.450     3040.277        1.267        0.681       85.494       42.721        0.250      341.078       15.541      864.022
04/22/2013  10:43:00       61.468      -38.247        3.205       66.235       53.898       39.497     4387.073     2904.962     1560.006        0.705        0.443       72.396       29.234        0.163      340.770       15.020      863.999
04/22/2013  10:44:00       41.737       49.633       47.087       56.311       40.809       35.418     3170.916     1665.337     1254.441        0.626        0.305       64.849       34.754        0.287      341.136       15.640      863.983
04/22/2013  10:45:00       -5.063      -81.079       17.116       70.895      111.559       56.269     5026.078    12445.437     3166.171        1.376        1.032       81.237       62.207        0.586      341.308       15.933      863.952
04/22/2013  10:46:00      134.135     -239.688      -24.177       89.495      104.240       57.125     8009.371    10865.957     3263.273        4.908        1.107      274.668       45.207        0.027      341.314       15.937      863.918
04/22/2013  10:47:00      132.223     -189.556      -18.680       77.645       63.149       55.081     6028.704     3987.798     3033.934        3.340        0.653      231.116       49.423        0.046      340.879       15.202      863.924
04/22/2013  10:48:00       29.519      -36.507       36.717       63.173      104.963       53.295     3990.785    11017.293     2840.385        1.070        0.892       46.949       64.014        1.859      341.383       16.059      863.929
04/22/2013  10:49:00       53.129     -130.715       -1.664       70.497       72.360       52.602     4969.888     5235.959     2766.923        1.644        0.649      141.099       39.990        0.080      341.085       15.551      863.926
04/22/2013  10:50:00       39.610      -72.448       26.464       66.631      102.346       64.522     4439.658    10474.744     4163.035        1.329        0.954       82.569       72.527        0.772      341.430       16.137      863.932
04/22/2013  10:51:00       77.729     -107.269       -8.961       67.376      103.745       47.709     4539.507    10763.042     2276.109        1.760        0.879      132.471       35.205        0.071      341.562       16.359      863.924
04/22/2013  10:52:00      110.610       51.902       82.254      111.216      123.735       81.963    12368.924    15310.417     6717.888        2.804        1.720      122.181       71.806        0.345      341.554       16.345      863.926
04/22/2013  10:53:00       57.094       77.164      118.092      101.632       98.784       85.362    10329.031     9758.330     7286.639        2.526        1.369       95.990       84.873        0.782      341.545       16.329      863.918
04/22/2013  10:54:00      152.593      185.126      144.921      121.751       93.696       93.374    14823.330     8778.847     8718.612        5.543        1.616      239.908       81.062        0.114      341.256       15.839      863.905
04/22/2013  10:55:00      152.368      168.410      152.331      110.157      108.182       94.739    12134.515    11703.278     8975.477        5.379        1.641      227.108       88.862        0.153      341.195       15.736      863.902
04/22/2013  10:56:00      166.340      197.098      182.587      128.958       98.468       91.328    16630.286     9695.882     8340.825        6.725        1.733      257.908       79.622        0.095      341.164       15.682      863.875
04/22/2013  10:57:00      202.046      179.910      113.312      152.898      112.705      113.349    23377.720    12702.522    12847.902        6.747        2.446      270.537       95.486        0.125      341.214       15.769      863.866
04/22/2013  10:58:00       73.508       92.050       95.280       83.246       56.141       57.916     6929.873     3151.835     3354.208        1.819        0.672      117.799       49.600        0.177      341.653       16.514      863.870
04/22/2013  10:59:00       85.217       19.145       51.288       81.746       83.245       59.541     6682.354     6929.671     3545.117        1.370        0.858       87.341       52.151        0.357      341.459       16.187      863.865
04/22/2013  11:00:00       61.060       71.764       93.557       74.736       74.617       64.289     5585.418     5567.749     4133.095        1.646        0.764       94.225       56.312        0.357      341.892       16.920      863.847
04/22/2013  11:01:00      138.727      104.146       36.218       90.659       58.898       59.570     8219.034     3468.936     3548.620        2.332        0.762      173.469       32.538        0.035      341.085       15.552      863.860
04/22/2013  11:02:00       73.589       73.986      102.462       85.310       79.998       59.895     7277.813     6399.748     3587.430        1.932        0.863      104.352       58.284        0.312      341.497       16.249      863.833
04/22/2013  11:03:00      175.153     -104.368       32.912      134.984      119.349       74.972    18220.732    14244.239     5620.780        4.036        1.904      203.890       87.363        0.184      341.614       16.445      863.776
04/22/2013  11:04:00       98.681      122.978      138.647      118.248      128.604      100.231    13982.482    16538.924    10046.307        4.232        2.028      157.676       95.567        0.367      341.591       16.409      863.806
04/22/2013  11:05:00      140.378       99.520       45.586      113.830       64.997       70.900    12957.237     4224.602     5026.777        2.694        1.110      172.076       48.604        0.080      341.223       15.785      863.852
04/22/2013  11:06:00       17.340       52.522      102.153       73.116      122.458       65.336     5345.986    14995.984     4268.767        1.905        1.231       55.311       58.479        1.118      341.671       16.544      863.843
04/22/2013  11:07:00      118.246      101.605       80.611      103.679       59.273       62.234    10749.268     3513.302     3873.111        2.447        0.907      155.903       50.757        0.106      341.218       15.777      863.864
04/22/2013  11:08:00      108.567      130.934       -4.074      105.081       79.773       48.371    11042.045     6363.798     2339.756        2.434        0.987      170.090       45.412        0.071      341.360       16.015      863.865
04/22/2013  11:09:00       73.991       51.455       58.408       56.705       79.106       49.073     3215.415     6257.833     2408.174        1.171        0.594       90.124       36.762        0.166      341.452       16.174      863.858
04/22/2013  11:10:00      154.948      128.738       27.614       93.141       52.307       44.765     8675.327     2736.056     2003.883        2.738        0.671      201.450       39.505        0.038      341.076       15.536      863.862
04/22/2013  11:11:00       31.675       27.021        2.604       42.815       50.909       35.667     1833.159     2591.736     1272.166        0.372        0.285       41.634       25.831        0.385      341.909       16.950      863.863
04/22/2013  11:12:00       -1.878      -34.910       11.439       40.989       47.668       27.147     1680.079     2272.204      736.970        0.302        0.234       34.960       21.571        0.381      341.726       16.638      863.847
04/22/2013  11:13:00       29.446       -7.518       28.294       50.936       88.980       36.613     2594.468     7917.456     1340.546        0.679        0.593       30.391       43.733        2.071      341.757       16.692      863.840
04/22/2013  11:14:00       69.252       13.312       41.808       89.314       82.539       50.777     7977.073     6812.723     2578.278        1.204        0.868       70.520       42.298        0.360      341.952       17.020      863.818
04/22/2013  11:15:00       30.097       42.026      103.896       99.271      103.080       73.072     9854.760    10625.552     5339.489        1.964        1.291       51.691       67.111        1.686      341.968       17.050      863.785
04/22/2013  11:16:00       50.130      112.206       83.393       85.369      100.030       64.948     7287.874    10006.046     4218.179        2.178        1.076      122.895       57.920        0.222      342.117       17.302      863.785
04/22/2013  11:17:00      -18.083      146.389       -6.269       65.640       91.979       41.414     4308.612     8460.178     1715.145        1.814        0.724      147.502       55.185        0.140      341.762       16.701      863.818
04/22/2013  11:18:00       69.941       98.421       36.361       92.790       71.256       69.894     8609.929     5077.369     4885.196        1.723        0.929      120.742       53.323        0.195      341.911       16.951      863.810
04/22/2013  11:19:00       57.440      175.818      -19.342       67.994       91.457       46.486     4623.184     8364.408     2160.976        2.486        0.757      184.963       37.972        0.042      341.706       16.602      863.829
04/22/2013  11:20:00       67.828       91.187       -6.613       56.221       54.666       38.473     3160.806     2988.415     1480.150        1.029        0.381      113.648       30.027        0.070      341.482       16.224      863.816
04/22/2013  11:21:00       30.531        6.899       19.587       46.947       70.793       30.979     2204.000     5011.609      959.681        0.477        0.409       31.301       23.325        0.555      341.478       16.219      863.764
04/22/2013  11:22:00        9.314      -52.036        8.820       45.918       50.642       32.275     2108.467     2564.591     1041.651        0.429        0.286       52.863       19.301        0.133      341.908       16.948      863.746
04/22/2013  11:23:00       44.204       96.005       -4.932       54.433       72.067       37.638     2962.913     5193.688     1416.595        1.038        0.479      105.693       37.346        0.125      342.047       17.183      863.762
04/22/2013  11:24:00        1.092      137.300      -37.333       47.041       58.691       18.430     2212.827     3444.667      339.679        1.312        0.300      137.304       23.476        0.029      341.236       15.808      863.750
04/22/2013  11:25:00      -15.947      105.835       -9.618       54.991       47.774       33.648     3024.023     2282.308     1132.221        0.899        0.322      107.030       30.918        0.083      341.612       16.447      863.735
04/22/2013  11:26:00       -6.002       98.448        0.445       73.268       73.483       45.820     5368.269     5399.706     2099.481        1.130        0.643       98.630       26.304        0.071      342.163       17.381      863.704
04/22/2013  11:27:00       19.905       15.460       68.880       70.007       79.152       47.235     4900.944     6264.974     2231.141        0.939        0.670       25.203       50.572        4.026      342.475       17.911      863.695
04/22/2013  11:28:00       84.686      -88.537        4.550       72.076       52.661       41.193     5194.894     2773.227     1696.892        1.235        0.483      122.517       21.601        0.031      341.471       16.205      863.658
04/22/2013  11:29:00      155.328      126.544       10.480       66.989       75.678       52.688     4487.593     5727.152     2776.009        2.662        0.650      200.350       39.715        0.039      341.972       17.055      863.658
04/22/2013  11:30:00      172.738      125.911       41.028       90.113       62.591       53.181     8120.418     3917.691     2828.229        3.112        0.743      213.757       34.265        0.026      342.351       17.696      863.645
04/22/2013  11:31:00       78.799      112.011      107.515      130.961       85.644       82.242    17150.680     7334.861     6763.703        3.078        1.562      136.951       61.418        0.201      342.353       17.702      863.638
04/22/2013  11:32:00      231.313      149.977       34.766      148.827       89.926       91.068    22149.338     8086.609     8293.388        5.786        1.926      275.679       80.713        0.086      341.595       16.413      863.659
04/22/2013  11:33:00      179.397      160.555       17.720       87.182       76.747       72.958     7600.679     5890.168     5322.924        3.854        0.941      240.751       50.281        0.044      341.826       16.805      863.666
04/22/2013  11:34:00       96.890       89.405       75.981       59.708       50.711       57.505     3565.097     2571.590     3306.883        1.630        0.472      131.837       12.820        0.009      341.737       16.658      863.654
04/22/2013  11:35:00      145.527      117.693       80.382      100.364       67.839       89.134    10072.987     4602.081     7944.899        3.205        1.131      187.162       72.816        0.151      341.819       16.793      863.631
04/22/2013  11:36:00       62.156       65.589       61.711       86.268       84.772       53.906     7442.210     7186.366     2905.908        1.475        0.877       90.362       26.139        0.084      342.119       17.304      863.627
04/22/2013  11:37:00      131.239       82.234       18.853       90.882       64.135       44.808     8259.572     4113.278     2007.800        1.936        0.719      154.874       24.023        0.024      341.910       16.950      863.638
04/22/2013  11:38:00      165.024      128.765       42.104      124.463       71.804       71.340    15491.112     5155.849     5089.368        3.566        1.287      209.317       48.586        0.054      342.235       17.501      863.619
04/22/2013  11:39:00      156.626      107.483       23.172      105.078       59.210       62.779    11041.412     3505.808     3941.239        2.755        0.924      189.959       25.033        0.017      341.741       16.660      863.639
04/22/2013  11:40:00      -36.988      264.587      -44.030       43.700       72.812       31.612     1909.717     5301.573      999.336        4.076        0.411      267.160       27.038        0.010      341.246       15.821      863.653
04/22/2013  11:41:00      -70.374      144.756      -36.909       26.319       28.684       28.561      692.670      822.781      815.736        1.480        0.117      160.956        8.556        0.003      341.276       15.878      863.632
04/22/2013  11:42:00      -22.360       30.904       -3.998       64.811       53.444       35.671     4200.530     2856.213     1272.418        0.490        0.416       38.145       37.165        0.949      341.871       16.886      863.618
04/22/2013  11:43:00       90.826       67.631       33.850       55.341       40.886       37.204     3062.574     1671.702     1384.160        1.004        0.306      113.240       18.992        0.028      341.735       16.655      863.610
04/22/2013  11:44:00      107.319        2.900       43.331      109.351      105.615       69.043    11957.597    11154.476     4766.991        2.064        1.394      107.358       46.774        0.190      341.836       16.824      863.569
04/22/2013  11:45:00      193.061      133.957       51.323       73.159       48.639       61.872     5352.220     2365.753     3828.105        3.470        0.577      234.983       20.654        0.008      341.740       16.660      863.560
04/22/2013  11:46:00      135.096      118.647       93.832      101.379       76.588       74.291    10277.773     5865.747     5519.150        3.139        1.083      179.800       70.164        0.152      341.796       16.754      863.551
04/22/2013  11:47:00       38.271      135.026      155.210       72.164       79.095       47.272     5207.637     6256.011     2234.621        2.874        0.685      140.345       49.587        0.125      341.810       16.779      863.539
04/22/2013  11:48:00      230.380      150.713       70.777      133.452       85.513       89.057    17809.569     7312.392     7931.163        5.692        1.653      275.299       52.718        0.037      341.687       16.569      863.515
04/22/2013  11:49:00       15.821      -23.547       34.815       72.590       85.446       65.221     5269.293     7301.036     4253.755        0.942        0.841       28.369       26.571        0.877      342.412       17.804      863.490
04/22/2013  11:50:00        6.850       24.450       92.362       46.866       89.580       53.456     2196.439     8024.642     2857.580        1.112        0.654       25.392       49.409        3.786      342.423       17.823      863.455
04/22/2013  11:51:00      124.528      101.152       48.560       41.829       50.535       48.832     1749.700     2553.761     2384.597        1.739        0.334      160.433       36.522        0.052      341.797       16.757      863.458
04/22/2013  11:52:00     -112.090       99.338      -25.724      111.468       66.511       34.991    12425.172     4423.767     1224.379        2.058        0.904      149.774       15.717        0.011      341.858       16.861      863.440
04/22/2013  11:53:00      -90.945      -44.637      -24.268       76.775       43.265       24.452     5894.408     1871.828      597.910        0.961        0.418      101.308       25.237        0.062      341.614       16.450      863.402
04/22/2013  11:54:00        0.216       17.397       31.139       43.367       52.410       30.567     1880.691     2746.859      934.352        0.342        0.278       17.399       16.485        0.898      342.759       18.394      863.396
04/22/2013  11:55:00       79.070        5.939       36.502       81.660      120.393       63.326     6668.307    14494.461     4010.240        1.639        1.259       79.292       53.893        0.462      342.158       17.371      863.371
04/22/2013  11:56:00      248.548      131.621       44.333      128.001       95.274       92.269    16384.298     9077.227     8513.650        5.751        1.699      281.248       48.215        0.029      342.050       17.186      863.368
04/22/2013  11:57:00      101.108      133.131      150.177      109.504      106.555       81.772    11991.043    11354.045     6686.640        4.026        1.502      167.173       70.309        0.177      342.053       17.191      863.356
04/22/2013  11:58:00       78.117       88.209      118.662      102.374      141.334       83.905    10480.447    19975.302     7039.987        3.272        1.875      117.827       95.015        0.650      341.788       16.742      863.369
04/22/2013  11:59:00      203.315      129.773       48.529       94.388       62.718       60.226     8909.036     3933.554     3627.180        3.850        0.823      241.201       46.088        0.037      341.716       16.620      863.389
04/22/2013  12:00:00      224.494      149.047       16.082       90.539       62.291       56.851     8197.307     3880.185     3232.080        4.409        0.765      269.467       25.479        0.009      341.597       16.417      863.376
04/22/2013  12:01:00       92.532      151.541      115.216       78.876       93.809      102.365     6221.444     8800.090    10478.619        3.515        1.275      177.558       85.999        0.235      342.021       17.137      863.342
04/22/2013  12:02:00       58.437       13.421      107.080       92.895      130.875       96.438     8629.411    17128.385     9300.239        2.505        1.753       59.958       94.540        2.486      341.879       16.896      863.334
04/22/2013  12:03:00       20.004      -57.378        7.966       43.798       92.596       51.239     1918.262     8573.984     2625.424        0.843        0.656       60.765       53.788        0.784      342.096       17.267      863.336
04/22/2013  12:04:00       75.558     -154.225      -13.138       69.394       60.747       43.217     4815.595     3690.256     1867.682        2.002        0.519      171.739       33.971        0.039      342.073       17.226      863.318
04/22/2013  12:05:00       81.454     -136.395       -1.250       53.723       72.107       38.569     2886.181     5199.365     1487.580        1.740        0.479      158.866       36.035        0.051      341.949       17.016      863.287
04/22/2013  12:06:00      154.104      -53.729       24.025      117.188      136.280       73.396    13733.091    18572.260     5387.019        3.244        1.885      163.202       71.429        0.192      342.195       17.433      863.236
04/22/2013  12:07:00       60.142       -7.891       50.358       94.227      139.341       69.477     8878.786    19415.997     4826.988        1.966        1.656       60.658       73.236        1.458      342.294       17.602      863.249
04/22/2013  12:08:00      152.736     -250.058      -25.998       50.326       89.718       32.293     2532.708     8049.363     1042.848        4.908        0.581      293.014       30.010        0.010      341.680       16.558      863.254
04/22/2013  12:09:00       18.207     -108.502       -4.377       52.731       57.457       32.543     2780.513     3301.329     1059.022        0.963        0.357      110.019       18.802        0.029      341.740       16.663      863.260
04/22/2013  12:10:00      107.637     -124.474        5.773       62.118      109.488       46.466     3858.693    11987.731     2159.134        2.256        0.900      164.559       55.358        0.113      341.872       16.886      863.212
04/22/2013  12:11:00       46.133     -132.686        1.831       60.032       77.571       57.001     3603.785     6017.268     3249.113        1.630        0.644      140.477       34.807        0.061      342.041       17.172      863.186
04/22/2013  12:12:00       69.406      -78.287        8.850       43.536       78.584       38.991     1895.426     6175.438     1520.280        1.031        0.480      104.624       28.102        0.072      341.971       17.054      863.180
04/22/2013  12:13:00       71.064     -140.049        1.733       68.049       95.357       58.238     4630.640     9092.899     3391.692        2.089        0.856      157.047       63.150        0.162      342.282       17.581      863.168
04/22/2013  12:14:00       35.554      -23.653       73.463       69.362      106.624       69.748     4811.129    11368.699     4864.819        1.413        1.052       42.703       82.178        3.703      342.535       18.012      863.126
04/22/2013  12:15:00      223.531     -251.681      -34.875      135.696      139.884       75.379    18413.340    19567.483     5681.920        7.909        2.183      336.615       71.917        0.046      342.084       17.244      863.065
04/22/2013  12:16:00       92.166      -47.340       85.486      134.601      205.015      101.483    18117.334    42030.949    10298.821        4.423        3.522      103.613      120.957        1.363      342.327       17.658      863.048
04/22/2013  12:17:00       91.301      -18.686       30.868       59.787      103.603       51.392     3574.545    10733.558     2641.166        1.329        0.847       93.194       53.879        0.334      341.911       16.953      863.056
04/22/2013  12:18:00       51.790      -33.177       40.390       65.142      107.275       49.075     4243.533    11507.978     2408.340        1.178        0.908       61.506       48.206        0.614      342.392       17.770      863.036
04/22/2013  12:19:00       67.842       81.762      116.237       97.072      115.299       70.254     9422.895    13293.922     4935.618        2.622        1.383      106.243       72.994        0.472      342.775       18.419      863.022
04/22/2013  12:20:00      128.553      170.327      154.108      124.755      112.612       94.159    15563.727    12681.433     8865.886        5.319        1.856      213.394       85.212        0.159      341.836       16.821      862.995
04/22/2013  12:21:00      120.021      131.182      108.948      116.518       83.350       79.574    13576.540     6947.162     6332.014        3.516        1.343      177.803       81.327        0.209      341.717       16.620      863.022
04/22/2013  12:22:00       40.911       82.432      118.175       68.809       80.690       57.498     4734.746     6510.798     3306.001        1.849        0.728       92.025       53.445        0.337      342.216       17.470      863.015
04/22/2013  12:23:00       94.990      129.308      126.900      109.499      107.934       91.272    11989.982    11649.790     8330.576        3.690        1.599      160.448       92.983        0.336      342.050       17.187      863.021
04/22/2013  12:24:00      209.782      143.721       20.970      140.801       90.253       64.091    19824.865     8145.638     4107.623        4.858        1.604      254.291       30.832        0.015      342.400       17.780      863.030
04/22/2013  12:25:00      112.472      127.319       34.651      106.370      111.361       79.851    11314.631    12401.334     6376.150        3.007        1.505      169.882       65.069        0.147      342.927       18.678      863.003
04/22/2013  12:26:00      169.867      166.701       15.814      135.844      107.331       89.049    18453.515    11519.997     7929.718        4.739        1.895      238.000       70.365        0.087      342.618       18.152      862.989
04/22/2013  12:27:00      132.582      117.591       24.429      152.855       99.137       60.464    23364.610     9828.183     3655.896        3.442        1.842      177.216       37.756        0.045      342.929       18.682      862.969
04/22/2013  12:28:00       99.093      282.284      -25.678      125.394      127.790       85.449    15723.654    16330.223     7301.592        6.475        1.968      299.172       67.317        0.051      342.238       17.504      862.987
04/22/2013  12:29:00      113.097      237.026      -29.758       93.858      143.197       74.168     8809.309    20505.360     5500.883        5.233        1.741      262.626       74.904        0.081      342.128       17.318      862.998
04/22/2013  12:30:00      200.017      144.959       16.322       89.276       71.703       62.185     7970.119     5141.291     3866.948        3.913        0.849      247.022       40.193        0.026      342.136       17.331      862.966
04/22/2013  12:31:00       39.256      178.300      -20.085       93.755       84.131       42.548     8790.031     7078.007     1810.348        2.570        0.884      182.570       39.439        0.047      342.118       17.302      862.940
04/22/2013  12:32:00     -103.748      146.582       -0.098       87.109       74.420       60.902     7588.001     5538.310     3709.035        2.454        0.842      179.583       55.983        0.097      342.456       17.876      862.917
04/22/2013  12:33:00     -133.243      163.895      -21.943       80.765       73.310       50.413     6522.990     5374.311     2541.463        2.976        0.722      211.223       53.789        0.065      342.266       17.554      862.875
04/22/2013  12:34:00      -75.939       89.824        3.362       69.317       65.944       43.218     4804.883     4348.648     1867.825        1.243        0.551      117.623       41.318        0.123      342.467       17.898      862.847
04/22/2013  12:35:00      129.024      105.517       22.333      108.895       75.363       53.963    11858.225     5679.642     2911.962        2.436        1.022      166.677       34.592        0.043      342.266       17.554      862.824
04/22/2013  12:36:00      141.150      143.563       64.240       91.918       74.366       73.219     8448.924     5530.250     5361.051        3.200        0.967      201.330       56.279        0.078      342.397       17.776      862.798
04/22/2013  12:37:00      271.252      150.454       53.215       81.723       57.930       63.670     6678.610     3355.888     4053.828        5.656        0.704      310.184       31.872        0.011      342.079       17.235      862.778
04/22/2013  12:38:00      170.610       94.083       58.671      117.662       78.903       67.705    13844.399     6225.735     4583.983        3.302        1.233      194.831       55.045        0.080      342.609       18.137      862.750
04/22/2013  12:39:00       76.557      145.447        3.354      102.055      103.096       55.528    10415.167    10628.849     3083.385        2.557        1.206      164.365       60.083        0.134      342.672       18.244      862.780
04/22/2013  12:40:00      -25.105      352.272      -46.647       65.768       84.592       42.790     4325.396     7155.829     1831.000        7.010        0.666      353.166       34.734        0.010      342.233       17.497      862.780
04/22/2013  12:41:00      -31.268      368.511      -45.112       48.729      100.483       29.759     2374.482    10096.866      885.605        7.608        0.668      369.836       35.321        0.009      341.813       16.781      862.762
04/22/2013  12:42:00       17.480      313.656      -28.286       96.803      116.318       66.602     9370.814    13529.787     4435.800        6.341        1.367      314.143       67.972        0.047      342.284       17.583      862.758
04/22/2013  12:43:00      129.335      120.024       23.649       67.237       66.457       57.721     4520.849     4416.530     3331.670        2.198        0.613      176.446       42.801        0.059      342.233       17.498      862.754
04/22/2013  12:44:00       70.542       95.754       14.494       69.432      115.642       53.607     4820.867    13373.052     2873.756        1.771        1.053      118.933       42.923        0.130      342.444       17.856      862.704
04/22/2013  12:45:00       85.218       89.916        5.598       68.682       88.236       47.483     4717.281     7785.611     2254.636        1.506        0.738      123.883       43.486        0.123      342.582       18.091      862.663
04/22/2013  12:46:00       87.529       24.028       -4.123       87.218       65.065       30.813     7607.045     4233.484      949.455        1.052        0.639       90.767       18.252        0.040      342.438       17.847      862.662
04/22/2013  12:47:00        9.526      127.862      -14.987       84.640      124.112       32.950     7163.957    15403.840     1085.734        2.015        1.183      128.216       50.692        0.156      342.625       18.163      862.696
04/22/2013  12:48:00     -197.914      235.187      -46.440      106.611      100.760       60.161    11365.976    10152.527     3619.307        6.088        1.257      307.381       54.888        0.032      342.277       17.570      862.671
04/22/2013  12:49:00      -56.984      319.406      -40.176       65.943      101.515       47.770     4348.422    10305.340     2281.943        6.191        0.847      324.449       42.203        0.017      342.273       17.563      862.690
04/22/2013  12:50:00      105.093      182.074       -2.145      140.315       91.588       65.851    19688.161     8388.404     4336.380        3.830        1.621      210.228       56.820        0.073      342.411       17.801      862.672
04/22/2013  12:51:00      209.257      119.364       12.669       93.832       55.624       59.785     8804.354     3094.033     3574.279        3.683        0.774      240.907       38.040        0.025      342.150       17.354      862.617
04/22/2013  12:52:00       83.145       96.337        8.425       72.368       50.739       39.017     5237.151     2574.402     1522.357        1.280        0.467      127.255       25.514        0.040      342.364       17.722      862.601
04/22/2013  12:53:00       40.858      120.176       17.451       79.193       72.012       52.682     6271.509     5185.776     2775.400        1.532        0.712      126.932       45.073        0.126      342.723       18.333      862.551
04/22/2013  12:54:00      -97.083      284.979      -31.374       74.220       97.997       59.429     5508.579     9603.318     3531.813        5.513        0.932      301.062       50.901        0.029      342.794       18.449      862.507
04/22/2013  12:55:00       -2.573      161.856       61.192      255.145      140.131      116.474    65098.909    19636.694    13566.130        6.410        4.915      161.876      122.972        0.577      342.785       18.434      862.469
04/22/2013  12:56:00      183.735      131.084      113.633      107.274      107.765       78.299    11507.734    11613.373     6130.656        4.655        1.463      225.702       66.939        0.088      342.704       18.296      862.447
04/22/2013  12:57:00      250.439      184.849       73.277      158.212       86.789      104.638    25031.028     7532.274    10949.018        7.288        2.176      311.270      100.831        0.105      342.482       17.918      862.441
04/22/2013  12:58:00      127.449      130.353       23.239       70.776       54.708       72.261     5009.180     2992.953     5221.687        2.350        0.661      182.305       50.270        0.076      342.434       17.840      862.463
04/22/2013  12:59:00      189.351       80.932       67.663      123.225       93.373       69.727    15184.458     8718.554     4861.799        3.787        1.438      205.922       48.455        0.055      342.741       18.360      862.432
04/22/2013  13:00:00      163.106      127.442       11.181       97.566       84.819       65.982     9519.131     7194.269     4353.677        3.201        1.053      206.990       28.577        0.019      342.475       17.907      862.442
04/22/2013  13:01:00      -37.139      153.521       -7.491      101.257       98.690       58.371    10252.965     9739.784     3407.218        2.420        1.170      157.950       58.152        0.136      342.671       18.242      862.413
04/22/2013  13:02:00       50.895      243.434      -12.540      124.309      155.890       70.328    15452.717    24301.697     4945.979        5.334        2.235      248.697       68.064        0.075      342.781       18.427      862.386
04/22/2013  13:03:00      109.197      272.568      -24.093      107.532      140.593       89.531    11563.129    19766.515     8015.790        6.306        1.967      293.628       86.044        0.086      342.745       18.366      862.404
04/22/2013  13:04:00      123.660      263.645      -21.357      138.355      124.324       89.456    19142.120    15456.465     8002.324        6.392        2.130      291.205       75.093        0.066      342.571       18.072      862.384
04/22/2013  13:05:00      132.268      241.856      -13.820      115.374      132.920       95.540    13311.160    17667.806     9127.843        5.814        2.005      275.662       82.976        0.091      342.332       17.664      862.405
04/22/2013  13:06:00       82.538      137.032       10.741       76.105      103.378       73.780     5792.021    10686.940     5443.523        2.381        1.096      159.970       69.190        0.187      342.425       17.823      862.413
04/22/2013  13:07:00       58.489      236.774      -29.262       60.148      106.977       54.821     3617.754    11444.124     3005.342        3.920        0.903      243.891       62.305        0.065      342.191       17.425      862.398
04/22/2013  13:08:00       91.812       91.943       -0.289       57.309       66.110       55.893     3284.322     4370.557     3124.061        1.383        0.539      129.935       44.602        0.118      342.322       17.650      862.378
04/22/2013  13:09:00       77.760       67.957       18.829       43.936       41.055       34.050     1930.410     1685.515     1159.431        0.790        0.239      103.270       23.561        0.052      342.152       17.361      862.338
04/22/2013  13:10:00       63.015       41.819       25.275       29.392       29.126       26.439      863.892      848.329      698.998        0.438        0.121       75.629       12.651        0.028      342.123       17.313      862.307
04/22/2013  13:11:00      131.690       71.755       29.569       79.250       58.058       53.210     6280.526     3370.754     2831.271        1.792        0.624      149.970       34.502        0.053      342.317       17.640      862.285
04/22/2013  13:12:00       21.127       78.213       26.202       72.192       60.270       38.929     5211.640     3632.519     1515.454        0.880        0.518       81.016       36.552        0.204      343.010       18.821      862.289
04/22/2013  13:13:00      151.021      105.003       20.999      108.912       73.793       58.060    11861.724     5445.345     3370.939        2.747        1.034      183.937       30.741        0.028      342.652       18.210      862.266
04/22/2013  13:14:00      161.775      150.642       -4.850      104.137       57.321       43.202    10844.541     3285.684     1866.380        3.244        0.800      221.052       23.826        0.012      342.147       17.353      862.274
04/22/2013  13:15:00       32.489       46.412      -23.446       48.321       49.669       23.309     2334.907     2466.983      543.319        0.455        0.267       56.653       24.614        0.189      342.097       17.268      862.273
04/22/2013  13:16:00       17.450       -1.105       25.697       36.606       42.620       38.572     1340.018     1816.431     1487.765        0.280        0.232       17.485       34.010        3.783      342.834       18.520      862.226
04/22/2013  13:17:00        8.611       16.565        8.890       27.385       21.572       23.538      749.962      465.344      554.038        0.110        0.088       18.670       13.226        0.502      342.800       18.463      862.228
04/22/2013  13:18:00      130.147      123.228       24.298       83.640       87.981       61.920     6995.617     7740.664     3834.090        2.564        0.929      179.230       49.634        0.077      342.613       18.143      862.222
04/22/2013  13:19:00       18.899      103.007      -21.267       63.255       69.904       36.121     4001.210     4886.509     1304.746        1.080        0.510      104.727       46.885        0.200      342.302       17.616      862.207
04/22/2013  13:20:00     -267.191       90.808      -52.447       99.630      111.832       35.247     9926.187    12506.312     1242.325        5.303        1.184      282.200       43.959        0.024      342.194       17.430      862.144
04/22/2013  13:21:00     -305.542      -97.465      -43.947       93.634       87.464       54.099     8767.394     7649.935     2926.684        6.206        0.967      320.711       38.988        0.015      342.316       17.638      862.103
04/22/2013  13:22:00     -103.511       70.596      -25.395      102.936       78.289       51.709    10595.857     6129.139     2673.857        1.787        0.970      125.293       41.943        0.112      342.449       17.865      862.081
04/22/2013  13:23:00       23.329       56.722       41.894       71.072       41.341       48.584     5051.212     1709.082     2360.384        0.732        0.456       61.332       15.711        0.066      342.930       18.684      862.092
04/22/2013  13:24:00      115.737       89.060       48.232      122.789      106.465       87.400    15077.236    11334.860     7638.753        2.884        1.703      146.037       64.774        0.197      343.040       18.870      862.059
04/22/2013  13:25:00      125.826      141.676       72.655      120.461       87.806       88.318    14510.866     7709.914     7800.055        3.560        1.501      189.485       66.647        0.124      343.236       19.203      862.073
04/22/2013  13:26:00       86.311       11.500       30.222       75.034       90.187       56.847     5630.044     8133.660     3231.542        1.274        0.850       87.074       36.918        0.180      342.752       18.380      862.125
04/22/2013  13:27:00       40.075       -7.660       34.085       43.696       35.377       35.099     1909.343     1251.533     1231.969        0.361        0.220       40.801       28.735        0.496      342.544       18.028      862.097
04/22/2013  13:28:00       15.182       50.018        8.217       65.489       56.875       43.653     4288.795     3234.714     1905.593        0.611        0.471       52.271       42.682        0.667      342.533       18.010      862.084
04/22/2013  13:29:00       58.813       32.461       11.209       57.883       51.536       32.845     3350.443     2656.004     1078.824        0.586        0.354       67.177       22.211        0.109      342.450       17.867      862.048
04/22/2013  13:30:00        0.375      -22.196       14.963       37.458       53.708       30.226     1403.132     2884.508      913.604        0.296        0.260       22.199       20.783        0.877      343.067       18.917      862.011
04/22/2013  13:31:00      149.072      106.220       13.928       85.513       73.569       47.236     7312.403     5412.397     2231.232        2.432        0.748      183.044       29.696        0.026      342.593       18.110      862.018
04/22/2013  13:32:00       68.406      -42.931       21.764       62.644       70.700       40.835     3924.281     4998.497     1667.472        0.879        0.530       80.762       23.498        0.085      342.434       17.841      862.004
04/22/2013  13:33:00        1.691       -4.696       28.334       40.355       48.988       28.466     1628.489     2399.777      810.302        0.283        0.242        4.991       21.449       18.466      342.880       18.598      862.000
04/22/2013  13:34:00      105.720       94.072       60.571       91.540       68.844       56.770     8379.639     4739.550     3222.797        2.002        0.817      141.514       47.899        0.115      343.007       18.813      861.987
04/22/2013  13:35:00       83.777       95.408       89.712       48.785       40.477       32.665     2379.966     1638.416     1066.975        1.463        0.254      126.970       15.664        0.015      342.773       18.418      861.981
04/22/2013  13:36:00       28.298       62.894       77.465       55.177       72.662       42.299     3044.508     5279.804     1789.219        1.043        0.506       68.966       41.226        0.357      343.197       19.138      861.989
04/22/2013  13:37:00      274.775      194.013       23.057      113.591       99.888       70.928    12902.919     9977.673     5030.826        7.079        1.396      336.367       58.547        0.030      342.765       18.401      861.974
04/22/2013  13:38:00      242.592      142.212       51.239      107.125       89.616       58.865    11475.798     8030.968     3465.089        5.233        1.149      281.203       37.181        0.017      342.797       18.455      861.971
04/22/2013  13:39:00      133.581      146.692       10.311      105.658       72.478       53.163    11163.596     5253.112     2826.319        2.935        0.962      198.399       46.593        0.055      343.106       18.980      861.975
04/22/2013  13:40:00       36.060      254.885      -19.776       87.472      157.561       71.791     7651.379    24825.456     5153.893        5.214        1.882      257.423       85.171        0.109      342.934       18.689      861.976
04/22/2013  13:41:00        5.003      224.194      -20.250       95.308      132.211       62.234     9083.676    17479.749     3873.084        4.056        1.522      224.250       70.762        0.100      342.859       18.561      861.970
04/22/2013  13:42:00      -48.405      220.729      -17.092       85.204      112.756       60.830     7259.792    12713.867     3700.305        3.751        1.184      225.974       66.292        0.086      342.910       18.648      861.961
04/22/2013  13:43:00      -49.270      293.240      -24.196       74.803      139.820       63.953     5595.546    19549.684     4089.951        5.911        1.462      297.351       74.584        0.063      342.940       18.700      861.949
04/22/2013  13:44:00        6.615      316.324      -35.774       77.835      134.212       62.473     6058.301    18012.769     3902.888        6.467        1.399      316.393       69.712        0.049      342.896       18.623      861.934
04/22/2013  13:45:00      -34.273      370.240      -40.153       44.218       65.810       31.734     1955.243     4330.995     1007.047        7.358        0.365      371.823       26.080        0.005      342.309       17.627      861.954
04/22/2013  13:46:00      -77.133      168.358      -15.126       90.492       97.124       58.195     8188.734     9432.985     3386.610        2.776        1.050      185.187       56.547        0.093      342.832       18.517      861.926
04/22/2013  13:47:00      -15.553      164.215       10.698       70.243      107.848       61.013     4934.056    11631.100     3722.553        2.380        1.014      164.950       60.550        0.135      343.131       19.026      861.914
04/22/2013  13:48:00      -16.520       46.836       21.382       39.178       50.914       46.452     1534.881     2592.204     2157.744        0.460        0.314       49.664       36.933        0.553      343.197       19.140      861.927
04/22/2013  13:49:00     -128.522       77.787       -9.154       82.480       58.952       45.530     6802.953     3475.297     2073.009        1.750        0.618      150.229       47.865        0.102      342.978       18.765      861.908
04/22/2013  13:50:00       15.072      250.013      -16.500       43.427       94.862       50.405     1885.874     8998.796     2540.614        3.821        0.671      250.467       52.295        0.044      342.812       18.482      861.900
04/22/2013  13:51:00      -66.450      141.822       -7.328       51.103      104.666       45.530     2611.500    10954.890     2073.016        2.011        0.782      156.618       45.610        0.085      343.216       19.169      861.899
04/22/2013  13:52:00       -4.940      239.565      -17.524       41.221       95.996       40.960     1699.157     9215.179     1677.725        3.515        0.630      239.616       40.333        0.028      342.793       18.448      861.899
04/22/2013  13:53:00      -23.194      130.898       -5.913       48.142       84.390       47.926     2317.608     7121.729     2296.859        1.472        0.587      132.937       56.469        0.180      343.414       19.509      861.902
04/22/2013  13:54:00      -43.255      169.631      -32.435       86.979      109.191       55.543     7565.292    11922.606     3085.020        2.713        1.129      175.059       60.645        0.120      342.881       18.600      861.884
04/22/2013  13:55:00      -87.097      186.884       -9.697       83.355      133.413       62.915     6948.036    17799.143     3958.278        3.565        1.435      206.184       70.131        0.116      343.213       19.163      861.854
04/22/2013  13:56:00     -113.488      136.198      -25.215       69.290       73.968       42.120     4801.096     5471.245     1774.126        2.205        0.602      177.283       40.760        0.053      342.983       18.772      861.850
04/22/2013  13:57:00       62.560      100.055       26.482       83.728       68.363       45.953     7010.428     4673.556     2111.665        1.421        0.690      118.003       39.661        0.113      343.205       19.152      861.868
04/22/2013  13:58:00       62.277       38.779       14.558       76.713       65.360       44.880     5884.906     4271.970     2014.225        0.888        0.609       73.364       19.168        0.068      343.025       18.845      861.849
04/22/2013  13:59:00       43.936       94.622      114.144       62.500       91.437       77.426     3906.248     8360.802     5994.821        2.108        0.913      104.325       72.843        0.488      342.958       18.732      861.828
04/22/2013  14:00:00       40.367      -93.261        8.895       51.245       63.476       32.294     2626.026     4029.209     1042.921        0.905        0.385      101.622       38.121        0.141      342.943       18.707      861.793
04/22/2013  14:01:00       21.891     -110.655       10.639       47.233       88.663       45.919     2230.909     7861.166     2108.548        1.252        0.610      112.799       35.845        0.101      343.379       19.449      861.749
04/22/2013  14:02:00       69.128       35.683       62.802       83.610       79.383       65.790     6990.618     6301.672     4328.365        1.380        0.881       77.794       58.377        0.563      343.650       19.911      861.713
04/22/2013  14:03:00      124.525       78.312       74.931      143.218      119.979       83.025    20511.456    14394.871     6893.195        3.452        2.090      147.103       64.274        0.191      343.685       19.969      861.659
04/22/2013  14:04:00       37.707      360.457      -38.883      131.754      132.828       81.784    17359.168    17643.271     6688.571        8.727        2.085      362.424       81.713        0.051      343.341       19.381      861.686
04/22/2013  14:05:00      -90.458      140.564       -2.473       83.322       72.835       48.211     6942.566     5304.918     2324.318        2.126        0.729      167.155       47.185        0.080      343.541       19.724      861.736
04/22/2013  14:06:00      -52.087      178.566      -12.429       55.677      101.151       42.046     3099.948    10231.465     1767.881        2.492        0.755      186.008       50.542        0.074      343.262       19.249      861.741
04/22/2013  14:07:00      149.438      178.098        8.522      158.039      146.381       79.965    24976.175    21427.313     6394.347        5.345        2.640      232.488       68.434        0.087      343.229       19.191      861.725
04/22/2013  14:08:00       38.401      146.990       -3.505       58.243       72.635       53.383     3392.284     5275.825     2849.735        1.730        0.576      151.923       45.371        0.089      343.326       19.357      861.750
04/22/2013  14:09:00       76.833       76.362       13.215       88.814       59.472       41.951     7888.007     3536.895     1759.895        1.254        0.659      108.325       33.179        0.094      343.448       19.566      861.739
04/22/2013  14:10:00       17.644       87.758      -10.927       76.093       61.284       36.864     5790.180     3755.685     1358.958        0.952        0.545       89.514       35.649        0.159      343.590       19.809      861.743
04/22/2013  14:11:00       -0.668      128.227       11.004       81.910      100.198       60.444     6709.193    10039.738     3653.485        1.848        1.020      128.229       42.582        0.110      343.732       20.049      861.721
04/22/2013  14:12:00      -50.156      197.437      -17.715       75.038       63.814       44.927     5630.760     4072.284     2018.391        2.676        0.586      203.708       37.966        0.035      342.896       18.624      861.730
04/22/2013  14:13:00      -31.041       87.725      -15.700       54.529       79.488       39.531     2973.387     6318.273     1562.722        0.988        0.543       93.055       46.617        0.251      342.950       18.718      861.712
04/22/2013  14:14:00       51.627       45.785       60.386       63.741       61.260       54.016     4062.922     3752.837     2917.688        0.957        0.537       69.005       48.644        0.497      343.259       19.245      861.707
04/22/2013  14:15:00       37.209       34.198       35.905       80.344       76.266       49.449     6455.193     5816.517     2445.233        0.928        0.736       50.538       37.499        0.551      343.446       19.563      861.688
04/22/2013  14:16:00      181.613      151.303        3.550      105.838       79.830       56.422    11201.738     6372.879     3183.410        3.832        1.038      236.381       39.557        0.028      343.098       18.969      861.713
04/22/2013  14:17:00      217.602      124.879       30.230       92.092       80.146       64.418     8480.975     6423.398     4149.740        4.145        0.953      250.889       52.497        0.044      343.021       18.836      861.682
04/22/2013  14:18:00      270.580      197.161       26.313      105.837       86.991       72.230    11201.534     7567.376     5217.167        6.838        1.199      334.792       59.858        0.032      343.100       18.969      861.674
04/22/2013  14:19:00      188.638      130.834       25.282      136.038      111.547       79.797    18506.404    12442.673     6367.556        4.532        1.866      229.568       65.165        0.081      343.288       19.291      861.670
04/22/2013  14:20:00        0.101       87.911       -4.518       82.221       64.512       41.512     6760.349     4161.834     1723.212        1.019        0.632       87.911       31.696        0.130      343.480       19.622      861.697
04/22/2013  14:21:00      -21.820       66.534        9.941       86.801       90.720       42.132     7534.416     8230.093     1775.064        1.127        0.877       70.021       33.618        0.231      343.729       20.046      861.701
04/22/2013  14:22:00        7.251      130.413       23.014       56.247       83.294       65.589     3163.756     6937.870     4301.952        1.599        0.720      130.615       59.198        0.205      343.816       20.194      861.707
04/22/2013  14:23:00       40.718       39.657       30.930       64.659       53.177       42.949     4180.831     2827.773     1844.607        0.652        0.443       56.839       38.527        0.459      343.696       19.989      861.699
04/22/2013  14:24:00       24.450       93.433        4.983       40.942       75.916       41.139     1676.253     5763.278     1692.433        0.924        0.457       96.579       42.811        0.196      343.363       19.422      861.702
04/22/2013  14:25:00      185.120      137.997       22.912      131.700      105.016       81.564    17344.923    11028.353     6652.653        4.442        1.751      230.895       55.329        0.057      343.083       18.942      861.657
04/22/2013  14:26:00       49.814      294.215      -24.745      152.938      163.787       77.552    23390.007    26826.310     6014.316        7.293        2.812      298.402       90.885        0.093      343.178       19.104      861.635
04/22/2013  14:27:00       25.806      241.640      -33.427       69.424      111.770       48.970     4819.751    12492.523     2398.029        3.994        0.986      243.014       54.650        0.051      343.137       19.033      861.670
04/22/2013  14:28:00       35.197       95.346       10.075       66.308       55.174       36.612     4396.707     3044.136     1340.410        0.960        0.439      101.635       26.065        0.066      343.583       19.796      861.656
04/22/2013  14:29:00       80.098       92.616       13.628      100.598       77.481       53.644    10119.927     6003.282     2877.690        1.709        0.950      122.447       35.041        0.082      343.551       19.741      861.672
04/22/2013  14:30:00      160.591      144.304       12.518      119.156       89.372       71.550    14198.169     7987.282     5119.459        3.703        1.365      215.901       42.369        0.039      343.208       19.156      861.671
04/22/2013  14:31:00       66.015      248.575      -17.695       82.177      148.727       76.893     6753.075    22119.730     5912.460        5.062        1.739      257.191       87.934        0.117      343.141       19.041      861.669
04/22/2013  14:32:00       31.440      242.585      -26.041       69.679      121.356       54.222     4855.102    14727.214     2939.978        4.151        1.126      244.614       65.769        0.072      343.249       19.225      861.668
04/22/2013  14:33:00       54.512      259.947      -45.826       84.141      125.096       69.312     7079.708    15649.131     4804.203        5.008        1.377      265.601       62.950        0.056      342.982       18.770      861.689
04/22/2013  14:34:00      286.146      148.581       49.932      144.624       81.773       85.772    20916.213     6686.867     7356.768        7.070        1.748      322.422       46.093        0.020      343.117       19.000      861.646
04/22/2013  14:35:00      171.445      124.732       29.968      115.171       72.001       58.478    13264.402     5184.180     3419.647        3.385        1.093      212.018       21.787        0.011      342.995       18.793      861.660
04/22/2013  14:36:00      183.787      129.271       17.361       93.974       85.852       58.384     8831.055     7370.611     3408.660        3.520        0.981      224.697       39.368        0.031      343.084       18.944      861.654
04/22/2013  14:37:00      236.652      140.811       37.066      143.155       81.507       64.843    20493.269     6643.403     4204.633        5.427        1.567      275.376       42.190        0.023      343.115       18.996      861.620
04/22/2013  14:38:00       31.365        9.903       21.333       54.280       42.369       30.334     2946.328     1795.132      920.132        0.360        0.283       32.891        9.958        0.092      343.460       19.587      861.611
04/22/2013  14:39:00       16.041       -5.982        5.907       18.695       44.822       19.954      349.493     2008.991      398.160        0.154        0.138       17.120        7.259        0.180      343.375       19.443      861.602
04/22/2013  14:40:00      168.548       87.222       13.709      101.472       78.031       59.081    10296.537     6088.899     3490.601        2.804        0.994      189.779       22.698        0.014      343.408       19.495      861.604
04/22/2013  14:41:00      207.445      104.517       28.829      183.517      118.946       84.269    33678.497    14148.181     7101.339        5.485        2.746      232.287       65.752        0.080      343.526       19.698      861.575
04/22/2013  14:42:00      210.015      163.107       15.193      139.671      108.797       94.881    19507.861    11836.832     9002.388        5.564        2.017      265.914       50.742        0.036      343.314       19.336      861.579
04/22/2013  14:43:00      272.667      263.672       17.576      160.126       95.065       81.735    25640.298     9037.376     6680.590        9.276        2.068      379.302       58.968        0.024      343.046       18.878      861.572
04/22/2013  14:44:00      137.813      332.572      -21.593      169.726      190.452      122.740    28807.031    36271.985    15065.119       10.509        4.007      359.995      120.371        0.112      343.344       19.385      861.569
04/22/2013  14:45:00      115.371      378.689      -31.088      141.331      180.482      124.764    19974.484    32573.662    15566.124       11.288        3.406      395.873      125.594        0.101      343.056       18.895      861.630
04/22/2013  14:46:00       62.953      191.013       -4.193      119.603      132.155       90.889    14304.960    17464.855     8260.789        4.024        2.002      201.120       90.061        0.201      343.345       19.389      861.659
04/22/2013  14:47:00       96.080      302.196      -31.064       95.161      153.822       93.216     9055.598    23661.062     8689.286        7.145        2.070      317.103       89.486        0.080      343.012       18.821      861.685
04/22/2013  14:48:00      102.419      220.817      -19.063      104.019      132.350       69.909    10820.056    17516.494     4887.250        4.641        1.661      243.413       68.538        0.079      342.982       18.772      861.703
04/22/2013  14:49:00      158.855      136.376       13.558      107.966       74.107       61.930    11656.561     5491.807     3835.377        3.250        1.049      209.364       38.801        0.034      343.217       19.169      861.657
04/22/2013  14:50:00      196.902      120.692       17.767      142.350       76.888       77.403    20263.634     5911.826     5991.247        4.290        1.608      230.948       54.227        0.055      343.248       19.224      861.616
04/22/2013  14:51:00      277.572      182.868       28.980      147.045      119.656       87.945    21622.107    14317.582     7734.272        7.749        2.184      332.395       53.761        0.026      343.368       19.426      861.580
04/22/2013  14:52:00      187.338      174.423        5.575      137.249      119.638       91.265    18837.177    14313.218     8329.389        5.351        2.074      255.966       72.162        0.079      343.420       19.516      861.587
04/22/2013  14:53:00      286.371      184.673       53.153      184.147      118.755       88.560    33910.206    14102.684     7842.857        8.739        2.793      340.753       48.595        0.020      343.364       19.420      861.593
04/22/2013  14:54:00      352.374      186.427       90.859      173.003      120.005       91.842    29930.105    14401.263     8434.889       10.996        2.638      398.650       37.301        0.009      343.297       19.306      861.544
04/22/2013  14:55:00      372.028      207.203       57.493      182.937      161.794      106.035    33465.823    26177.407    11243.497       12.775        3.544      425.838       68.417        0.026      343.232       19.197      861.514
04/22/2013  14:56:00      323.938      174.314      134.613      195.239      149.432      145.397    38118.330    22329.884    21140.204       11.750        4.079      367.860      124.100        0.114      343.118       19.001      861.490
04/22/2013  14:57:00      176.309      173.399      116.618      146.880       84.452       96.386    21573.672     7132.112     9290.205        5.637        1.900      247.289       87.891        0.126      343.193       19.129      861.484
04/22/2013  14:58:00      280.827      223.993       12.974      160.413      130.285      112.212    25732.243    16974.076    12591.481        9.224        2.765      359.217       65.446        0.033      343.245       19.217      861.514
04/22/2013  14:59:00      196.036      151.256       34.334      174.014      101.246       72.864    30280.965    10250.823     5309.131        5.415        2.292      247.605       56.599        0.052      343.406       19.494      861.519
04/22/2013  15:00:00      237.072      181.473       41.466      238.741      150.025       71.760    56997.289    22507.375     5149.554        8.774        4.233      298.555       39.086        0.017      343.646       19.903      861.525
04/22/2013  15:01:00      315.685      197.779       60.048      140.969      103.933      101.259    19872.179    10802.153    10253.312        9.165        2.046      372.523       47.623        0.016      343.099       18.970      861.527
04/22/2013  15:02:00      385.669      248.678       74.779      163.911      127.959       93.115    26866.766    16373.433     8670.470       13.403        2.596      458.891       55.230        0.014      343.224       19.182      861.480
04/22/2013  15:03:00      239.249      109.612       25.836      134.222      135.603       86.208    18015.552    18388.064     7431.850        5.687        2.192      263.163       46.585        0.031      343.692       19.978      861.446
04/22/2013  15:04:00      205.946      193.017       16.661       98.682      143.377       95.419     9738.109    20556.894     9104.762        5.967        1.970      282.257       76.001        0.073      343.662       19.927      861.468
04/22/2013  15:05:00       81.078      344.761      -22.690      139.608      193.921      104.732    19490.399    37605.340    10968.789        9.699        3.403      354.166      105.967        0.090      343.388       19.460      861.457
04/22/2013  15:06:00      236.608      171.676       50.999      152.786      107.171      111.442    23343.600    11485.620    12419.333        6.764        2.362      292.328       52.144        0.032      343.606       19.833      861.406
04/22/2013  15:07:00      264.090      140.070       26.716      183.390      135.606      106.803    33631.793    18388.925    11406.862        7.674        3.171      298.936       29.897        0.010      343.464       19.592      861.352
04/22/2013  15:08:00      341.402      231.432      106.860      210.137      166.655      154.255    44157.711    27773.927    23794.709       13.861        4.786      412.451      127.576        0.096      343.558       19.751      861.284
04/22/2013  15:09:00      363.313      245.374       62.076      197.416      133.510       95.084    38973.047    17824.793     9040.979       13.094        3.292      438.412       67.978        0.024      343.385       19.455      861.311
04/22/2013  15:10:00      223.313      317.258       21.757      245.955      202.341      143.772    60494.082    40941.799    20670.247       13.652        6.105      387.971      128.005        0.109      343.086       18.947      861.351
04/22/2013  15:11:00      334.252      205.891       39.666      182.567      137.352      115.719    33330.621    18865.614    13390.938       11.062        3.279      392.575       67.158        0.029      343.274       19.266      861.348
04/22/2013  15:12:00      265.384      162.511       35.405      182.251      123.205       93.666    33215.529    15179.373     8773.256        7.762        2.858      311.189       65.471        0.044      343.497       19.647      861.358
04/22/2013  15:13:00      274.464      177.828       27.631      175.418      137.452       95.246    30771.462    18893.114     9071.770        8.321        2.937      327.037       59.174        0.033      343.355       19.404      861.337
04/22/2013  15:14:00      365.179      232.262       33.734      179.108      141.911      109.881    32079.841    20138.611    12073.737       12.635        3.215      432.783       80.493        0.035      343.229       19.189      861.287
04/22/2013  15:15:00      228.396      162.538       40.596      216.559      151.318       79.591    46897.807    22897.069     6334.788        7.816        3.806      280.328       58.086        0.043      343.303       19.316      861.373
04/22/2013  15:16:00      261.241      158.320       24.386      124.118       84.521       85.651    15405.174     7143.821     7336.010        6.189        1.494      305.471       52.510        0.030      343.276       19.270      861.376
04/22/2013  15:17:00      263.763      162.740       55.751      174.391      118.702       80.414    30412.049    14090.178     6466.456        7.506        2.548      309.928       42.163        0.019      343.445       19.558      861.360
04/22/2013  15:18:00      363.437      197.770       77.276      205.289      127.905      109.330    42143.668    16359.731    11953.056       12.380        3.523      413.763       83.238        0.040      343.050       18.884      861.345
04/22/2013  15:19:00      134.181       95.501       23.867      156.959       94.935       83.469    24636.149     9012.687     6967.132        3.415        2.031      164.697       57.071        0.120      343.337       19.375      861.360
04/22/2013  15:20:00      214.736      142.709       13.910      186.114      112.344       75.088    34638.402    12621.245     5638.155        5.977        2.645      257.832       62.428        0.059      343.425       19.526      861.332
04/22/2013  15:21:00       95.223      136.225       25.217      191.615      130.031       82.982    36716.388    16908.125     6886.037        4.437        3.026      166.207       71.427        0.185      343.670       19.943      861.318
04/22/2013  15:22:00      -66.689      358.123      -41.471      124.353      120.286       65.876    15463.761    14468.726     4339.656        8.434        1.714      364.280       62.664        0.030      343.416       19.508      861.366
04/22/2013  15:23:00     -171.056      308.604      -36.341      138.443      160.167       82.366    19166.408    25653.538     6784.144        8.870        2.580      352.841       90.307        0.066      343.457       19.579      861.328
04/22/2013  15:24:00     -198.801      136.044      -31.361       96.832      119.544       65.095     9376.520    14290.762     4237.409        4.345        1.395      240.894       61.987        0.066      343.480       19.617      861.286
04/22/2013  15:25:00      174.175      175.016       23.099      300.840      134.239       97.955    90504.694    18020.172     9595.111        8.979        5.906      246.917       91.210        0.136      343.470       19.600      861.209
04/22/2013  15:26:00       78.829      221.860       -6.576      247.306      167.702      108.668    61160.351    28123.893    11808.758        7.826        5.055      235.448       85.566        0.132      343.522       19.691      861.167
04/22/2013  15:27:00      -75.467      261.824      -20.236       68.465      150.629       63.989     4687.409    22689.239     4094.541        5.306        1.574      272.483       79.116        0.084      343.402       19.486      861.233
04/22/2013  15:28:00      -36.460      232.339      -33.921       57.818      122.073       43.529     3342.879    14901.863     1894.774        3.830        1.007      235.183       59.240        0.063      343.248       19.223      861.207
04/22/2013  15:29:00      -12.582      313.489      -45.702       70.133       66.196       37.140     4918.579     4381.919     1379.385        5.560        0.534      313.741       30.479        0.009      343.404       19.488      861.196
04/22/2013  15:30:00      -35.486      289.501      -32.576       80.912      114.033       69.376     6546.782    13003.545     4813.098        5.524        1.218      291.668       67.002        0.053      343.778       20.126      861.218
04/22/2013  15:31:00       15.336      246.133      -22.094       78.828      121.749       68.704     6213.898    14822.877     4720.200        4.353        1.288      246.611       75.021        0.093      343.554       19.743      861.233
04/22/2013  15:32:00       -2.497      157.227       -0.313      113.354      138.437       58.912    12849.213    19164.682     3470.648        3.010        1.774      157.246       63.826        0.165      343.844       20.241      861.227
04/22/2013  15:33:00      108.549      355.544      -31.991      126.379      168.614      101.453    15971.773    28430.723    10292.671        9.695        2.735      371.745      101.136        0.074      343.358       19.410      861.245
04/22/2013  15:34:00      232.699      201.487       18.648      178.651      139.748      107.144    31916.125    19529.490    11479.922        7.900        3.146      307.808       74.189        0.058      343.071       18.921      861.222
04/22/2013  15:35:00      196.538      128.873       16.056      142.224      111.168       84.099    20227.743    12358.303     7072.571        4.757        1.983      235.022       54.918        0.055      343.120       19.005      861.197
04/22/2013  15:36:00      336.584      205.676       81.894      161.556      119.742       95.942    26100.346    14338.097     9204.952       10.596        2.482      394.451       92.286        0.055      343.272       19.262      861.152
04/22/2013  15:37:00      325.705      200.353       37.626      179.364      148.718      104.837    32171.317    22116.949    10990.900       10.645        3.264      382.394       33.012        0.007      343.187       19.118      861.122
04/22/2013  15:38:00       94.158      297.017       -4.338      130.190      167.442      103.737    16949.566    28036.893    10761.412        7.641        2.787      311.584      102.458        0.108      342.939       18.697      861.156
04/22/2013  15:39:00       13.489      344.063      -27.190      120.782      205.842      103.493    14588.299    42370.777    10710.825        9.347        3.383      344.328      113.779        0.109      343.204       19.147      861.112
04/22/2013  15:40:00      100.499      169.919       -1.346      113.495      169.470       87.074    12881.158    28719.984     7581.809        4.407        2.459      197.415       83.447        0.179      343.764       20.103      861.061
04/22/2013  15:41:00      190.454      134.113       51.428      121.159      110.748       82.437    14679.614    12265.137     6795.797        4.532        1.687      232.936       41.325        0.031      343.672       19.946      861.031
04/22/2013  15:42:00      108.195      336.846      -29.237      158.697      156.668      112.215    25184.736    24544.748    12592.122        9.416        3.116      353.796      103.297        0.085      343.449       19.565      861.027
04/22/2013  15:43:00       73.452      204.708       13.130      111.114      166.195       98.743    12346.325    27620.845     9750.178        4.858        2.486      217.487       89.452        0.169      343.283       19.283      861.037
04/22/2013  15:44:00       82.278      286.211      -22.669      121.919      170.320      102.597    14864.291    29008.836    10526.210        7.179        2.720      297.803      105.800        0.126      343.180       19.106      861.037
04/22/2013  15:45:00      112.101      182.233        1.405      122.603      126.572       82.746    15031.493    16020.516     6846.864        4.183        1.895      213.952       67.202        0.099      343.328       19.359      861.042
04/22/2013  15:46:00      202.227      200.117       32.612      171.201      109.804       94.590    29309.866    12056.887     8947.182        6.615        2.516      284.504       74.129        0.068      343.092       18.957      861.042
04/22/2013  15:47:00      353.173      184.285       28.380      185.571      105.523       91.458    34436.456    11135.048     8364.546       10.671        2.697      398.362       67.932        0.029      343.123       19.009      861.018
04/22/2013  15:48:00      152.419      231.289       -6.272      127.331      147.688       89.260    16213.091    21811.867     7967.348        6.137        2.300      276.994       90.224        0.106      343.191       19.126      861.063
04/22/2013  15:49:00       94.927      181.274      -15.947       85.101      108.919       58.948     7242.219    11863.342     3474.885        3.235        1.129      204.625       60.966        0.089      343.124       19.012      861.044
04/22/2013  15:50:00       93.536      113.308        6.145       94.201       82.814       58.692     8873.879     6858.120     3444.774        2.040        0.959      146.927       41.658        0.080      343.196       19.135      861.025
04/22/2013  15:51:00      235.015      158.643       36.600      129.985       84.674       74.160    16895.989     7169.765     5499.700        5.565        1.478      283.548       33.117        0.014      343.263       19.247      861.006
04/22/2013  15:52:00       64.061      378.104      -49.128      109.525      169.178       74.312    11995.617    28621.052     5522.238        9.780        2.307      383.492       95.971        0.063      343.217       19.171      861.055
04/22/2013  15:53:00     -114.097      378.386      -39.613      107.845      171.999       72.074    11630.504    29583.562     5194.592       10.208        2.320      395.214       76.763        0.038      343.186       19.118      861.051
04/22/2013  15:54:00       19.808      239.248      -14.535      179.932      116.816       87.603    32375.527    13645.992     7674.320        5.576        2.685      240.067       97.591        0.165      343.164       19.078      861.080
04/22/2013  15:55:00      -46.705      391.052      -42.534       77.915      192.946       61.004     6070.701    37228.159     3721.514       10.196        2.351      393.831       84.403        0.046      342.946       18.709      861.085
04/22/2013  15:56:00      122.689      183.568        4.409      124.885      121.381       65.363    15596.238    14733.331     4272.382        4.168        1.730      220.794       71.571        0.105      343.082       18.940      861.050
04/22/2013  15:57:00      100.037      175.480       -2.722      124.503      110.356       55.365    15501.008    12178.525     3065.250        3.577        1.537      201.992       52.229        0.067      343.255       19.238      861.044
04/22/2013  15:58:00      110.626      120.751       13.917       83.909       86.010       72.677     7040.804     7397.730     5281.971        2.336        0.986      163.765       49.727        0.092      343.247       19.221      861.046
04/22/2013  15:59:00       63.059      169.664       -6.310      103.782      126.242       67.486    10770.664    15937.127     4554.317        3.203        1.563      181.004       66.595        0.135      343.331       19.364      861.037
04/22/2013  16:00:00      145.365      145.589       19.254      163.407      117.101       75.799    26701.743    13712.693     5745.497        4.442        2.308      205.736       64.359        0.098      343.513       19.676      861.061
04/22/2013  16:01:00      329.867      171.820       26.365      144.326      117.910       94.876    20830.022    13902.699     9001.487        9.137        2.187      371.933       39.636        0.011      343.298       19.308      861.034
04/22/2013  16:02:00      276.823      214.728       -0.228      165.490      140.082      108.559    27387.073    19622.901    11784.949        9.075        2.940      350.341       89.837        0.066      343.161       19.075      861.021
04/22/2013  16:03:00      172.762      182.327       20.141      133.727      120.444       97.587    17882.833    14506.664     9523.217        5.270        2.096      251.177       82.971        0.109      343.408       19.496      861.046
04/22/2013  16:04:00       56.489      277.108      -30.380      109.740      197.284       98.185    12042.811    38921.151     9640.238        7.074        3.030      282.807      107.096        0.143      343.249       19.225      861.038
04/22/2013  16:05:00       87.688      344.814      -55.509      119.660      137.063       98.651    14318.401    18786.239     9731.934        8.624        2.142      355.789       90.596        0.065      343.130       19.022      861.054
04/22/2013  16:06:00       34.032      479.397      -54.936      104.739      172.054       92.543    10970.332    29602.535     8564.269       14.156        2.457      480.604       95.992        0.040      343.121       19.005      861.064
04/22/2013  16:07:00       47.648      391.682      -51.748       94.963      171.832       78.586     9018.034    29526.406     6175.727       10.153        2.236      394.569       95.362        0.058      343.074       18.926      861.071
04/22/2013  16:08:00       80.906      220.516      -13.051      127.203      163.229       79.801    16180.604    26643.759     6368.208        5.226        2.460      234.889       87.092        0.137      343.039       18.868      861.074
04/22/2013  16:09:00       82.189      207.646       -0.606       95.756      140.763       81.562     9169.301    19814.285     6652.352        4.275        1.782      223.320       81.805        0.134      343.190       19.125      861.054
04/22/2013  16:10:00       34.354      196.936       -5.764       69.521      136.324       69.212     4833.196    18584.342     4790.285        3.410        1.410      199.910       79.570        0.158      343.099       18.971      861.024
04/22/2013  16:11:00      149.067      216.417        5.319      138.327      139.757       96.161    19134.308    19532.037     9246.989        5.849        2.396      262.787       88.498        0.113      342.944       18.705      861.012
04/22/2013  16:12:00       75.455      284.831      -31.180       78.177      133.809       65.500     6111.693    17904.855     4290.238        5.804        1.415      294.656       64.408        0.048      343.054       18.892      861.001
04/22/2013  16:13:00      152.863      137.125       18.256      151.597      105.100       86.416    22981.651    11046.016     7467.649        4.199        2.075      205.355       67.969        0.110      343.311       19.329      860.980
04/22/2013  16:14:00      221.531      203.041       24.399      163.163      147.019      104.204    26622.031    21614.704    10858.487        7.498        2.955      300.502       74.877        0.062      343.398       19.477      860.960
04/22/2013  16:15:00       99.792      292.677        1.227      129.650      202.573      124.417    16809.052    41035.885    15479.555        8.446        3.666      309.222      133.610        0.187      343.262       19.248      861.008
04/22/2013  16:16:00       81.978      411.448      -47.757      108.668      217.127       86.374    11808.790    47144.286     7460.424       12.234        3.321      419.536      106.115        0.064      342.797       18.456      861.051
04/22/2013  16:17:00      124.800      264.299       -6.913      150.297      173.500       85.723    22589.311    30102.309     7348.378        7.275        3.002      292.282       97.930        0.112      342.847       18.542      861.017
04/22/2013  16:18:00      162.706      256.131      -10.847      146.920      154.335      109.966    21585.478    23819.231    12092.522        7.483        2.875      303.441       92.344        0.093      342.922       18.668      861.000
04/22/2013  16:19:00      139.005      188.166       13.156      138.359      133.496       93.521    19143.133    17821.255     8746.209        5.030        2.286      233.942       67.591        0.083      342.959       18.732      860.963
04/22/2013  16:20:00      319.462      209.961       60.031      183.674      135.387      112.818    33736.103    18329.566    12727.887       10.726        3.240      382.282       70.993        0.034      342.922       18.668      860.946
04/22/2013  16:21:00       17.638      319.272      -21.764       94.447      216.223       89.611     8920.172    46752.373     8030.176        8.320        3.185      319.759      102.729        0.103      343.005       18.811      860.966
04/22/2013  16:22:00      201.998      267.103       -3.991      202.503      195.422      115.875    41007.514    38189.776    13427.014       10.237        4.631      334.884      105.289        0.099      343.001       18.802      860.990
04/22/2013  16:23:00      126.762      250.938      -10.815      126.673      197.468      112.434    16046.150    38993.658    12641.317        7.340        3.384      281.138      107.479        0.146      342.934       18.689      860.939
04/22/2013  16:24:00      288.369      202.845       49.631      185.842      113.676       96.985    34537.367    12922.307     9406.135        9.180        2.843      352.566       83.263        0.056      343.223       19.180      860.913
04/22/2013  16:25:00      301.692      249.719        7.940      191.319      119.704       93.641    36602.830    14329.025     8768.602       10.656        2.985      391.635       67.630        0.030      343.006       18.811      860.911
04/22/2013  16:26:00       62.805      258.822      -22.955      126.379      155.865       90.719    15971.618    24293.983     8229.924        5.997        2.425      266.333       96.534        0.131      343.307       19.323      860.979
04/22/2013  16:27:00        0.178      384.221      -38.216      115.323      192.134       87.152    13299.337    36915.424     7595.435       10.344        2.891      384.221      102.060        0.071      343.439       19.549      861.018
04/22/2013  16:28:00     -163.191      373.368      -57.589      160.432      159.568       69.683    25738.351    25461.997     4855.741       11.269        2.803      407.474       81.278        0.040      343.204       19.148      861.004
04/22/2013  16:29:00      -97.227      382.408      -54.538      120.847      190.279       63.283    14604.018    36206.068     4004.693       10.673        2.741      394.574       81.781        0.043      343.162       19.077      860.978
04/22/2013  16:30:00      -13.172      554.577      -65.374      123.393      133.881       78.585    15225.868    17924.053     6175.576       17.566        1.966      554.734       73.114        0.017      342.882       18.599      860.960
04/22/2013  16:31:00        4.707      483.783      -70.205       93.103      105.757       56.309     8668.081    11184.597     3170.688       13.101        1.151      483.806       39.308        0.007      342.881       18.598      860.954
04/22/2013  16:32:00     -121.722      272.664      -26.972       91.146      128.554       70.625     8307.527    16526.013     4987.878        5.985        1.491      298.600       73.503        0.061      343.165       19.083      860.950
04/22/2013  16:33:00     -145.626      131.177      -27.243       96.507      132.316       48.611     9313.521    17507.607     2363.014        3.416        1.459      195.996       47.464        0.059      343.043       18.875      860.928
04/22/2013  16:34:00       13.350      179.462      -14.090       56.501       91.995       55.392     3192.408     8463.150     3068.246        2.365        0.736      179.958       52.159        0.084      343.154       19.064      860.900
04/22/2013  16:35:00       60.465      262.243       -3.160      134.347      162.026      100.579    18049.153    26252.310    10116.131        6.342        2.721      269.123      111.672        0.172      343.286       19.288      860.927
04/22/2013  16:36:00       85.113      304.855      -23.146      139.022      212.052      102.506    19327.046    44965.928    10507.401        8.774        3.740      316.514      111.177        0.123      343.263       19.249      860.901
04/22/2013  16:37:00      177.089      229.036       11.073      173.893      108.328       97.091    30238.871    11734.988     9426.688        6.766        2.570      289.514       65.934        0.052      343.087       18.949      860.922
04/22/2013  16:38:00      129.147      159.735       12.247      117.818      106.822       82.648    13881.011    11410.993     6830.762        3.723        1.606      205.413       67.047        0.107      342.965       18.743      860.924
04/22/2013  16:39:00       99.689      157.705       24.246      140.813      126.652       77.839    19828.343    16040.714     6058.863        3.865        2.096      186.571       61.752        0.110      343.274       19.266      860.922
04/22/2013  16:40:00      -21.370      309.121      -29.225      117.206      168.800       74.780    13737.234    28493.345     5592.079        7.233        2.391      309.859       86.229        0.077      343.418       19.511      860.927
04/22/2013  16:41:00     -137.920      269.675      -36.555      100.770       90.913       67.818    10154.665     8265.213     4599.274        5.805        1.151      302.897       50.530        0.028      343.278       19.272      860.939
04/22/2013  16:42:00     -164.531      414.972      -51.722      112.103      175.289       69.008    12566.985    30726.092     4762.050       12.499        2.403      446.399       68.704        0.024      343.088       18.950      860.954
04/22/2013  16:43:00      -24.897      598.539      -70.926      128.439      183.764       64.268    16496.567    33769.343     4130.356       20.914        2.720      599.057       67.226        0.013      342.902       18.632      860.959
04/22/2013  16:44:00     -118.030      408.082      -44.365      104.842      145.186       75.358    10991.909    21079.071     5678.830       11.008        1.887      424.808       77.870        0.034      342.959       18.731      860.981
04/22/2013  16:45:00     -166.704      200.648      -39.967       84.474       98.997       58.754     7135.854     9800.472     3452.012        4.501        1.019      260.863       51.246        0.039      343.241       19.211      860.970
04/22/2013  16:46:00      -76.433      352.737      -41.498       75.321      131.514       55.783     5673.265    17296.035     3111.692        7.903        1.304      360.923       65.150        0.033      342.991       18.785      860.981
04/22/2013  16:47:00      -71.191      457.107      -50.251       76.369      151.164       60.697     5832.277    22850.456     3684.181       12.445        1.618      462.618       66.893        0.021      342.765       18.400      860.991
04/22/2013  16:48:00     -145.639      207.833      -45.011       80.184      146.534       45.114     6429.502    21472.228     2035.301        4.818        1.497      253.782       22.197        0.008      342.814       18.484      860.961
04/22/2013  16:49:00      -36.077      316.322      -29.396      129.964      145.407       80.557    16890.623    21143.195     6489.400        7.337        2.226      318.373       78.425        0.061      343.048       18.883      860.953
04/22/2013  16:50:00       18.958      345.947      -25.210      128.254      156.620       99.771    16449.133    24529.793     9954.333        8.579        2.547      346.466      103.576        0.089      342.942       18.702      860.985
04/22/2013  16:51:00       69.846      253.035       -7.199      100.414      148.680       85.042    10083.002    22105.856     7232.178        5.418        1.971      262.498       83.339        0.101      342.829       18.510      861.000
04/22/2013  16:52:00      139.022      181.564       17.641      113.293       72.527       71.826    12835.290     5260.102     5158.996        3.792        1.163      228.676       47.511        0.043      342.876       18.589      860.957
04/22/2013  16:53:00      136.144      163.084       17.535       99.580      107.505       75.621     9916.204    11557.338     5718.590        3.631        1.360      212.442       66.066        0.097      342.887       18.609      860.963
04/22/2013  16:54:00      160.489      177.266        9.183      112.553      118.059       66.383    12668.186    13937.907     4406.715        4.413        1.551      239.124       60.030        0.063      342.905       18.639      860.936
04/22/2013  16:55:00      112.743      221.612       -7.812      127.436      143.715      102.564    16239.862    20653.998    10519.405        5.464        2.371      248.642       92.836        0.139      342.965       18.741      860.937
04/22/2013  16:56:00       83.522      218.806      -13.595      102.964      164.236       71.957    10601.599    26973.476     5177.743        4.889        2.138      234.205       79.415        0.115      343.073       18.925      860.942
04/22/2013  16:57:00      -56.634      420.190      -68.349      117.560      144.397       63.731    13820.396    20850.387     4061.691       11.158        1.937      423.989       73.166        0.030      343.068       18.916      860.968
04/22/2013  16:58:00      -57.289      489.673      -59.641      135.386      172.814       73.472    18329.336    29864.707     5398.113       15.009        2.680      493.013       79.164        0.026      342.930       18.682      860.983
04/22/2013  16:59:00      -52.822      335.294      -44.303      152.421      132.561       86.151    23232.017    17572.459     7421.968        8.269        2.411      339.430       85.391        0.063      342.967       18.744      860.998
04/22/2013  17:00:00     -145.307      201.904      -42.556      111.389      128.273       54.361    12407.422    16454.047     2955.085        4.775        1.591      248.755       69.499        0.078      342.825       18.503      861.006
04/22/2013  17:01:00      -22.316      259.023      -21.434       86.268      101.329       60.554     7442.137    10267.548     3666.779        4.471        1.069      259.982       61.195        0.055      342.998       18.796      861.019
04/22/2013  17:02:00      107.482      220.359        4.329      104.105      162.069       98.657    10837.780    26266.434     9733.238        5.347        2.342      245.174      101.499        0.171      342.782       18.430      861.042
04/22/2013  17:03:00       47.515      114.729       11.261       73.550       77.063       57.659     5409.533     5938.781     3324.510        1.511        0.734      124.179       49.514        0.159      342.852       18.550      861.008
04/22/2013  17:04:00      -47.410      372.480      -47.091       80.594      155.110       51.086     6495.388    24059.226     2609.824        8.818        1.658      375.485       67.922        0.033      342.747       18.369      860.995
04/22/2013  17:05:00      -17.745      266.270      -30.662       88.846      136.463       55.508     7893.538    18622.212     3081.158        5.087        1.480      266.861       63.737        0.057      342.738       18.356      860.977
04/22/2013  17:06:00       55.811      309.981      -50.181      133.394      105.289       59.038    17794.032    11085.792     3485.443        6.704        1.618      314.965       52.441        0.028      343.049       18.882      860.969
04/22/2013  17:07:00      107.029      204.747      -11.105      134.507      154.295       81.710    18092.221    23806.838     6676.497        5.103        2.429      231.034       79.904        0.120      342.904       18.638      860.981
04/22/2013  17:08:00      -15.623      274.185      -32.945       60.324       81.962       41.561     3638.927     6717.834     1727.346        4.429        0.604      274.630       39.877        0.021      342.725       18.332      860.958
04/22/2013  17:09:00       62.367      185.435       -8.442       73.861       96.835       66.038     5455.471     9376.946     4361.056        2.877        0.960      195.643       56.996        0.085      343.088       18.952      860.948
04/22/2013  17:10:00       61.007      195.116       -1.728       87.434      154.142       75.522     7644.745    23759.840     5703.640        3.944        1.855      204.431       89.963        0.194      342.894       18.620      860.927
04/22/2013  17:11:00      139.827      240.638      -28.107      131.640      111.449       73.080    17329.123    12420.892     5340.753        5.666        1.755      278.313       54.485        0.038      342.965       18.742      860.918
04/22/2013  17:12:00       98.442      140.374      -24.669      125.947       84.481       57.303    15862.576     7136.973     3283.639        2.814        1.314      171.451       35.279        0.042      343.173       19.096      860.933
04/22/2013  17:13:00      129.895      334.983      -45.386      153.249      200.793       90.393    23485.225    40317.656     8170.814       10.155        3.599      359.286       93.846        0.068      343.010       18.818      860.938
04/22/2013  17:14:00       87.750      307.634      -20.672      169.814      177.327       95.136    28836.962    31444.930     9050.832        8.604        3.467      319.904      106.490        0.111      342.901       18.632      860.934
04/22/2013  17:15:00      -36.863      421.672      -50.899       79.357      127.666       43.953     6297.518    16298.720     1931.861       10.314        1.226      423.281       47.803        0.013      342.845       18.536      860.995
04/22/2013  17:16:00      -41.044      326.059      -48.249      100.819      117.353       58.133    10164.493    13771.826     3379.451        6.882        1.366      328.632       60.089        0.033      342.791       18.444      860.981
04/22/2013  17:17:00       87.794      160.379       19.397       96.169       85.746       72.078     9248.543     7352.415     5195.178        2.780        1.090      182.837       52.969        0.084      342.981       18.768      860.978
04/22/2013  17:18:00       29.357      330.139      -33.569       92.459      190.970       79.117     8548.605    36469.495     6259.428        8.112        2.564      331.441       86.427        0.068      342.872       18.584      860.981
04/22/2013  17:19:00       33.908      414.224      -43.988      114.442      175.962       91.859    13096.903    30962.721     8438.083       11.357        2.625      415.610      100.309        0.058      342.751       18.377      860.989
04/22/2013  17:20:00      111.838      245.721       -3.779      123.637      161.762      101.850    15286.192    26167.069    10373.325        6.235        2.591      269.975       98.040        0.132      342.837       18.525      860.986
04/22/2013  17:21:00       90.262      237.226       -7.869      114.586      170.058      104.749    13129.904    28919.605    10972.267        5.874        2.651      253.818       99.740        0.154      342.746       18.367      860.981
04/22/2013  17:22:00      109.569      219.472       21.654      157.894      158.173      110.060    24930.411    25018.757    12113.199        6.134        3.103      245.302       98.027        0.160      342.729       18.340      860.957
04/22/2013  17:23:00      -22.973      399.959      -49.514      119.070      151.230       71.239    14177.594    22870.585     5075.004       10.253        2.106      400.618       68.221        0.029      342.849       18.543      860.977
04/22/2013  17:24:00      -36.815      326.946      -22.184      170.301      180.483       98.016    29002.530    32574.075     9607.203        8.995        3.559      329.012       92.881        0.080      342.724       18.330      860.991
04/22/2013  17:25:00      -91.924      277.085      -15.283      157.796      157.199       84.638    24899.428    24711.584     7163.653        7.111        2.839      291.935       84.751        0.084      342.736       18.351      861.007
04/22/2013  17:26:00       37.010      418.971      -51.153       86.718      177.685       71.599     7520.030    31571.888     5126.433       11.186        2.211      420.602       87.730        0.044      342.560       18.053      861.011
04/22/2013  17:27:00       74.294      437.847      -34.208      104.901      254.074      111.546    11004.267    64553.616    12442.439       14.318        4.400      444.106      143.761        0.105      342.523       17.991      860.995
04/22/2013  17:28:00       97.908      118.182        7.436       94.493       98.305       84.586     8928.908     9663.837     7154.731        2.467        1.287      153.470       69.804        0.207      342.752       18.379      860.979
04/22/2013  17:29:00       32.983      173.331       -6.765       70.742      126.177       63.923     5004.392    15920.637     4086.187        2.809        1.251      176.441       76.063        0.186      342.821       18.497      860.977
04/22/2013  17:30:00      111.231      103.144        8.887       80.576       70.217       58.868     6492.543     4930.401     3465.413        1.899        0.744      151.694       48.511        0.102      342.855       18.555      860.982
04/22/2013  17:31:00       82.602      150.582       -3.601       99.986      117.291       85.698     9997.275    13757.128     7344.133        3.030        1.555      171.750       61.275        0.127      342.770       18.410      860.989
04/22/2013  17:32:00       70.537      322.170      -31.105      117.157      156.589       95.216    13725.775    24520.261     9066.063        7.851        2.366      329.801       94.517        0.082      342.846       18.538      861.014
04/22/2013  17:33:00      -51.387      410.871      -55.410       61.536      106.587       43.856     3786.723    11360.706     1923.365        9.579        0.854      414.072       31.756        0.006      342.619       18.153      861.050
04/22/2013  17:34:00       47.826      393.692      -48.392      128.381      150.314       74.989    16481.772    22594.329     5623.406       10.215        2.235      396.587       81.061        0.042      342.681       18.258      861.047
04/22/2013  17:35:00      -10.758      326.616      -42.788      107.472      131.680       71.389    11550.337    17339.742     5096.365        7.130        1.699      326.793       70.996        0.047      342.850       18.546      861.049
04/22/2013  17:36:00     -115.127      324.438      -43.158      137.725      153.901       60.906    18968.112    23685.428     3709.546        8.336        2.318      344.259       54.856        0.025      342.822       18.498      861.083
04/22/2013  17:37:00      -77.004      276.522      -14.133      111.047      155.011       74.592    12331.451    24028.493     5563.899        6.225        2.096      287.043       79.108        0.076      342.762       18.395      861.104
04/22/2013  17:38:00      -63.687      409.702      -52.936       87.937       97.327       43.499     7732.850     9472.530     1892.196        9.690        0.955      414.623       41.242        0.010      342.645       18.196      861.102
04/22/2013  17:39:00       75.713      279.797       -4.959       96.458      170.703      100.770     9304.077    29139.474    10154.503        6.631        2.430      289.860      104.546        0.130      342.598       18.118      861.105
04/22/2013  17:40:00       61.981      106.641        9.249      110.477      117.184       91.845    12205.059    13732.170     8435.522        2.483        1.719      123.344       69.934        0.321      342.649       18.205      861.090
04/22/2013  17:41:00       21.192      182.165      -24.198       61.828      186.842       57.180     3822.652    34910.003     3269.596        3.810        2.100      183.394       76.767        0.175      342.793       18.449      861.076
04/22/2013  17:42:00      -12.202      363.423      -50.888       76.423      109.014       55.320     5840.481    11884.073     3060.350        7.780        1.039      363.628       54.869        0.023      342.783       18.431      861.089
04/22/2013  17:43:00      -67.842      469.929      -56.008       91.007      106.874       54.042     8282.274    11422.006     2920.501       12.559        1.131      474.800       52.568        0.012      342.784       18.432      861.102
04/22/2013  17:44:00      -15.311      313.228      -49.857      103.462      139.294       72.068    10704.425    19402.914     5193.768        6.806        1.765      313.602       70.995        0.051      342.804       18.466      861.119
04/22/2013  17:45:00      -13.626      143.947      -17.290       87.996      101.887       62.112     7743.289    10380.996     3857.919        2.159        1.099      144.590       46.802        0.105      342.860       18.564      861.120
04/22/2013  17:46:00     -116.187      306.410      -42.369      102.272      143.178       70.198    10459.460    20500.016     4927.740        7.253        1.794      327.699       77.351        0.056      342.751       18.377      861.152
04/22/2013  17:47:00       19.006      319.661      -31.263      118.783      153.389       67.306    14109.336    23528.316     4530.045        7.284        2.108      320.226       75.115        0.055      342.683       18.260      861.174
04/22/2013  17:48:00       71.382      130.810        3.596       77.430       80.893       58.625     5995.358     6543.642     3436.869        1.909        0.799      149.019       50.557        0.115      342.684       18.264      861.169
04/22/2013  17:49:00       39.351      393.854      -57.539      107.505      167.364       68.803    11557.358    28010.687     4733.918       10.213        2.215      395.815       82.374        0.043      342.631       18.171      861.189
04/22/2013  17:50:00       53.561      423.026      -40.769       99.431      169.383       84.753     9886.457    28690.636     7183.079       11.461        2.288      426.404       92.848        0.047      342.410       17.798      861.213
04/22/2013  17:51:00      112.707      191.918        0.945      131.425      144.465       94.375    17272.545    20870.070     8906.720        4.828        2.352      222.565       85.646        0.148      342.456       17.875      861.207
04/22/2013  17:52:00      -21.156      329.002      -35.971      102.575      153.355       76.102    10521.721    23517.818     5791.512        7.490        1.992      329.681       84.068        0.065      342.638       18.185      861.216
04/22/2013  17:53:00      -57.531      394.638      -49.071       91.867      137.137       49.577     8439.570    18806.572     2457.838        9.557        1.485      398.809       50.459        0.016      342.540       18.019      861.220
04/22/2013  17:54:00      -53.791      342.751      -39.215       96.336      113.995       61.977     9280.585    12994.848     3841.092        7.401        1.306      346.947       64.851        0.035      342.401       17.781      861.226
04/22/2013  17:55:00      -42.919      287.904      -24.074       87.666      111.862       57.590     7685.346    12513.004     3316.611        5.441        1.176      291.086       54.734        0.035      342.576       18.078      861.240
04/22/2013  17:56:00       60.586      164.694       -9.309       77.935      112.137       68.048     6073.900    12574.766     4630.542        2.708        1.164      175.484       75.740        0.186      342.722       18.327      861.265
04/22/2013  17:57:00      -47.320      167.542      -33.300       64.345       98.557       40.320     4140.245     9713.555     1625.734        2.345        0.774      174.096       41.824        0.058      342.880       18.597      861.297
04/22/2013  17:58:00      -28.154      335.402      -31.244       90.843      201.639       62.022     8252.380    40658.453     3846.717        8.350        2.638      336.581       82.577        0.060      342.690       18.273      861.320
04/22/2013  17:59:00       46.854      244.883      -22.861      112.661      156.655       73.332    12692.589    24540.822     5377.552        5.264        2.131      249.325       80.664        0.105      342.574       18.076      861.337
04/22/2013  18:00:00       65.083      204.063      -22.903      104.196      138.808       68.703    10856.848    19267.798     4720.169        4.062        1.742      214.190       72.235        0.114      342.616       18.147      861.343
04/22/2013  18:01:00       76.928      257.435      -32.886      105.609      151.459       80.608    11153.179    22939.775     6497.730        5.692        2.030      268.684       77.606        0.083      342.505       17.959      861.359
04/22/2013  18:02:00       63.985      167.752       -4.269       86.621      130.302       65.810     7503.169    16978.494     4330.895        3.053        1.441      179.540       63.420        0.125      342.558       18.048      861.390
04/22/2013  18:03:00      107.464      149.981       -3.158      128.339      100.728       81.367    16470.927    10146.201     6620.537        3.364        1.662      184.507       66.009        0.128      342.463       17.888      861.379
04/22/2013  18:04:00       24.378      101.669        9.399       68.030       93.771       53.411     4628.014     8792.962     2852.743        1.364        0.814      104.550       47.406        0.206      342.624       18.163      861.391
04/22/2013  18:05:00       -5.772      324.812      -41.250       90.829      204.746       59.357     8249.825    41921.094     3523.280        8.045        2.685      324.863       78.824        0.059      342.462       17.887      861.417
04/22/2013  18:06:00        8.118      321.198      -28.469      100.926      175.056       70.293    10186.137    30644.755     4941.050        7.490        2.289      321.301       84.590        0.069      342.350       17.694      861.436
04/22/2013  18:07:00      -12.756      276.080      -18.874       97.691      166.341       71.167     9543.460    27669.279     5064.742        5.950        2.114      276.374       91.535        0.110      342.444       17.855      861.460
04/22/2013  18:08:00       43.960      368.848      -43.564      125.220      184.906       74.977    15680.098    34190.273     5621.492        9.767        2.775      371.458       82.949        0.050      342.388       17.759      861.477
04/22/2013  18:09:00       85.949      161.731        3.203      136.874      147.583       80.363    18734.586    21780.628     6458.247        4.025        2.349      183.151       86.488        0.223      342.436       17.843      861.509
04/22/2013  18:10:00       51.173      144.432       -2.088      122.942       99.881       64.031    15114.620     9976.261     4099.909        2.633        1.460      153.230       43.497        0.081      342.523       17.990      861.548
04/22/2013  18:11:00      139.564      179.308        2.539      103.355      140.634       80.418    10682.230    19777.870     6466.999        4.427        1.846      227.221       72.180        0.101      342.318       17.642      861.536
04/22/2013  18:12:00       48.841      250.551      -30.151       79.679      120.403       67.823     6348.808    14496.990     4600.011        4.575        1.272      255.267       69.894        0.075      342.336       17.672      861.540
04/22/2013  18:13:00      138.623      138.554       20.983      151.428       90.024       84.064    22930.304     8104.313     7066.738        3.847        1.905      195.994       57.335        0.086      342.333       17.666      861.531
04/22/2013  18:14:00       80.295      261.080      -19.396      102.544      168.900       81.946    10515.327    28527.214     6715.112        6.036        2.288      273.149       87.373        0.102      342.216       17.467      861.527
04/22/2013  18:15:00      -49.384      322.017      -29.369      102.902      137.379       71.388    10588.875    18872.982     5096.194        7.077        1.728      325.782       80.549        0.061      342.306       17.621      861.545
04/22/2013  18:16:00       -8.974      286.389      -14.927       87.916      116.772       58.867     7729.210    13635.758     3465.327        5.357        1.242      286.529       53.995        0.036      342.377       17.741      861.551
04/22/2013  18:17:00       69.486      209.341       -6.986       99.144      120.905       78.435     9829.532    14618.010     6152.028        3.964        1.530      220.572       74.950        0.115      342.330       17.661      861.560
04/22/2013  18:18:00       75.545      173.198        6.377       98.053      117.006       79.588     9614.456    13690.308     6334.290        3.269        1.482      188.957       78.402        0.172      342.278       17.574      861.554
04/22/2013  18:19:00       86.347      283.936      -30.510      109.229      173.196       87.800    11931.048    29996.889     7708.797        6.931        2.482      296.775       99.257        0.112      342.207       17.452      861.557
04/22/2013  18:20:00       65.941      212.558      -11.111      118.087      153.218       74.294    13944.586    23475.790     5519.579        4.629        2.147      222.552       87.533        0.155      342.262       17.546      861.555
04/22/2013  18:21:00       90.895      147.926       12.546       83.609      109.462       73.422     6990.498    11982.003     5390.789        2.733        1.218      173.620       63.097        0.132      342.297       17.605      861.537
04/22/2013  18:22:00       80.638      163.722       -6.049      119.073       96.634       70.860    14178.275     9338.154     5021.159        3.093        1.427      182.503       68.749        0.142      342.302       17.613      861.543
04/22/2013  18:23:00       66.076      167.914        4.496       92.489      116.757       67.988     8554.297    13632.282     4622.375        2.969        1.340      180.447       69.248        0.147      342.326       17.654      861.527
04/22/2013  18:24:00       78.297      189.688      -13.298      101.924      128.364       78.277    10388.559    16477.205     6127.365        3.763        1.650      205.212       79.560        0.150      342.342       17.683      861.532
04/22/2013  18:25:00       48.696      183.227      -10.195       74.997      149.027       71.761     5624.593    22208.939     5149.671        3.451        1.649      189.588       81.621        0.185      342.350       17.696      861.529
04/22/2013  18:26:00       36.750      145.874      -12.971       70.442       90.544       51.333     4962.057     8198.138     2635.123        1.929        0.790      150.432       45.737        0.092      342.360       17.714      861.525
04/22/2013  18:27:00       48.006      184.871      -15.829       71.182       88.548       62.571     5066.943     7840.780     3915.077        2.677        0.841      191.002       56.115        0.086      342.362       17.717      861.547
04/22/2013  18:28:00      105.159      259.021      -19.354      148.216      157.702       73.600    21967.993    24869.854     5416.890        6.538        2.613      279.554       74.738        0.071      342.240       17.508      861.556
04/22/2013  18:29:00      112.431      193.111        8.562      137.512      117.831       79.448    18909.561    13884.104     6312.057        4.455        1.955      223.456       73.640        0.109      342.118       17.303      861.557
04/22/2013  18:30:00       81.562       81.637       12.819      102.841       84.966       62.686    10576.258     7219.212     3929.591        1.760        1.086      115.399       49.096        0.181      342.226       17.486      861.588
04/22/2013  18:31:00      158.239      180.539       14.871      145.844      121.387       90.418    21270.427    14734.690     8175.474        5.101        2.209      240.070       69.894        0.085      342.123       17.309      861.594
04/22/2013  18:32:00      103.126      219.564      -19.506      107.549      136.036       79.505    11566.876    18505.702     6321.021        4.780        1.820      242.577       75.595        0.097      342.025       17.142      861.587
04/22/2013  18:33:00      159.205      140.985       25.738       98.032       71.780       58.379     9610.259     5152.336     3408.075        3.202        0.909      212.657       32.237        0.023      342.031       17.153      861.569
04/22/2013  18:34:00      176.371      196.600       10.556      164.910      196.556       79.707    27195.380    38634.386     6353.140        7.101        3.609      264.118       94.195        0.127      341.989       17.082      861.575
04/22/2013  18:35:00      154.764      225.122        0.609      119.760      152.800       93.044    14342.553    23347.744     8657.114        6.048        2.317      273.188       79.633        0.085      341.902       16.934      861.552
04/22/2013  18:36:00       86.441      215.014       -2.147      115.497      172.501       98.583    13339.651    29756.428     9718.590        5.325        2.641      231.740       88.683        0.146      341.918       16.962      861.551
04/22/2013  18:37:00      209.100      220.544        4.430      165.683      149.697      114.788    27450.704    22409.179    13176.375        7.770        3.152      303.912       97.822        0.104      341.787       16.738      861.543
04/22/2013  18:38:00      169.260      154.433       10.075      131.524      116.473       92.880    17298.619    13565.918     8626.664        4.604        1.975      229.125       49.718        0.047      341.860       16.862      861.541
04/22/2013  18:39:00      183.627      178.942        7.204      146.057      115.072       86.874    21332.670    13241.460     7547.078        5.395        2.106      256.396       68.286        0.071      341.857       16.857      861.539
04/22/2013  18:40:00      265.029      168.610       35.263      158.326      102.593       91.247    25067.211    10525.228     8326.103        7.191        2.196      314.117       51.654        0.027      341.729       16.643      861.536
04/22/2013  18:41:00      260.793      188.306       37.175      154.227      105.951       85.614    23786.096    11225.650     7329.771        7.359        2.117      321.671       47.189        0.022      341.690       16.574      861.544
04/22/2013  18:42:00      355.472      213.269       43.408      170.679      133.059      115.896    29131.359    17704.740    13431.941       11.699        3.013      414.541       82.323        0.039      341.643       16.493      861.548
04/22/2013  18:43:00      258.100      195.492       20.985      163.474      105.133       93.944    26723.815    11052.972     8825.550        7.593        2.330      323.779       46.627        0.021      341.646       16.500      861.574
04/22/2013  18:44:00      222.426      157.641       33.494      125.955       95.911       85.301    15864.766     9198.981     7276.309        5.389        1.617      272.624       50.595        0.034      341.673       16.547      861.588
04/22/2013  18:45:00      186.815      234.610        6.442      158.847      170.130      110.254    25232.266    28944.099    12155.912        7.814        3.317      299.903      107.234        0.128      341.615       16.448      861.587
04/22/2013  18:46:00      260.215      234.841       23.209      182.935      192.194      129.341    33465.183    36938.720    16729.073       10.525        4.357      350.517      113.472        0.105      341.529       16.302      861.582
04/22/2013  18:47:00      200.212      192.230       31.837      159.962      139.654       92.657    25587.742    19503.117     8585.241        6.585        2.684      277.556       73.245        0.070      341.530       16.303      861.582
04/22/2013  18:48:00      263.707      218.663       35.240      193.009      157.499      116.518    37252.529    24805.908    13576.329        9.710        3.782      342.571       91.419        0.071      341.510       16.268      861.592
04/22/2013  18:49:00      207.288      240.519      -10.817      126.709      128.124       83.761    16055.046    16415.887     7015.886        7.020        1.974      317.518       67.103        0.045      341.520       16.285      861.600
04/22/2013  18:50:00      143.138      275.155       -5.090      141.624      152.720       90.504    20057.470    23323.318     8190.901        7.389        2.579      310.159       79.258        0.065      341.526       16.296      861.625
04/22/2013  18:51:00      192.291      267.342      -19.772      163.149      153.000       96.563    26617.434    23409.093     9324.369        8.408        2.968      329.314       83.676        0.065      341.498       16.250      861.616
04/22/2013  18:52:00      175.159      232.215      -12.393      193.892      156.883       86.733    37593.978    24612.308     7522.658        7.723        3.486      290.869       75.667        0.068      341.500       16.251      861.618
04/22/2013  18:53:00      122.493      192.296      -27.568      105.845      108.150       70.914    11203.095    11696.410     5028.733        4.033        1.396      227.997       63.936        0.079      341.565       16.362      861.641
04/22/2013  18:54:00       93.017      184.467       -5.988       99.420      111.233       77.674     9884.265    12372.843     6033.229        3.550        1.415      206.592       59.780        0.084      341.543       16.326      861.658
04/22/2013  18:55:00      233.138      223.752        0.490      175.703      125.325      102.023    30871.437    15706.311    10408.794        8.069        2.849      323.138       59.565        0.034      341.435       16.143      861.660
04/22/2013  18:56:00      194.352      256.868      -13.105      128.266      148.276       98.757    16452.206    21985.724     9752.849        7.605        2.410      322.108       93.155        0.084      341.418       16.113      861.661
04/22/2013  18:57:00      176.186      338.758      -33.407      121.041      165.431       97.677    14650.917    27367.548     9540.838        9.923        2.578      381.836       94.404        0.061      341.414       16.106      861.652
04/22/2013  18:58:00      193.567      198.515       11.136      127.686      124.125       84.722    16303.735    15407.051     7177.752        5.794        1.944      277.265       69.566        0.063      341.437       16.146      861.658
04/22/2013  18:59:00      185.559      208.621        2.136      131.974      105.806      102.498    17417.101    11194.972    10505.784        5.853        1.956      279.204       73.717        0.070      341.367       16.028      861.649
04/22/2013  19:00:00      113.999      265.793      -17.570      114.212      125.085       84.342    13044.316    15646.333     7113.600        5.987        1.790      289.209       75.032        0.067      341.404       16.089      861.656
04/22/2013  19:01:00       67.694      190.773       -7.403       88.787       97.931       66.061     7883.168     9590.392     4364.023        3.143        1.092      202.427       57.194        0.080      341.420       16.118      861.687
04/22/2013  19:02:00      147.273      333.580      -42.181      131.189      194.322      107.589    17210.616    37761.054    11575.376       10.063        3.327      364.644      112.456        0.095      341.353       16.002      861.709
04/22/2013  19:03:00      109.895      334.167      -39.077      113.024      162.411       77.697    12774.325    26377.448     6036.857        8.522        2.259      351.773       84.107        0.057      341.351       16.002      861.714
04/22/2013  19:04:00      138.699      323.691      -45.776       95.979      164.735       91.174     9211.992    27137.527     8312.617        8.538        2.233      352.155       93.520        0.071      341.313       15.936      861.727
04/22/2013  19:05:00       22.528      319.016      -32.598      136.319      155.470       76.752    18582.753    24170.776     5890.889        7.598        2.432      319.810       77.952        0.059      341.353       16.004      861.730
04/22/2013  19:06:00       77.581      240.521      -10.532      108.395      154.348       83.997    11749.396    23823.424     7055.481        5.330        2.131      252.723       90.376        0.128      341.351       16.000      861.738
04/22/2013  19:07:00      107.076      341.010      -22.434      136.315      160.295       98.106    18581.811    25694.528     9624.818        9.107        2.695      357.425       89.362        0.063      341.289       15.895      861.736
04/22/2013  19:08:00      125.066      361.930      -12.338      147.736      209.112      121.901    21826.058    43727.925    14859.819       11.358        4.021      382.929      134.126        0.123      341.258       15.842      861.732
04/22/2013  19:09:00      132.239      384.814      -35.781      144.694      241.856      117.193    20936.456    58494.299    13734.116       12.999        4.658      406.902      139.219        0.117      341.231       15.795      861.740
04/22/2013  19:10:00       88.082      342.066      -12.854      152.898      234.376      107.264    23377.884    54931.928    11505.627       10.736        4.491      353.224      126.953        0.129      341.227       15.791      861.775
04/22/2013  19:11:00      114.030      271.037      -20.420      102.037      152.887       91.675    10411.461    23374.502     8404.315        6.453        2.110      294.047       91.865        0.098      341.223       15.781      861.794
04/22/2013  19:12:00      132.270      262.436      -41.148       90.049      178.131       76.579     8108.762    31730.635     5864.373        6.687        2.285      293.884       93.057        0.100      341.216       15.772      861.802
04/22/2013  19:13:00      112.609      222.811      -10.670      133.952      155.427      100.525    17943.244    24157.683    10105.346        5.731        2.610      249.651       87.374        0.122      341.197       15.741      861.793
04/22/2013  19:14:00       68.455      265.072      -21.686      100.622      152.880       82.860    10124.736    23372.404     6865.753        5.788        2.018      273.769       84.775        0.096      341.209       15.761      861.808
04/22/2013  19:15:00       93.593      216.988      -11.692       85.457      150.735       71.603     7302.820    22720.973     5126.980        4.556        1.758      236.312       73.141        0.096      341.199       15.744      861.813
04/22/2013  19:16:00       70.435      282.995      -26.027       96.584      136.496       90.184     9328.405    18631.182     8133.133        6.090        1.805      291.629       91.653        0.099      341.168       15.690      861.827
04/22/2013  19:17:00      101.373      232.493      -14.346       92.986      122.694       77.530     8646.390    15053.740     6010.942        4.712        1.486      253.632       77.289        0.093      341.166       15.688      861.835
04/22/2013  19:18:00      139.192      114.943        5.652      115.422       77.511       59.116    13322.134     6007.929     3494.707        2.772        1.141      180.517       36.453        0.041      341.143       15.649      861.859
04/22/2013  19:19:00       98.660      220.146       -8.259       82.646      122.666       78.264     6830.364    15046.888     6125.240        4.313        1.400      241.243       82.454        0.117      341.126       15.618      861.867
04/22/2013  19:20:00      134.434      339.948      -33.237      111.788      200.044      104.903    12496.530    40017.794    11004.573        9.912        3.176      365.564      122.373        0.112      341.077       15.536      861.866
04/22/2013  19:21:00       99.558      293.287      -33.133      112.797      149.202       86.855    12723.160    22261.220     7543.811        6.977        2.126      309.724       94.462        0.093      341.062       15.511      861.880
04/22/2013  19:22:00       90.060      268.436      -34.406       93.228      114.209       62.066     8691.511    13043.596     3852.163        5.346        1.279      283.141       68.232        0.058      341.050       15.491      861.887
04/22/2013  19:23:00       75.698      402.449      -52.611      127.728      141.825       90.878    16314.358    20114.192     8258.780       10.757        2.234      409.507       95.158        0.054      341.041       15.475      861.902
04/22/2013  19:24:00       97.912      143.159        4.032      149.543      124.198       74.080    22363.007    15425.136     5487.885        3.668        2.164      173.439       63.158        0.133      341.014       15.431      861.897
04/22/2013  19:25:00      103.670      238.750      -11.560       94.403      144.086       89.212     8911.858    20760.904     7958.745        5.275        1.882      260.286       78.537        0.091      340.995       15.398      861.928
04/22/2013  19:26:00       19.277      265.816      -13.886       97.453      167.533       88.859     9497.091    28067.415     7895.969        5.833        2.273      266.514       94.567        0.126      340.975       15.364      861.937
04/22/2013  19:27:00       70.928      219.771       -1.030       77.065      152.737       90.627     5939.072    23328.439     8213.218        4.540        1.874      230.933       87.713        0.144      340.969       15.352      861.950
04/22/2013  19:28:00       88.420      256.183      -26.424       98.306      137.918       75.082     9664.115    19021.430     5637.250        5.423        1.716      271.012       77.765        0.082      340.945       15.312      861.968
04/22/2013  19:29:00       71.235      279.696      -24.685       91.579      189.219       77.161     8386.631    35803.776     5953.758        6.702        2.507      288.625       85.435        0.088      340.917       15.265      861.982
04/22/2013  19:30:00       46.809      399.140      -56.924      127.277      151.605       87.250    16199.387    22983.984     7612.508       10.576        2.340      401.875       81.275        0.041      340.913       15.260      861.992
04/22/2013  19:31:00       56.474      327.503      -32.373      106.213      179.932       84.199    11281.275    32375.453     7089.512        8.111        2.537      332.336       98.313        0.088      340.889       15.216      862.001
04/22/2013  19:32:00       74.091      436.054      -55.463      116.170      203.251       84.180    13495.556    41310.839     7086.198       13.029        3.095      442.303      106.415        0.058      340.885       15.211      862.005
04/22/2013  19:33:00       70.692      282.287      -18.869      112.451      145.953       81.455    12645.266    21302.201     6634.931        6.280        2.029      291.004       85.867        0.087      340.872       15.189      862.006
04/22/2013  19:34:00       74.853      246.598      -13.898       95.651      212.632       92.741     9149.207    45212.496     8600.958        6.477        3.148      257.708      119.918        0.217      340.846       15.145      862.011
04/22/2013  19:35:00       88.410      310.644      -38.393      132.643      168.237       96.421    17594.250    28303.812     9297.019        8.048        2.760      322.980       85.474        0.070      340.846       15.143      862.010
04/22/2013  19:36:00       80.881      348.102       -6.714      135.775      200.310      111.396    18434.728    40123.957    12409.083        9.935        3.548      357.374      122.714        0.118      340.822       15.105      862.018
04/22/2013  19:37:00       74.953      335.207      -42.270      121.052      176.580       89.440    14653.539    31180.488     7999.426        8.679        2.692      343.484       93.852        0.075      340.823       15.106      862.017
04/22/2013  19:38:00       64.713      356.477      -26.623      131.208      174.116      105.713    17215.507    30316.550    11175.306        9.533        2.935      362.303      106.100        0.086      340.818       15.097      862.018
04/22/2013  19:39:00       66.944      432.359      -57.832      127.493      224.069       93.587    16254.460    50206.799     8758.517       13.497        3.761      437.511      110.487        0.064      340.794       15.059      862.028
04/22/2013  19:40:00       46.340      416.057      -49.363      125.631      161.157       81.435    15783.091    25971.586     6631.628       11.303        2.419      418.629       75.805        0.033      340.777       15.029      862.037
04/22/2013  19:41:00       58.301      294.635      -27.421      123.440      203.917       89.988    15237.476    41581.995     8097.881        7.793        3.246      300.348       99.178        0.109      340.764       15.007      862.070
04/22/2013  19:42:00       99.135      314.510      -32.724      116.928      190.034      100.229    13672.198    36113.088    10045.781        8.481        2.992      329.764      100.458        0.093      340.737       14.961      862.084
04/22/2013  19:43:00       79.604      329.943      -57.001      136.977      202.641       81.941    18762.835    41063.426     6714.344        9.248        3.327      339.410      100.289        0.087      340.731       14.952      862.098
04/22/2013  19:44:00      105.440      344.885      -24.159      119.450      219.228      112.529    14268.268    48060.941    12662.882       10.280        3.750      360.643      125.608        0.121      340.731       14.951      862.098
04/22/2013  19:45:00      129.939      254.238      -43.767      121.467      116.970       73.656    14754.256    13681.897     5425.264        5.864        1.693      285.519       66.456        0.054      340.715       14.923      862.099
04/22/2013  19:46:00      102.608      243.049      -15.483      129.836      168.074       93.527    16857.345    28248.763     8747.210        6.184        2.693      263.820       91.718        0.121      340.691       14.884      862.125
04/22/2013  19:47:00       74.222      180.324       -9.411      104.076      133.302       75.905    10831.752    17769.480     5761.527        3.623        1.718      195.002       71.184        0.133      340.679       14.865      862.143
04/22/2013  19:48:00      115.632      238.124       -9.043      116.527      117.198       78.126    13578.595    13735.418     6103.597        5.178        1.671      264.714       65.303        0.061      340.678       14.861      862.149
04/22/2013  19:49:00       92.661      194.069        0.774      121.351      111.922       93.854    14726.090    12526.509     8808.572        4.115        1.803      215.056       77.932        0.131      340.640       14.798      862.157
04/22/2013  19:50:00       59.418      219.107      -36.062       83.705      135.861       58.865     7006.522    18458.329     3465.130        4.088        1.446      227.021       70.979        0.098      340.634       14.786      862.163
04/22/2013  19:51:00      120.894      220.825      -23.516      106.006      131.137       73.899    11237.356    17196.850     5461.050        4.891        1.695      251.752       65.387        0.067      340.633       14.784      862.173
04/22/2013  19:52:00       93.906      391.300      -58.422       98.249      201.993       87.166     9652.794    40801.322     7597.972       11.169        2.903      402.411      106.215        0.070      340.635       14.786      862.199
04/22/2013  19:53:00      110.833      284.151      -15.739      132.318      176.655       97.994    17508.012    31206.999     9602.824        7.578        2.916      305.001      104.009        0.116      340.605       14.737      862.239
04/22/2013  19:54:00      140.409      277.440      -21.120      142.654      170.771      103.552    20350.086    29162.879    10722.978        7.867        3.012      310.947      100.583        0.105      340.603       14.734      862.241
04/22/2013  19:55:00      146.222      277.459      -19.726      136.344      182.433       99.636    18589.590    33281.933     9927.420        8.026        3.090      313.631      102.007        0.106      340.600       14.728      862.271
04/22/2013  19:56:00      120.627      302.371      -31.601      153.586      169.952      107.121    23588.627    28883.567    11474.871        8.545        3.197      325.544       93.939        0.083      340.603       14.733      862.315
04/22/2013  19:57:00       87.823      263.727      -10.416      125.863      161.559      102.377    15841.522    26101.246    10481.088        6.489        2.621      277.966      110.338        0.158      340.580       14.694      862.337
04/22/2013  19:58:00       69.770      241.928      -19.080       99.346      141.428       74.822     9869.717    20001.940     5598.346        4.961        1.774      251.787       78.478        0.097      340.561       14.663      862.347
04/22/2013  19:59:00       91.416      366.805      -60.469       91.461      146.077       78.341     8365.103    21338.471     6137.369        9.119        1.792      378.025       86.034        0.052      340.572       14.682      862.363
04/22/2013  20:00:00      144.065      139.892       10.721      137.968      106.906       76.347    19035.212    11428.831     5828.794        3.836        1.815      200.810       57.275        0.081      340.515       14.586      862.385
04/22/2013  20:01:00       93.003      207.682        3.392      115.704      139.633       97.332    13387.303    19497.411     9473.421        4.707        2.118      227.555       85.628        0.142      340.485       14.535      862.434
04/22/2013  20:02:00      166.568      163.926       16.924      107.084      115.443       92.745    11466.963    13327.072     8601.623        4.414        1.670      233.702       56.372        0.058      340.498       14.558      862.443
04/22/2013  20:03:00       67.791      368.107      -35.577      138.185      190.901      102.111    19095.109    36443.292    10426.573       10.365        3.298      374.297      102.022        0.074      340.471       14.512      862.472
04/22/2013  20:04:00      141.927      181.535       16.511      137.059      124.140      115.430    18785.290    15410.839    13324.121        5.044        2.376      230.431       79.899        0.120      340.465       14.502      862.493
04/22/2013  20:05:00      151.500      256.477       -5.610      140.041      196.446      117.239    19611.544    38590.940    13744.903        8.034        3.597      297.881      121.221        0.166      340.460       14.491      862.514
04/22/2013  20:06:00       64.700      217.483        3.563      126.179      154.688       89.279    15921.249    23928.513     7970.805        4.965        2.391      226.903       78.036        0.118      340.429       14.442      862.547
04/22/2013  20:07:00      113.907      171.049       26.588      145.340      146.001      103.952    21123.622    21316.386    10806.042        4.808        2.662      205.505       94.562        0.212      340.425       14.433      862.565
04/22/2013  20:08:00      206.833      203.965       18.920      159.234      122.318       97.939    25355.465    14961.688     9591.996        6.731        2.495      290.485       71.492        0.061      340.409       14.406      862.573
04/22/2013  20:09:00      110.592      208.210        5.452      138.817      134.363      104.860    19270.086    18053.539    10995.620        5.196        2.416      235.759       86.259        0.134      340.375       14.349      862.575
04/22/2013  20:10:00       87.526      109.756       28.937      102.425       86.640       79.943    10490.803     7506.452     6390.873        2.246        1.219      140.383       60.740        0.187      340.351       14.310      862.620
04/22/2013  20:11:00      126.437      166.452        7.926       98.817      120.224       81.226     9764.748    14453.816     6597.611        3.728        1.541      209.028       75.014        0.129      340.322       14.259      862.641
04/22/2013  20:12:00      122.496      201.218       -2.180      135.677      142.022       93.570    18408.266    20170.350     8755.434        5.141        2.367      235.572       76.502        0.105      340.289       14.204      862.673
04/22/2013  20:13:00       99.725      200.050      -19.880       91.234      131.505       78.620     8323.683    17293.662     6181.066        4.107        1.590      223.528       77.503        0.120      340.267       14.167      862.685
04/22/2013  20:14:00      159.156      190.993       13.739      165.164      121.146       83.133    27279.272    14676.452     6911.161        5.542        2.443      248.614       67.700        0.074      340.264       14.162      862.703
04/22/2013  20:15:00      114.947      226.995        7.315      133.419      145.217      112.931    17800.610    21087.913    12753.307        5.821        2.582      254.439       94.447        0.138      340.242       14.125      862.736
04/22/2013  20:16:00      170.178      248.589        9.572      148.550      177.705      107.608    22067.029    31579.140    11579.521        7.802        3.261      301.259       99.858        0.110      340.230       14.104      862.766
04/22/2013  20:17:00      122.686      260.277       -4.449      142.613      183.571      103.137    20338.464    33698.307    10637.188        7.373        3.234      287.743      108.543        0.142      340.230       14.104      862.785
04/22/2013  20:18:00      103.355      168.698        0.299      126.488      144.674       98.158    15999.241    20930.667     9635.054        4.284        2.328      197.841       82.090        0.172      340.200       14.053      862.821
04/22/2013  20:19:00      154.096      138.211       32.175      124.689       85.497       69.105    15547.459     7309.794     4775.457        3.575        1.382      206.997       48.625        0.055      340.180       14.021      862.848
04/22/2013  20:20:00      139.458      244.584      -11.910      129.065      147.821      101.325    16657.757    21851.042    10266.670        6.408        2.439      281.549       93.249        0.110      340.177       14.014      862.870
04/22/2013  20:21:00      155.147      144.417       33.132      120.704       93.921       69.847    14569.435     8821.128     4878.646        3.714        1.413      211.960       50.182        0.056      340.160       13.985      862.885
04/22/2013  20:22:00      136.951      130.484        4.783      127.654       93.098       60.455    16295.652     8667.296     3654.796        3.221        1.431      189.160       46.983        0.062      340.130       13.935      862.890
04/22/2013  20:23:00      110.703      201.798       -4.517       84.767      121.434       69.652     7185.431    14746.302     4851.452        3.989        1.339      230.168       66.159        0.083      340.118       13.915      862.921
04/22/2013  20:24:00       82.678      115.092        5.294       92.825       81.629       52.008     8616.554     6663.302     2704.852        1.904        0.899      141.711       46.330        0.107      340.100       13.886      862.954
04/22/2013  20:25:00      181.602      129.429       24.333       91.811       61.999       52.654     8429.315     3843.849     2772.467        3.268        0.752      223.005       27.980        0.016      340.073       13.838      862.989
04/22/2013  20:26:00      226.127      183.187       23.330      110.860      123.088      104.047    12290.018    15150.533    10825.773        6.174        1.913      291.017       67.719        0.054      340.074       13.840      862.996
04/22/2013  20:27:00      179.375      155.504       42.435      133.203       87.359       73.996    17743.164     7631.510     5475.455        4.450        1.543      237.396       48.859        0.042      340.072       13.838      863.040
04/22/2013  20:28:00      231.572      152.722       27.175      120.235       96.352       67.774    14456.341     9283.742     4593.281        5.300        1.417      277.397       42.656        0.024      340.054       13.807      863.057
04/22/2013  20:29:00       99.615      131.787      -11.493      108.601      122.174       54.027    11794.138    14926.436     2918.926        2.853        1.482      165.200       55.942        0.115      340.012       13.737      863.086
04/22/2013  20:30:00      196.384      129.422       15.397      151.240       97.656       92.289    22873.412     9536.650     8517.186        4.823        2.046      235.195       62.567        0.071      339.986       13.694      863.082
04/22/2013  20:31:00      153.633      108.862       12.852       86.814       69.188       55.169     7536.636     4786.928     3043.642        2.549        0.768      188.292       21.519        0.013      339.953       13.639      863.115
04/22/2013  20:32:00      223.321      163.392       22.385      121.718       81.305       52.032    14815.159     6610.498     2707.351        5.060        1.207      276.712       13.160        0.002      339.959       13.647      863.121
04/22/2013  20:33:00      108.498      158.202        3.085       86.140      125.528       83.040     7420.038    15757.241     6895.698        3.343        1.504      191.833       80.441        0.176      339.919       13.581      863.157
04/22/2013  20:34:00      134.985      140.288       10.094      105.879      100.076       73.170    11210.270    10015.169     5353.838        3.229        1.329      194.683       63.771        0.107      339.923       13.586      863.184
04/22/2013  20:35:00      120.051      158.418       -4.607      115.266      103.067       77.819    13286.303    10622.752     6055.849        3.474        1.498      198.768       61.305        0.095      339.900       13.548      863.204
04/22/2013  20:36:00      229.964      167.942       19.109       97.688       73.942       66.503     9542.978     5467.477     4422.613        5.044        0.972      284.759       20.099        0.005      339.897       13.542      863.238
04/22/2013  20:37:00       73.546      120.137       -0.580       76.451       70.378       52.509     5844.707     4953.083     2757.164        1.670        0.678      140.861       48.094        0.117      339.864       13.489      863.265
04/22/2013  20:38:00       56.162      104.747        2.668       59.495       62.490       45.097     3539.656     3905.028     2033.752        1.180        0.474      118.853       38.950        0.107      339.813       13.403      863.300
04/22/2013  20:39:00       66.996      131.912        3.637       70.959       96.523       67.266     5035.217     9316.771     4524.662        2.039        0.944      147.950       59.907        0.164      339.818       13.411      863.327
04/22/2013  20:40:00      118.875      151.016       10.941      102.926       75.192       77.101    10593.694     5653.776     5944.593        2.962        1.110      192.190       52.591        0.075      339.819       13.412      863.368
04/22/2013  20:41:00      266.884      219.655       37.704      194.602      121.308      117.614    37869.984    14715.536    13833.115        9.364        3.321      345.652       87.684        0.064      339.807       13.389      863.381
04/22/2013  20:42:00      131.887      208.525       -9.448      160.274      145.095      116.897    25687.695    21052.463    13664.920        6.067        3.020      246.733      103.057        0.174      339.804       13.385      863.412
04/22/2013  20:43:00      187.536      144.518       27.569      117.916       84.205       76.875    13904.198     7090.449     5909.727        4.185        1.345      236.760       45.948        0.038      339.809       13.396      863.447
04/22/2013  20:44:00      150.295      116.120       32.815      115.185       92.391       78.510    13267.631     8536.107     6163.838        3.255        1.398      189.927       48.702        0.066      339.765       13.321      863.479
04/22/2013  20:45:00       97.829      181.500       10.611      105.277      122.757       80.383    11083.277    15069.184     6461.484        3.761        1.631      206.186       81.229        0.155      339.739       13.277      863.508
04/22/2013  20:46:00      175.570      148.901       -9.027      111.058       89.060       67.083    12333.864     7931.715     4500.140        3.892        1.238      230.210       48.403        0.044      339.714       13.234      863.535
04/22/2013  20:47:00      184.616      156.134       13.708      120.659      114.802       96.768    14558.688    13179.507     9364.077        4.787        1.855      241.787       75.999        0.099      339.711       13.228      863.555
04/22/2013  20:48:00      153.053      194.539        0.325      104.771      134.898       73.665    10976.881    18197.441     5426.523        4.793        1.730      247.529       72.868        0.087      339.699       13.207      863.570
04/22/2013  20:49:00      202.090      138.064       23.064       97.451       69.600       60.046     9496.715     4844.123     3605.516        3.919        0.897      244.749       30.162        0.015      339.662       13.146      863.592
04/22/2013  20:50:00      151.039      127.479       14.632      125.673       82.495       73.624    15793.809     6805.467     5420.520        3.364        1.401      197.645       54.511        0.076      339.636       13.103      863.601
04/22/2013  20:51:00      166.597      132.207       21.384      124.987       75.459       70.220    15621.625     5694.006     4930.840        3.596        1.312      212.681       52.908        0.062      339.636       13.101      863.633
04/22/2013  20:52:00      108.981      127.204       19.307      105.795       84.934       63.966    11192.632     7213.785     4091.618        2.546        1.125      167.505       51.189        0.093      339.592       13.030      863.669
04/22/2013  20:53:00       46.276      121.448       -4.661       59.878       72.786       42.101     3585.375     5297.872     1772.523        1.378        0.533      129.966       35.613        0.075      339.587       13.023      863.712
04/22/2013  20:54:00      166.829      124.561       16.603      100.050       69.218       61.830    10010.034     4791.198     3822.983        3.112        0.931      208.200       35.854        0.030      339.604       13.050      863.722
04/22/2013  20:55:00      167.640      124.933       12.569      104.532       89.396       66.601    10927.017     7991.578     4435.660        3.361        1.168      209.073       43.635        0.044      339.567       12.986      863.760
04/22/2013  20:56:00      181.697      119.862        6.057       87.793       67.673       53.017     7707.603     4579.627     2810.805        3.125        0.755      217.671       35.872        0.027      339.573       12.996      863.767
04/22/2013  20:57:00      128.664      183.516        0.766      112.025      116.315       59.369    12549.618    13529.150     3524.712        3.991        1.480      224.126       57.232        0.065      339.536       12.934      863.787
04/22/2013  20:58:00       54.305      196.745       -5.585       82.116      122.324       70.630     6743.037    14963.145     4988.644        3.419        1.335      204.102       71.917        0.124      339.530       12.923      863.810
04/22/2013  20:59:00       76.217      172.421       -7.854       86.999      153.963       82.788     7568.764    23704.747     6853.908        3.686        1.906      188.516       84.023        0.199      339.517       12.902      863.825
04/22/2013  21:00:00      148.590      156.304       26.792      122.805       97.332       90.219    15081.022     9473.517     8139.557        3.995        1.635      215.661       67.116        0.097      339.521       12.908      863.843
04/22/2013  21:01:00      111.527      283.739      -13.196      125.248      193.688      102.333    15686.978    37515.115    10471.947        7.838        3.184      304.871      108.195        0.126      339.519       12.905      863.844
04/22/2013  21:02:00       83.234      230.817       12.684      123.786      160.803       91.032    15323.093    25857.455     8286.880        5.491        2.473      245.366       85.871        0.122      339.492       12.860      863.862
04/22/2013  21:03:00       56.999      212.807      -13.035       89.668      130.437       79.351     8040.289    17013.682     6296.562        4.002        1.568      220.308       72.941        0.110      339.480       12.839      863.867
04/22/2013  21:04:00       46.774      252.336       -1.894       99.382      165.204       84.815     9876.796    27292.357     7193.619        5.510        2.218      256.635       84.120        0.107      339.464       12.812      863.888
04/22/2013  21:05:00       52.043      177.116       -5.046       99.756      110.661       73.458     9951.277    12245.887     5396.110        3.084        1.380      184.604       71.929        0.152      339.437       12.768      863.920
04/22/2013  21:06:00       93.938      132.306       -0.644       93.513       90.551       65.574     8744.633     8199.403     4299.970        2.378        1.062      162.263       57.031        0.124      339.427       12.751      863.938
04/22/2013  21:07:00       21.418       51.258        2.336       61.014       60.245       34.038     3722.683     3629.416     1158.609        0.580        0.426       55.552       32.039        0.333      339.361       12.640      863.967
04/22/2013  21:08:00       30.726       80.054       -0.894       51.998       43.326       31.018     2703.767     1877.174      962.135        0.645        0.277       85.748       24.728        0.083      339.364       12.648      863.982
04/22/2013  21:09:00       69.557      135.890       -1.056       72.240       84.610       50.218     5218.568     7158.819     2521.801        1.910        0.745      152.657       51.181        0.112      339.366       12.647      864.020
04/22/2013  21:10:00      106.880      109.814        3.005       97.988       57.530       51.836     9601.589     3309.731     2686.970        1.954        0.780      153.239       43.076        0.079      339.354       12.628      864.050
04/22/2013  21:11:00       71.669      271.774      -36.157       82.610      157.445       79.949     6824.375    24788.914     6391.783        5.915        1.900      281.065       89.204        0.101      339.354       12.626      864.086
04/22/2013  21:12:00       77.469      109.417       21.934       85.841       89.029       79.694     7368.604     7926.111     6351.142        2.005        1.082      134.066       65.753        0.241      339.309       12.552      864.132
04/22/2013  21:13:00       55.639      139.015      -18.452       65.409       56.208       43.073     4278.313     3159.366     1855.317        1.603        0.465      149.736       32.287        0.046      339.282       12.508      864.173
04/22/2013  21:14:00      120.829      129.378       18.346      100.416       81.418       51.177    10083.422     6628.884     2619.065        2.550        0.967      177.026       28.725        0.026      339.286       12.515      864.195
04/22/2013  21:15:00       56.357      178.948      -16.231       66.652      119.199       53.032     4442.505    14208.485     2812.351        2.846        1.073      187.612       61.576        0.108      339.261       12.472      864.209
04/22/2013  21:16:00       57.046      151.672      -13.017       79.535      101.636       70.495     6325.838    10329.808     4969.583        2.402        1.081      162.045       64.804        0.160      339.222       12.406      864.207
04/22/2013  21:17:00       61.415      161.396       -7.360       75.194      156.284       76.830     5654.197    24424.771     5902.782        3.292        1.799      172.686       90.397        0.274      339.230       12.421      864.244
04/22/2013  21:18:00       99.467      119.858        9.128       95.478       88.940       60.282     9116.138     7910.383     3633.942        2.250        1.033      155.755       45.012        0.084      339.213       12.392      864.266
04/22/2013  21:19:00      133.835      176.752      -16.506       89.008       93.942       74.874     7922.412     8825.083     5606.054        3.588        1.118      221.705       64.174        0.084      339.203       12.374      864.308
04/22/2013  21:20:00      110.650      141.218       15.076       94.063       87.696       63.674     8847.923     7690.595     4054.368        2.650        1.030      179.405       54.876        0.094      339.182       12.340      864.325
04/22/2013  21:21:00       61.205      182.273       -8.470       78.598      156.309       71.966     6177.663    24432.454     5179.166        3.641        1.789      192.274       83.840        0.190      339.169       12.315      864.352
04/22/2013  21:22:00       56.555      116.498       19.119       89.666       85.998       62.982     8040.023     7395.712     3966.753        1.827        0.970      129.500       64.756        0.250      339.125       12.242      864.362
04/22/2013  21:23:00       74.099      129.671        5.827       91.935       85.792       58.698     8451.973     7360.208     3445.482        2.079        0.963      149.350       46.067        0.095      339.111       12.219      864.379
04/22/2013  21:24:00       20.055      163.065       -3.679       71.094       89.450       52.787     5054.313     8001.366     2786.427        2.142        0.792      164.294       50.273        0.094      339.084       12.173      864.392
04/22/2013  21:25:00       93.755      202.796        2.786      109.593      152.549       94.386    12010.622    23271.292     8908.670        4.705        2.210      223.419      100.551        0.203      339.099       12.197      864.407
04/22/2013  21:26:00       23.102      289.430      -32.988       64.298       93.555       48.196     4134.200     8752.524     2322.879        5.030        0.760      290.351       44.915        0.024      339.104       12.204      864.409
04/22/2013  21:27:00       32.948      155.457      -15.733       59.012       84.323       52.869     3482.436     7110.352     2795.172        1.944        0.669      158.910       53.171        0.112      339.059       12.132      864.426
04/22/2013  21:28:00        4.181      156.233      -14.107       49.868       81.364       41.254     2486.866     6620.056     1701.864        1.771        0.540      156.289       44.366        0.081      339.045       12.108      864.432
04/22/2013  21:29:00        5.836      135.497        4.947       60.191       97.239       41.722     3623.008     9455.465     1740.733        1.662        0.741      135.622       46.913        0.120      338.988       12.013      864.454
04/22/2013  21:30:00      -23.378       93.293       -7.442       36.522       76.978       33.685     1333.860     5925.659     1134.687        0.885        0.420       96.177       29.922        0.097      338.969       11.982      864.466
04/22/2013  21:31:00       21.121      197.164      -17.951       65.526       86.271       54.626     4293.616     7442.729     2983.979        2.718        0.736      198.292       51.876        0.068      338.982       12.001      864.487
04/22/2013  21:32:00       11.177      245.228      -33.989       51.325       55.715       31.861     2634.256     3104.166     1015.153        3.408        0.338      245.482       31.338        0.016      338.988       12.011      864.499
04/22/2013  21:33:00       36.830      282.699      -33.467       53.166      123.979       48.235     2826.571    15370.692     2326.587        5.146        1.026      285.088       50.644        0.032      338.981       12.000      864.530
04/22/2013  21:34:00       13.210      247.448      -31.432       76.922      190.005       53.113     5916.949    36102.056     2820.973        5.361        2.242      247.800       78.264        0.100      338.978       11.994      864.553
04/22/2013  21:35:00       60.490       83.847       12.940       59.262       61.148       51.553     3511.961     3739.072     2657.752        1.038        0.495      103.389       42.107        0.166      338.935       11.925      864.596
04/22/2013  21:36:00       66.032      154.009       -5.267       67.243       77.941       54.234     4521.661     6074.848     2941.274        2.082        0.677      167.568       47.052        0.079      338.917       11.892      864.634
04/22/2013  21:37:00       94.901      148.523        0.245       86.756       99.536       69.307     7526.528     9907.504     4803.507        2.665        1.112      176.253       64.935        0.136      338.927       11.910      864.661
04/22/2013  21:38:00       83.524      146.027       -5.532       94.192       92.943       66.559     8872.083     8638.384     4430.128        2.513        1.097      168.226       61.180        0.132      338.940       11.931      864.673
04/22/2013  21:39:00       25.642      125.231       -2.027       67.921       88.006       53.228     4613.310     7745.064     2833.204        1.576        0.760      127.829       52.771        0.170      338.896       11.858      864.691
04/22/2013  21:40:00        9.250      109.579        5.331       50.974       59.584       42.204     2598.363     3550.250     1781.165        1.002        0.396      109.969       41.117        0.140      338.877       11.827      864.721
04/22/2013  21:41:00        6.368      201.447      -28.535       54.859       87.160       38.914     3009.484     7596.836     1514.277        2.678        0.606      201.548       42.283        0.044      338.884       11.837      864.729
04/22/2013  21:42:00      -11.640      161.191      -25.524       48.547       56.193       28.157     2356.821     3157.613      792.824        1.654        0.315      161.610       31.439        0.038      338.867       11.809      864.739
04/22/2013  21:43:00       33.412      148.593       -5.104       66.901      107.688       57.013     4475.750    11596.699     3250.537        2.127        0.966      152.303       59.997        0.155      338.866       11.807      864.743
04/22/2013  21:44:00       -2.597      219.580      -25.419       43.726       69.208       33.261     1911.950     4789.715     1106.264        2.834        0.390      219.595       26.826        0.015      338.907       11.876      864.736
04/22/2013  21:45:00      -11.438      254.297      -26.001       41.569       72.350       32.442     1727.974     5234.507     1052.488        3.674        0.401      254.554       33.097        0.017      338.858       11.792      864.723
04/22/2013  21:46:00      -31.730      172.595      -16.798       70.008       59.838       34.314     4901.066     3580.580     1177.437        2.037        0.483      175.488       21.566        0.015      338.874       11.820      864.725
04/22/2013  21:47:00      -23.560      345.741      -40.291       39.177       91.121       28.850     1534.816     8302.988      832.334        6.619        0.534      346.543       30.304        0.008      338.907       11.873      864.742
04/22/2013  21:48:00      -31.556      222.926      -23.614       54.910       83.466       33.844     3015.054     6966.637     1145.438        3.119        0.556      225.148       39.350        0.031      338.879       11.828      864.765
04/22/2013  21:49:00      -44.572      266.874      -34.164       62.178       54.331       31.141     3866.094     2951.809      969.732        4.108        0.389      270.571       32.810        0.015      338.877       11.822      864.783
04/22/2013  21:50:00      -40.490      294.702      -44.157       51.845       62.634       28.008     2687.895     3923.031      784.464        4.892        0.370      297.470       20.478        0.005      338.873       11.815      864.803
04/22/2013  21:51:00      -86.056      194.695      -27.887       55.801       68.077       36.513     3113.733     4634.451     1333.163        2.758        0.454      212.866       31.046        0.021      338.871       11.814      864.812
04/22/2013  21:52:00      -61.559      218.954      -19.593       63.001       88.977       44.725     3969.068     7916.845     2000.347        3.300        0.694      227.443       45.737        0.040      338.818       11.725      864.826
04/22/2013  21:53:00      -51.506      159.058      -25.331       59.726       68.771       28.327     3567.223     4729.517      802.398        1.884        0.455      167.189       17.559        0.011      338.877       11.826      864.842
04/22/2013  21:54:00      -45.385      182.200       -7.500       73.218      120.663       52.067     5360.880    14559.676     2710.994        2.897        1.132      187.768       53.242        0.080      338.798       11.693      864.851
04/22/2013  21:55:00      -34.302      279.079      -26.362       66.994       74.119       42.541     4488.144     5493.698     1809.717        4.577        0.590      281.180       37.342        0.018      338.795       11.686      864.869
04/22/2013  21:56:00        7.476      124.217       10.138       66.442       86.223       43.850     4414.479     7434.387     1922.856        1.468        0.689      124.442       51.890        0.174      338.726       11.572      864.891
04/22/2013  21:57:00       68.406       71.445       -0.280       46.840       64.232       46.689     2193.941     4125.712     2179.820        0.914        0.425       98.913       44.500        0.202      338.718       11.560      864.909
04/22/2013  21:58:00       67.677       95.258      -11.406       41.194       48.108       33.195     1696.946     2314.363     1101.897        0.945        0.256      116.851       28.609        0.060      338.692       11.515      864.915
04/22/2013  21:59:00       84.892       76.276       17.699       35.989       26.751       41.874     1295.202      715.589     1753.432        0.855        0.188      114.125       26.063        0.052      338.647       11.441      864.912
04/22/2013  22:00:00       95.660       48.484       44.644       40.541       29.291       37.706     1643.538      857.963     1421.766        0.871        0.196      107.245       23.542        0.048      338.683       11.500      864.945
04/22/2013  22:01:00       38.490       30.913       28.041       38.128       30.377       21.803     1453.748      922.743      475.385        0.304        0.143       49.367       16.186        0.107      338.613       11.383      864.957
04/22/2013  22:02:00       66.770       46.561       27.223       20.382       20.547       23.425      415.442      422.191      548.731        0.438        0.069       81.401       13.702        0.028      338.668       11.476      864.966
04/22/2013  22:03:00      109.620       64.384       10.669       20.050       15.882       15.358      402.014      252.249      235.877        0.858        0.045      127.129        5.950        0.002      338.650       11.446      864.975
04/22/2013  22:04:00       69.391       45.312        4.814       36.011       29.226       19.424     1296.801      854.143      377.275        0.471        0.126       82.875       12.144        0.021      338.720       11.563      864.988
04/22/2013  22:05:00       60.322       42.595       13.935       33.069       23.566       16.191     1093.565      555.372      262.148        0.378        0.096       73.845       15.659        0.045      338.703       11.535      865.007
04/22/2013  22:06:00       48.158       37.781       34.807       21.370       12.655       14.028      456.681      160.139      196.776        0.289        0.041       61.210        9.415        0.024      338.719       11.561      865.032
04/22/2013  22:07:00       61.078       47.669       22.142       16.891       15.019       13.613      285.292      225.580      185.321        0.359        0.035       77.478        8.349        0.012      338.757       11.627      865.046
04/22/2013  22:08:00       76.254       43.490       23.509       26.813       18.720       19.725      718.963      350.449      389.072        0.486        0.073       87.784       18.321        0.044      338.689       11.509      865.052
04/22/2013  22:09:00       28.557       21.541       35.488       27.009       22.967       16.539      729.508      527.482      273.536        0.203        0.077       35.770       14.242        0.159      338.647       11.441      865.045
04/22/2013  22:10:00       36.747       31.374        3.003       23.824       21.123       22.608      567.601      446.169      511.135        0.193        0.076       48.318       16.299        0.114      338.732       11.586      865.053
04/22/2013  22:11:00       40.744       50.419       12.621       36.611       19.502       36.170     1340.341      380.311     1308.268        0.369        0.151       64.823       21.620        0.111      338.764       11.637      865.048
04/22/2013  22:12:00      105.216       49.676       13.581       36.867       34.293       30.771     1359.193     1176.015      946.859        0.860        0.174      116.353        7.089        0.004      338.664       11.470      865.037
04/22/2013  22:13:00       58.107       58.948       10.961       36.004       32.794       31.465     1296.290     1075.445      990.018        0.517        0.168       82.773       19.719        0.057      338.585       11.338      865.044
04/22/2013  22:14:00       73.983       83.770       -1.196       70.057       52.792       45.843     4907.975     2786.978     2101.624        1.114        0.490      111.763       35.884        0.103      338.565       11.302      865.049
04/22/2013  22:15:00       49.908       53.805        9.678       58.547       44.363       36.328     3427.798     1968.049     1319.700        0.610        0.336       73.388       26.158        0.127      338.531       11.246      865.062
04/22/2013  22:16:00       30.545      101.712       -3.453       42.664       49.644       36.593     1820.194     2464.484     1339.042        0.846        0.281      106.199       34.496        0.106      338.531       11.246      865.070
04/22/2013  22:17:00       17.002       90.186      -11.072       32.029       39.830       25.805     1025.843     1586.389      665.873        0.591        0.164       91.775       27.455        0.089      338.507       11.205      865.097
04/22/2013  22:18:00      -11.845       85.163       -9.064       35.515       37.592       21.088     1261.334     1413.138      444.706        0.530        0.156       85.983       23.286        0.073      338.498       11.190      865.104
04/22/2013  22:19:00       20.271      124.829      -21.470       26.326       42.232       17.220      693.078     1783.513      296.527        0.961        0.139      126.464       16.375        0.017      338.507       11.206      865.113
04/22/2013  22:20:00      -16.505      127.972      -18.277       32.020       49.239       19.463     1025.259     2424.452      378.808        1.041        0.191      129.032       24.060        0.035      338.563       11.300      865.116
04/22/2013  22:21:00      -40.437      105.177      -12.050       43.200       51.398       26.123     1866.211     2641.758      682.436        0.902        0.260      112.683       27.309        0.059      338.474       11.150      865.118
04/22/2013  22:22:00       -4.766      186.676      -22.507       41.682       65.504       24.946     1737.365     4290.786      622.306        2.101        0.333      186.737       30.898        0.027      338.527       11.237      865.125
04/22/2013  22:23:00      -36.579       75.533        3.925       50.403       65.743       35.427     2540.432     4322.180     1255.101        0.759        0.406       83.924       41.460        0.244      338.527       11.238      865.117
04/22/2013  22:24:00      -48.522      104.051      -16.081       33.548       34.688       24.066     1125.479     1203.252      579.162        0.817        0.145      114.809       19.616        0.029      338.550       11.277      865.127
04/22/2013  22:25:00      -71.376       74.490      -20.112       31.604       31.730       15.255      998.815     1006.803      232.716        0.664        0.112      103.167       17.893        0.030      338.473       11.149      865.115
04/22/2013  22:26:00      -21.707       38.174       -1.836       37.091       30.881       20.149     1375.720      953.618      405.997        0.233        0.137       43.914       10.588        0.058      338.536       11.255      865.085
04/22/2013  22:27:00      -39.136       73.816       -7.249       40.176       62.177       22.849     1614.150     3866.026      522.070        0.652        0.300       83.549       27.419        0.108      338.476       11.153      865.073
04/22/2013  22:28:00      -71.913       93.718      -23.141       36.311       38.908       20.280     1318.464     1513.811      411.287        0.887        0.162      118.130       21.367        0.033      338.513       11.216      865.069
04/22/2013  22:29:00      -26.718       79.576       -3.707       31.753       35.532       17.548     1008.239     1262.500      307.928        0.482        0.129       83.941       19.417        0.054      338.450       11.109      865.083
04/22/2013  22:30:00      -10.382      135.635      -14.026       37.760       67.449       27.184     1425.802     4549.432      738.994        1.271        0.336      136.032       36.676        0.073      338.473       11.148      865.095
04/22/2013  22:31:00      -55.786      169.549      -16.610       53.136       76.640       32.376     2823.398     5873.722     1048.208        2.094        0.487      178.491       40.910        0.053      338.448       11.104      865.111
04/22/2013  22:32:00      -28.617      167.300      -22.799       42.577       81.288       22.096     1812.833     6607.804      488.242        1.912        0.445      169.730       28.677        0.029      338.483       11.163      865.123
04/22/2013  22:33:00      -22.607      160.218      -22.266       28.728       50.676       20.480      825.270     2568.064      419.426        1.524        0.191      161.805       18.242        0.013      338.420       11.059      865.141
04/22/2013  22:34:00       -0.134      141.466      -14.301       47.862       75.003       23.597     2290.737     5625.515      556.815        1.434        0.424      141.466       29.177        0.043      338.428       11.074      865.149
04/22/2013  22:35:00       33.433       57.155       -0.316       35.397       40.851       26.717     1252.922     1668.830      713.809        0.401        0.182       66.215       26.912        0.165      338.313       10.881      865.149
04/22/2013  22:36:00       16.597      129.601      -10.249       27.674       65.617       35.043      765.878     4305.561     1228.007        1.174        0.315      130.659       41.962        0.103      338.276       10.816      865.147
04/22/2013  22:37:00       -5.955      167.313      -27.287       32.966       42.055       24.999     1086.732     1768.592      624.942        1.613        0.174      167.419       23.590        0.020      338.329       10.906      865.160
04/22/2013  22:38:00      -16.558      107.169      -11.582       19.698       32.810       16.639      387.999     1076.493      276.862        0.682        0.087      108.441       16.977        0.025      338.399       11.024      865.168
04/22/2013  22:39:00      -23.671      136.036       -5.995       49.684       50.045       30.682     2468.515     2504.532      941.391        1.251        0.296      138.080       25.817        0.035      338.229       10.738      865.169
04/22/2013  22:40:00        1.694       70.482        4.294       39.229       40.748       29.022     1538.920     1660.376      842.294        0.451        0.202       70.502       27.534        0.153      338.227       10.737      865.157
04/22/2013  22:41:00      -29.133       81.946       -5.128       24.135       29.420       19.880      582.482      865.518      395.216        0.472        0.092       86.971       19.064        0.048      338.311       10.876      865.157
04/22/2013  22:42:00      -63.963       57.949      -14.238       43.287       34.440       20.296     1873.729     1186.135      411.916        0.556        0.174       86.310       16.242        0.035      338.327       10.902      865.134
04/22/2013  22:43:00      -25.120       68.979      -11.332       34.421       44.200       20.480     1184.833     1953.613      419.447        0.454        0.178       73.411       26.102        0.126      338.254       10.781      865.114
04/22/2013  22:44:00      -33.445      110.297      -18.840       52.730       43.595       21.412     2780.403     1900.496      458.485        0.939        0.257      115.257       15.796        0.019      338.236       10.751      865.106
04/22/2013  22:45:00      -10.587      102.596      -14.758       33.220       47.519       17.001     1103.572     2258.044      289.026        0.725        0.183      103.141       19.255        0.035      338.282       10.829      865.102
04/22/2013  22:46:00      -42.618      107.836      -14.346       27.588       32.921       23.402      761.075     1083.770      547.634        0.802        0.120      115.952       19.158        0.027      338.329       10.907      865.102
04/22/2013  22:47:00      -57.385       59.800       -9.152       30.326       28.394       18.377      919.684      806.213      337.707        0.451        0.103       82.880       16.875        0.041      338.311       10.877      865.109
04/22/2013  22:48:00      -68.849       85.364      -24.913       36.481       40.827       20.815     1330.828     1666.834      433.277        0.804        0.172      109.668       18.350        0.028      338.263       10.796      865.115
04/22/2013  22:49:00      -56.958      141.818      -18.271       39.056       42.710       22.648     1525.343     1824.156      512.914        1.378        0.193      152.828       20.358        0.018      338.225       10.733      865.129
04/22/2013  22:50:00      -55.430       56.970        3.827       58.013       42.980       25.439     3365.533     1847.265      647.147        0.610        0.293       79.486       22.018        0.077      338.201       10.691      865.143
04/22/2013  22:51:00        6.225      111.128       -7.441       29.552       45.950       23.870      873.326     2111.422      569.799        0.800        0.178      111.303       19.964        0.032      338.101       10.525      865.155
04/22/2013  22:52:00        8.237       78.606      -12.975       15.788       24.721       15.141      249.275      611.140      229.245        0.375        0.054       79.036       14.252        0.033      338.093       10.512      865.164
04/22/2013  22:53:00        5.424       87.202       -7.796       17.688       38.432       16.650      312.862     1477.000      277.223        0.488        0.103       87.371       14.030        0.026      338.065       10.464      865.179
04/22/2013  22:54:00      -16.772       95.736      -15.048       23.239       25.826       13.034      540.043      667.003      169.872        0.552        0.069       97.194        8.771        0.008      338.185       10.665      865.192
04/22/2013  22:55:00       -7.046       59.749      -11.111       41.496       29.622       14.462     1721.891      877.465      209.146        0.328        0.140       60.163       13.537        0.051      338.120       10.556      865.207
04/22/2013  22:56:00      -28.681       97.622      -11.168       20.857       32.107       20.959      435.006     1030.832      439.261        0.619        0.095      101.748       21.440        0.044      338.193       10.678      865.223
04/22/2013  22:57:00      -11.468      115.806      -13.620       30.989       31.885       18.115      960.338     1016.633      328.167        0.802        0.115      116.372       10.088        0.008      338.169       10.638      865.238
04/22/2013  22:58:00      -14.214       77.984      -12.301       16.532       25.662       16.217      273.313      658.530      262.984        0.381        0.060       79.268       12.497        0.025      338.150       10.607      865.253
04/22/2013  22:59:00        6.353       51.900       -3.236       18.405       23.916       14.137      338.730      571.967      199.857        0.193        0.056       52.287       11.131        0.045      338.077       10.485      865.260
04/22/2013  23:00:00       24.723       49.075       -7.665       28.313       35.474       17.165      801.649     1258.413      294.624        0.272        0.118       54.951       22.505        0.168      338.025       10.398      865.272
04/22/2013  23:01:00        4.019       30.202        4.870       15.724       37.746       21.869      247.244     1424.764      478.243        0.155        0.108       30.468       23.597        0.600      338.002       10.359      865.285
04/22/2013  23:02:00       30.211       12.529        7.534       19.862       22.051       15.541      394.517      486.263      241.527        0.112        0.056       32.706       10.003        0.094      337.959       10.285      865.299
04/22/2013  23:03:00       23.852       21.539        1.952       15.528       15.812       12.953      241.121      250.013      167.790        0.085        0.033       32.138       12.465        0.150      337.954       10.277      865.313
04/22/2013  23:04:00       -0.329       48.461      -20.855       27.805       25.878       27.482      773.146      669.690      755.261        0.249        0.110       48.462       18.463        0.145      338.083       10.494      865.311
04/22/2013  23:05:00      -50.869       50.508      -13.182       25.563       14.550       13.819      653.454      211.707      190.966        0.318        0.053       71.685       10.081        0.020      338.135       10.579      865.293
04/22/2013  23:06:00       37.258       22.458        2.696        9.888       13.314       11.768       97.767      177.260      138.490        0.116        0.021       43.503        7.689        0.031      338.030       10.405      865.276
04/22/2013  23:07:00       29.811       20.176       -1.224        6.493        8.369        5.498       42.156       70.043       30.230        0.072        0.007       35.997        2.856        0.006      338.061       10.461      865.271
04/22/2013  23:08:00       41.798       27.014        8.673       10.890       10.288        8.006      118.588      105.834       64.101        0.142        0.014       49.767        3.677        0.005      338.050       10.441      865.295
04/22/2013  23:09:00       47.460       46.750        5.027       13.126       10.740       10.730      172.287      115.351      115.128        0.243        0.020       66.618        4.661        0.005      338.037       10.420      865.320
04/22/2013  23:10:00       19.918       25.656       -7.859       15.949       23.880       12.820      254.362      570.267      164.344        0.105        0.049       32.480        8.568        0.070      338.038       10.416      865.349
04/22/2013  23:11:00       25.140       29.375       11.567        9.454       14.598       15.578       89.375      213.110      242.662        0.109        0.027       38.664       10.446        0.073      338.034       10.412      865.375
04/22/2013  23:12:00        7.432       24.541        6.393       10.986        6.548       12.472      120.698       42.881      155.548        0.051        0.016       25.641        7.449        0.084      338.051       10.439      865.393
04/22/2013  23:13:00      -15.045       18.080       -1.177        9.340       12.087        4.909       87.231      146.097       24.099        0.041        0.013       23.521        2.828        0.014      337.967       10.298      865.402
04/22/2013  23:14:00      -24.909      -13.569       -1.424       17.555        9.525       12.034      308.176       90.723      144.807        0.068        0.027       28.365       10.230        0.130      337.925       10.228      865.404
04/22/2013  23:15:00       -4.541       -6.766        1.438       19.478       15.494        9.402      379.393      240.061       88.392        0.039        0.035        8.148       11.089        1.852      337.906       10.198      865.408
04/22/2013  23:16:00       27.898       27.252       10.317       13.171       13.128       10.677      173.481      172.343      114.000        0.104        0.023       38.999        7.335        0.035      337.829       10.068      865.434
04/22/2013  23:17:00       22.399        0.275       -4.469       19.829       32.444        7.565      393.184     1052.623       57.234        0.101        0.075       22.401       12.305        0.302      337.877       10.149      865.457
04/22/2013  23:18:00       16.950      -10.039       -0.048       12.813       29.458       20.084      164.175      867.779      403.364        0.091        0.072       19.700       22.483        1.302      337.929       10.236      865.476
04/22/2013  23:19:00       34.421       25.619       26.539       15.453       14.344       15.858      238.803      205.747      251.465        0.162        0.035       42.909        9.601        0.050      337.771        9.970      865.486
04/22/2013  23:20:00       15.297       60.282       68.411       22.994       27.738       19.232      528.735      769.410      369.889        0.511        0.083       62.192       17.414        0.078      337.796       10.012      865.483
04/22/2013  23:21:00       14.872       31.264       64.344       38.376       41.215       33.133     1472.755     1698.717     1097.763        0.480        0.213       34.621       35.350        1.043      337.746        9.929      865.490
04/22/2013  23:22:00       57.019       53.153       66.071       54.574       48.588       31.195     2978.361     2360.761      973.146        0.838        0.316       77.952       35.019        0.202      337.708        9.866      865.492
04/22/2013  23:23:00       22.204       45.574       67.899       40.091       34.980       23.709     1607.308     1223.623      562.124        0.529        0.170       50.696       24.000        0.224      337.804       10.026      865.515
04/22/2013  23:24:00       21.011       24.522       41.789       32.097       21.677       25.162     1030.242      469.890      633.106        0.246        0.107       32.293       17.945        0.309      337.772        9.971      865.531
04/22/2013  23:25:00      112.351       77.365       38.331       42.372       46.416       34.286     1795.401     2154.446     1175.550        1.260        0.256      136.411       22.737        0.028      337.874       10.144      865.541
04/22/2013  23:26:00       50.849       59.641       12.457       48.247       38.872       26.282     2327.757     1511.058      690.738        0.541        0.226       78.376       20.750        0.070      337.810       10.035      865.544
04/22/2013  23:27:00       40.915       65.618        0.692       24.771       38.918       26.244      613.590     1514.592      688.729        0.440        0.141       77.329       20.949        0.073      337.768        9.965      865.523
04/22/2013  23:28:00       74.803       48.413       10.935       28.335       27.933       26.028      802.849      780.255      677.442        0.516        0.113       89.103       18.292        0.042      337.751        9.936      865.509
04/22/2013  23:29:00       29.418       45.838       -6.466       35.385       27.668       22.299     1252.088      765.493      497.266        0.276        0.126       54.466       16.082        0.087      337.641        9.752      865.498
04/22/2013  23:30:00       56.922       49.069        1.014       37.181       35.122       23.278     1382.411     1233.587      541.863        0.440        0.158       75.153       18.381        0.060      337.614        9.707      865.478
04/22/2013  23:31:00       77.774       52.245        6.419       29.489       24.716       20.544      869.627      610.888      422.049        0.536        0.095       93.692       17.659        0.036      337.731        9.906      865.481
04/22/2013  23:32:00       73.659       72.709        8.391       38.626       45.395       39.459     1491.932     2060.729     1557.007        0.795        0.255      103.500       31.939        0.095      337.821       10.054      865.483
04/22/2013  23:33:00       78.394       53.359       -0.936       38.038       25.710       20.515     1446.908      660.985      420.873        0.576        0.126       94.830       15.049        0.025      337.838       10.081      865.495
04/22/2013  23:34:00       67.630       54.426       15.344       26.806       27.468       25.517      718.548      754.476      651.139        0.495        0.106       86.810       20.481        0.056      337.722        9.889      865.483
04/22/2013  23:35:00       32.840       27.006        3.616       24.762       16.273       11.699      613.152      264.799      136.856        0.142        0.051       42.518       10.171        0.057      337.637        9.745      865.465
04/22/2013  23:36:00       27.295       14.882       11.404       13.860       18.552       12.801      192.104      344.162      163.855        0.090        0.035       31.089        7.488        0.058      337.624        9.725      865.459
04/22/2013  23:37:00       94.696       51.557       17.498       41.964       27.206       19.524     1760.962      740.155      381.194        0.741        0.144      107.821       10.243        0.009      337.706        9.861      865.466
04/22/2013  23:38:00       77.808       57.307       -0.549       30.745       24.414       18.214      945.249      596.031      331.759        0.561        0.094       96.634        9.603        0.010      337.676        9.811      865.492
04/22/2013  23:39:00       73.861       53.049       23.812       35.036       32.425       27.137     1227.508     1051.376      736.423        0.593        0.151       90.938       19.434        0.046      337.679        9.818      865.511
04/22/2013  23:40:00      131.275       80.675       24.544       42.166       32.558       29.932     1777.995     1060.056      895.923        1.404        0.187      154.083       20.618        0.018      337.585        9.658      865.522
04/22/2013  23:41:00      143.545      105.986       23.463       58.197       31.509       37.036     3386.947      992.814     1371.663        1.907        0.288      178.432       11.904        0.004      337.573        9.638      865.552
04/22/2013  23:42:00      109.251       76.599       17.476       46.241       32.380       39.717     2138.264     1048.442     1577.449        1.144        0.238      133.428       20.324        0.023      337.506        9.526      865.569
04/22/2013  23:43:00      143.265      107.284        7.037       50.063       45.442       33.089     2506.352     2065.005     1094.878        1.887        0.283      178.983       24.333        0.018      337.532        9.568      865.584
04/22/2013  23:44:00      168.112      112.194       21.222       54.981       40.275       43.996     3022.931     1622.091     1935.682        2.394        0.329      202.112       12.730        0.004      337.622        9.718      865.599
04/22/2013  23:45:00      181.876       96.507       40.307       59.065       40.537       40.978     3488.667     1643.217     1679.213        2.541        0.341      205.895       24.066        0.014      337.599        9.680      865.603
04/22/2013  23:46:00      114.559       72.207       17.962       44.247       41.163       30.849     1957.775     1694.389      951.667        1.163        0.230      135.417       21.657        0.026      337.482        9.485      865.599
04/22/2013  23:47:00      112.356       69.466       13.695       36.661       36.667       22.102     1344.002     1344.494      488.505        1.041        0.159      132.096       12.550        0.009      337.443        9.419      865.588
04/22/2013  23:48:00       82.418       60.616        2.761       37.321       31.138       21.832     1392.884      969.571      476.631        0.666        0.142      102.308        9.267        0.008      337.387        9.326      865.580
04/22/2013  23:49:00      136.342       73.631       13.233       63.499       44.666       36.377     4032.154     1995.035     1323.298        1.577        0.368      154.953       19.471        0.016      337.360        9.280      865.575
04/22/2013  23:50:00      102.539       53.559        8.068       44.035       22.920       27.205     1939.051      525.309      740.096        0.833        0.160      115.684       13.535        0.014      337.310        9.198      865.592
04/22/2013  23:51:00      143.043       74.208        8.995       81.253       53.374       38.318     6601.990     2848.827     1468.295        1.848        0.546      161.146       16.132        0.010      337.410        9.363      865.592
04/22/2013  23:52:00      152.259       92.830       36.543       59.109       41.816       30.195     3493.824     1748.563      911.733        1.964        0.308      178.326       24.847        0.019      337.397        9.341      865.601
04/22/2013  23:53:00       93.938       73.724       31.744       51.060       38.824       30.587     2607.134     1507.301      935.549        1.016        0.252      119.414       20.636        0.030      337.403        9.354      865.594
04/22/2013  23:54:00      111.208       74.166       31.323       48.764       44.662       39.666     2377.960     1994.671     1573.358        1.240        0.297      133.671       25.137        0.035      337.392        9.334      865.594
04/22/2013  23:55:00       93.922       62.644       53.639       49.468       44.733       39.373     2447.038     2001.054     1550.204        1.081        0.300      112.896       31.041        0.076      337.424        9.389      865.614
04/22/2013  23:56:00      107.006       72.339       51.993       36.805       23.357       28.428     1354.582      545.566      808.139        1.105        0.135      129.163       17.181        0.018      337.506        9.525      865.642
04/22/2013  23:57:00      118.090       87.770       45.177       34.535       35.120       38.804     1192.695     1233.396     1505.741        1.381        0.197      147.135       20.943        0.020      337.485        9.490      865.689
04/22/2013  23:58:00       30.041       20.019       38.145       27.073       36.806       23.243      732.945     1354.710      540.250        0.269        0.131       36.100       20.335        0.317      337.386        9.326      865.716
04/22/2013  23:59:00       56.078       29.584       70.000       48.912       49.405       26.888     2392.391     2440.832      722.973        0.724        0.278       63.403       23.221        0.134      337.469        9.463      865.743
